[[{"header":{"parameterUnit":"m.s-1","parameterCategory":1,"la1":31.0,"la2":29.5877,"lo1":-88.7671,"lo2":-86.6584,"dx":0.0162,"dy":0.0185,"nx":115,"ny":88,"refTime":"2023-01-01T18:00:00:Z","depth":0,"parameterNumber":2,"parameterNumberName":"U-component_of_WINDS"},"data":[0.0,0.0,0.0,0.0,0.0,0.0,0.0,0.0,0.0,0.0,0.0,0.0,0.0,0.0,0.0,0.0,0.0,0.0,0.0,0.0,0.0,0.0,0.0,0.0,0.0,0.0,0.0,0.0,0.0,0.0,0.0,0.0,0.0,0.0,0.0,0.0,0.0,0.0,0.0,0.0,0.0,0.0,0.0,0.0,0.0,0.0,0.0,0.0,0.0,0.0,0.0,0.0,0.0,0.0,0.0,0.0,0.0,0.0,0.0,0.0,0.0,0.0,0.0,0.0,0.0,0.0,0.0,0.0,0.0,0.0,0.0,0.0,0.0,0.0,0.0,0.0,0.0,0.0,0.0,0.0,0.0,0.0,0.0,0.0,0.0,0.0,0.0,0.0,0.0,0.0,0.0,0.0,0.0,0.0,0.0,0.0,0.0,0.0,0.0,0.0,0.0,0.0,0.0,0.0,0.0,0.0,0.0,0.0,0.0,0.0,0.0,0.0,0.0,0.0,0.0,0.0,0.0,0.0,0.0,0.0,0.0,0.0,0.0,0.0,0.0,0.0,0.0,0.0,0.0,0.0,0.0,0.0,0.0,0.0,0.0,0.0,0.0,0.0,0.0,0.0,0.0,0.0,0.0,0.0,0.0,0.0,0.0,0.0,0.0,0.0,0.0,0.0,0.0,0.0,0.0,0.0,0.0,0.0,0.0,0.0,0.0,0.0,0.0,0.0,0.0,0.0,0.0,0.0,0.0,0.0,0.0,0.0,0.0,0.0,0.0,0.0,0.0,0.0,0.0,0.0,0.0,0.0,0.0,0.0,0.0,0.0,0.0,0.0,0.0,0.0,0.0,0.0,0.0,0.0,0.0,0.0,0.0,0.0,0.0,0.0,0.0,0.0,0.0,0.0,0.0,0.0,0.0,0.0,0.0,0.0,0.0,0.0,0.0,0.0,0.0,0.0,0.0,0.0,0.0,0.0,0.0,0.0,0.0,0.0,0.0,0.0,0.0,0.0,0.0,0.0,0.0,0.0,0.0,0.0,0.0,0.0,0.0,0.0,0.0,0.0,0.0,0.0,0.0,0.0,0.0,0.0,0.0,0.0,0.0,0.0,0.0,0.0,0.0,0.0,0.0,0.0,0.0,0.0,0.0,0.0,0.0,0.0,0.0,0.0,0.0,0.0,0.0,0.0,0.0,0.0,0.0,0.0,0.0,0.0,0.0,0.0,0.0,0.0,0.0,0.0,0.0,0.0,0.0,0.0,0.0,0.0,0.0,0.0,0.0,0.0,0.0,0.0,0.0,0.0,0.0,0.0,0.0,0.0,0.0,0.0,0.0,0.0,0.0,0.0,0.0,0.0,0.0,0.0,0.0,0.0,0.0,0.0,0.0,0.0,0.0,0.0,0.0,0.0,0.0,0.0,0.0,0.0,0.0,0.0,0.0,0.0,0.0,0.0,0.0,0.0,0.0,0.0,0.0,0.0,0.0,0.0,0.0,0.0,0.0,0.0,0.0,0.0,0.0,0.0,0.0,0.0,0.0,0.0,0.0,0.0,0.0,0.0,0.0,0.0,0.0,0.0,0.0,0.0,0.0,0.0,0.0,0.0,0.0,0.0,0.0,0.0,0.0,0.0,0.0,0.0,0.0,0.0,0.0,0.0,0.0,0.0,0.0,0.0,0.0,0.0,0.0,0.0,0.0,0.0,0.0,0.0,0.0,0.0,0.0,0.0,0.0,0.0,0.0,0.0,0.0,0.0,0.0,0.0,0.0,0.0,0.0,0.0,0.0,0.0,0.0,0.0,0.0,0.0,0.0,0.0,0.0,0.0,0.0,0.0,0.0,0.0,0.0,0.0,0.0,0.0,0.0,0.0,0.0,0.0,0.0,0.0,0.0,0.0,0.0,0.0,0.0,0.0,0.0,0.0,0.0,0.0,0.0,0.0,0.0,0.0,0.0,0.0,0.0,0.0,0.0,0.0,0.0,0.0,0.0,0.0,0.0,0.0,0.0,0.0,0.0,0.0,0.0,0.0,0.0,0.0,0.0,0.0,0.0,0.0,0.0,0.0,0.0,0.0,0.0,0.0,0.0,0.0,0.0,0.0,0.0,0.0,0.0,0.0,0.0,0.0,0.0,0.0,0.0,0.0,0.0,0.0,0.0,0.0,0.0,0.0,0.0,0.0,0.0,0.0,0.0,0.0,0.0,0.0,0.0,0.0,0.0,0.0,0.0,0.0,0.0,0.0,0.0,0.0,0.0,0.0,0.0,0.0,0.0,0.0,0.0,0.0,0.0,0.0,0.0,0.0,0.0,0.0,0.0,0.0,0.0,0.0,0.0,0.0,0.0,0.0,0.0,0.0,0.0,0.0,0.0,0.0,0.0,0.0,0.0,0.0,0.0,0.0,0.0,0.0,0.0,0.0,0.0,0.0,0.0,0.0,0.0,0.0,0.0,0.0,0.0,0.0,0.0,0.0,0.0,0.0,0.0,0.0,0.0,0.0,0.0,0.0,0.0,0.0,0.0,0.0,0.0,0.0,0.0,0.0,0.0,0.0,0.0,0.0,0.0,0.0,0.0,0.0,0.0,0.0,0.0,0.0,0.0,0.0,0.0,0.0,0.0,0.0,0.0,0.0,0.0,0.0,0.0,0.0,0.0,0.0,0.0,0.0,0.0,0.0,0.0,0.0,0.0,0.0,0.0,0.0,0.0,0.0,0.0,0.0,0.0,0.0,0.0,0.0,0.0,0.0,0.0,0.0,0.0,0.0,0.0,0.0,0.0,0.0,0.0,0.0,0.0,0.0,0.0,0.0,0.0,0.0,0.0,0.0,0.0,0.0,0.0,0.0,0.0,0.0,0.0,0.0,0.0,0.0,0.0,0.0,0.0,0.0,0.0,0.0,0.0,0.0,0.0,0.0,0.0,0.0,0.0,0.0,0.0,0.0,0.0,0.0,0.0,0.0,0.0,0.0,0.0,0.0,0.0,0.0,0.0,0.0,0.0,0.0,0.0,0.0,0.0,0.0,0.0,0.0,0.0,0.0,0.0,0.0,0.0,0.0,0.0,0.0,0.0,0.0,0.0,0.0,0.0,0.0,0.0,0.0,0.0,0.0,0.0,0.0,0.0,0.0,0.0,0.0,0.0,0.0,0.0,0.0,0.0,0.0,0.0,0.0,0.0,0.0,0.0,0.0,0.0,0.0,0.0,0.0,0.0,0.0,0.0,0.0,0.0,0.0,0.0,0.0,0.0,0.0,0.0,0.0,0.0,0.0,0.0,0.0,0.0,0.0,0.0,0.0,0.0,0.0,0.0,0.0,0.0,0.0,0.0,0.0,0.0,0.0,0.0,0.0,0.0,0.0,0.0,0.0,0.0,0.0,0.0,0.0,0.0,0.0,0.0,0.0,0.0,0.0,0.0,0.0,0.0,0.0,0.0,0.0,0.0,0.0,0.0,0.0,0.0,0.0,0.0,0.0,0.0,0.0,0.0,0.0,0.0,0.0,0.0,0.0,0.0,0.0,0.0,0.0,0.0,0.0,0.0,0.0,0.0,0.0,0.0,0.0,0.0,0.0,0.0,0.0,0.0,0.0,0.0,0.0,0.0,0.0,0.0,0.0,0.0,0.0,0.0,0.0,0.0,0.0,0.0,0.0,0.0,0.0,0.0,0.0,0.0,0.0,0.0,0.0,0.0,0.0,0.0,0.0,0.0,0.0,0.0,0.0,0.0,0.0,0.0,0.0,0.0,0.0,0.0,0.0,0.0,0.0,0.0,0.0,0.0,0.0,0.0,0.0,0.0,0.0,0.0,0.0,0.0,0.0,0.0,0.0,0.0,0.0,0.0,0.0,0.0,0.0,0.0,0.0,0.0,0.0,0.0,0.0,0.0,0.0,0.0,0.0,0.0,0.0,0.0,0.0,0.0,0.0,0.0,0.0,0.0,0.0,0.0,0.0,0.0,0.0,0.0,0.0,0.0,0.0,0.0,0.0,0.0,0.0,0.0,0.0,0.0,0.0,0.0,0.0,0.0,0.0,0.0,0.0,0.0,0.0,0.0,0.0,0.0,0.0,0.0,0.0,0.0,0.0,0.0,0.0,0.0,0.0,0.0,0.0,0.0,0.0,0.0,0.0,0.0,0.0,0.0,0.0,0.0,0.0,0.0,0.0,0.0,0.0,0.0,0.0,0.0,0.0,0.0,0.0,0.0,0.0,0.0,0.0,0.0,0.0,0.0,0.0,0.0,0.0,0.0,0.0,0.0,0.0,-3.4559,0.0,0.0,0.0,-3.2031,0.0,0.0,0.0,0.0,0.0,0.0,0.0,0.0,0.0,0.0,0.0,0.0,0.0,0.0,0.0,0.0,0.0,0.0,0.0,0.0,0.0,0.0,0.0,0.0,0.0,0.0,0.0,0.0,0.0,0.0,0.0,0.0,0.0,0.0,0.0,0.0,0.0,0.0,0.0,0.0,0.0,0.0,0.0,0.0,0.0,0.0,0.0,0.0,0.0,0.0,0.0,0.0,0.0,0.0,0.0,0.0,0.0,0.0,0.0,0.0,0.0,0.0,0.0,0.0,0.0,0.0,0.0,0.0,0.0,0.0,0.0,0.0,0.0,0.0,0.0,0.0,0.0,0.0,0.0,0.0,0.0,0.0,0.0,0.0,0.0,0.0,0.0,0.0,0.0,0.0,0.0,0.0,0.0,0.0,0.0,0.0,0.0,0.0,0.0,0.0,0.0,0.0,0.0,0.0,0.0,0.0,0.0,0.0,0.0,0.0,-3.5173,-3.4937,-3.3998,-3.3212,-3.26,0.0,0.0,0.0,0.0,0.0,0.0,0.0,0.0,0.0,0.0,0.0,0.0,0.0,0.0,0.0,0.0,0.0,0.0,0.0,0.0,0.0,0.0,0.0,0.0,0.0,0.0,0.0,0.0,0.0,0.0,0.0,0.0,0.0,0.0,0.0,0.0,0.0,0.0,0.0,0.0,0.0,0.0,0.0,0.0,0.0,0.0,0.0,0.0,0.0,0.0,0.0,0.0,0.0,0.0,0.0,0.0,0.0,0.0,0.0,0.0,0.0,0.0,0.0,0.0,0.0,0.0,0.0,0.0,0.0,0.0,0.0,0.0,0.0,0.0,0.0,0.0,0.0,0.0,0.0,0.0,0.0,0.0,0.0,0.0,0.0,0.0,0.0,0.0,0.0,0.0,0.0,0.0,0.0,0.0,0.0,0.0,0.0,0.0,0.0,0.0,0.0,0.0,0.0,0.0,0.0,0.0,0.0,0.0,0.0,0.0,0.0,0.0,-3.4444,-3.3342,-3.2694,0.0,0.0,0.0,0.0,0.0,0.0,0.0,0.0,0.0,0.0,0.0,0.0,0.0,0.0,0.0,0.0,0.0,0.0,0.0,0.0,0.0,0.0,0.0,0.0,0.0,0.0,0.0,0.0,0.0,0.0,0.0,0.0,0.0,0.0,0.0,0.0,0.0,0.0,0.0,0.0,0.0,0.0,0.0,0.0,0.0,0.0,0.0,0.0,0.0,0.0,0.0,0.0,0.0,0.0,0.0,0.0,0.0,0.0,0.0,0.0,0.0,0.0,0.0,0.0,0.0,0.0,0.0,0.0,0.0,0.0,0.0,0.0,0.0,0.0,0.0,0.0,0.0,0.0,0.0,0.0,0.0,0.0,0.0,0.0,0.0,0.0,0.0,0.0,0.0,0.0,0.0,0.0,0.0,0.0,0.0,0.0,0.0,0.0,0.0,0.0,0.0,0.0,0.0,0.0,0.0,0.0,0.0,0.0,0.0,0.0,-3.6143,-3.5963,-3.4832,0.0,-3.1682,0.0,0.0,0.0,0.0,0.0,0.0,0.0,0.0,0.0,0.0,0.0,0.0,0.0,0.0,0.0,0.0,0.0,0.0,0.0,0.0,0.0,0.0,0.0,0.0,0.0,0.0,0.0,0.0,0.0,0.0,0.0,0.0,0.0,0.0,0.0,0.0,0.0,0.0,0.0,0.0,0.0,0.0,0.0,0.0,0.0,0.0,0.0,0.0,0.0,0.0,0.0,0.0,0.0,0.0,0.0,0.0,0.0,0.0,0.0,0.0,0.0,0.0,0.0,0.0,0.0,0.0,0.0,0.0,0.0,0.0,0.0,0.0,0.0,0.0,0.0,0.0,0.0,0.0,0.0,0.0,0.0,0.0,0.0,0.0,0.0,0.0,0.0,0.0,0.0,0.0,0.0,0.0,0.0,0.0,0.0,0.0,0.0,0.0,0.0,0.0,0.0,0.0,0.0,0.0,0.0,0.0,0.0,0.0,0.0,0.0,-3.6212,-3.5997,-3.445,-3.2894,0.0,0.0,0.0,0.0,0.0,0.0,0.0,0.0,0.0,0.0,0.0,0.0,0.0,0.0,0.0,0.0,0.0,0.0,0.0,0.0,0.0,0.0,0.0,0.0,0.0,0.0,0.0,0.0,0.0,0.0,0.0,0.0,0.0,0.0,0.0,0.0,0.0,0.0,0.0,0.0,0.0,0.0,0.0,0.0,0.0,0.0,0.0,0.0,0.0,0.0,0.0,0.0,0.0,0.0,0.0,0.0,0.0,0.0,0.0,0.0,0.0,0.0,0.0,0.0,0.0,0.0,0.0,0.0,0.0,0.0,0.0,0.0,0.0,0.0,0.0,0.0,0.0,0.0,0.0,0.0,0.0,0.0,0.0,0.0,0.0,0.0,0.0,0.0,0.0,0.0,0.0,0.0,0.0,0.0,0.0,0.0,0.0,0.0,0.0,0.0,0.0,0.0,0.0,0.0,0.0,0.0,0.0,0.0,0.0,0.0,-3.6512,-3.6148,-3.5732,-3.3994,-3.2585,-3.1627,0.0,0.0,0.0,0.0,0.0,0.0,0.0,0.0,0.0,0.0,0.0,0.0,0.0,0.0,0.0,0.0,0.0,0.0,0.0,0.0,0.0,0.0,0.0,0.0,0.0,0.0,0.0,0.0,0.0,0.0,0.0,0.0,0.0,0.0,0.0,0.0,0.0,0.0,0.0,0.0,0.0,0.0,0.0,0.0,0.0,0.0,0.0,0.0,0.0,0.0,0.0,0.0,0.0,0.0,0.0,0.0,0.0,0.0,0.0,0.0,0.0,0.0,0.0,0.0,0.0,0.0,0.0,0.0,0.0,0.0,0.0,0.0,0.0,0.0,0.0,0.0,0.0,0.0,0.0,0.0,0.0,0.0,0.0,0.0,0.0,0.0,0.0,0.0,0.0,0.0,0.0,0.0,0.0,0.0,0.0,0.0,0.0,0.0,0.0,0.0,0.0,0.0,0.0,0.0,0.0,0.0,0.0,0.0,-3.6954,-3.6582,-3.5997,-3.536,-3.3729,-3.2663,0.0,0.0,0.0,0.0,0.0,0.0,0.0,0.0,0.0,0.0,0.0,0.0,0.0,0.0,0.0,0.0,0.0,0.0,0.0,0.0,0.0,0.0,0.0,0.0,0.0,0.0,0.0,0.0,0.0,0.0,0.0,0.0,0.0,0.0,0.0,0.0,0.0,0.0,0.0,0.0,0.0,0.0,0.0,0.0,0.0,0.0,0.0,0.0,0.0,0.0,0.0,0.0,0.0,0.0,0.0,0.0,0.0,0.0,0.0,0.0,0.0,0.0,0.0,0.0,0.0,0.0,0.0,0.0,0.0,0.0,0.0,0.0,0.0,0.0,0.0,0.0,0.0,0.0,0.0,0.0,0.0,0.0,0.0,0.0,0.0,0.0,0.0,0.0,0.0,0.0,0.0,0.0,0.0,0.0,0.0,0.0,0.0,0.0,0.0,0.0,0.0,0.0,0.0,0.0,0.0,0.0,0.0,0.0,0.0,-3.7586,-3.7569,-3.7036,-3.6008,-3.4453,-3.316,0.0,0.0,0.0,0.0,0.0,0.0,0.0,0.0,0.0,0.0,0.0,0.0,0.0,0.0,0.0,0.0,0.0,0.0,0.0,0.0,0.0,0.0,0.0,0.0,0.0,0.0,0.0,0.0,0.0,0.0,0.0,0.0,0.0,0.0,0.0,0.0,0.0,0.0,0.0,0.0,0.0,0.0,0.0,0.0,0.0,0.0,0.0,0.0,0.0,0.0,0.0,0.0,0.0,0.0,0.0,0.0,0.0,0.0,0.0,0.0,0.0,0.0,0.0,0.0,0.0,0.0,0.0,0.0,0.0,0.0,0.0,0.0,0.0,0.0,0.0,0.0,0.0,0.0,0.0,0.0,0.0,0.0,0.0,0.0,0.0,0.0,0.0,0.0,0.0,0.0,0.0,0.0,0.0,0.0,0.0,0.0,0.0,0.0,0.0,0.0,0.0,0.0,0.0,0.0,0.0,0.0,0.0,0.0,0.0,-3.8082,-3.8094,-3.753,-3.641,-3.4995,-3.3598,0.0,0.0,0.0,0.0,0.0,0.0,0.0,0.0,0.0,0.0,0.0,0.0,0.0,0.0,0.0,0.0,0.0,0.0,0.0,0.0,0.0,0.0,0.0,0.0,0.0,0.0,0.0,0.0,0.0,0.0,0.0,0.0,0.0,0.0,0.0,0.0,0.0,0.0,0.0,0.0,0.0,0.0,0.0,0.0,0.0,0.0,0.0,0.0,0.0,0.0,0.0,0.0,0.0,0.0,0.0,0.0,0.0,0.0,0.0,0.0,0.0,0.0,0.0,0.0,0.0,0.0,0.0,0.0,0.0,0.0,0.0,0.0,0.0,0.0,0.0,0.0,0.0,0.0,0.0,0.0,0.0,0.0,0.0,0.0,0.0,0.0,0.0,0.0,0.0,0.0,0.0,0.0,0.0,0.0,0.0,0.0,0.0,0.0,0.0,0.0,0.0,0.0,0.0,0.0,0.0,0.0,0.0,0.0,-3.8412,-3.8437,-3.8122,-3.7566,-3.6487,-3.537,-3.3889,0.0,0.0,0.0,0.0,0.0,0.0,0.0,0.0,0.0,0.0,0.0,0.0,0.0,0.0,0.0,0.0,0.0,0.0,0.0,0.0,0.0,0.0,0.0,0.0,0.0,0.0,0.0,0.0,0.0,0.0,0.0,0.0,0.0,0.0,0.0,0.0,0.0,0.0,0.0,0.0,0.0,0.0,0.0,0.0,0.0,0.0,0.0,0.0,0.0,0.0,0.0,0.0,0.0,0.0,0.0,0.0,0.0,0.0,0.0,0.0,0.0,0.0,0.0,0.0,0.0,0.0,0.0,0.0,0.0,0.0,0.0,0.0,0.0,0.0,0.0,0.0,0.0,0.0,0.0,0.0,0.0,0.0,0.0,0.0,0.0,0.0,0.0,0.0,0.0,0.0,0.0,0.0,0.0,0.0,0.0,0.0,0.0,0.0,0.0,0.0,0.0,0.0,0.0,0.0,0.0,0.0,0.0,0.0,0.0,-3.9945,-4.0569,-4.0145,-3.8571,-3.696,-3.4979,0.0,0.0,0.0,0.0,0.0,0.0,0.0,0.0,0.0,0.0,0.0,0.0,0.0,0.0,0.0,0.0,0.0,0.0,0.0,0.0,0.0,0.0,0.0,0.0,0.0,0.0,0.0,0.0,0.0,0.0,0.0,0.0,0.0,0.0,0.0,0.0,0.0,0.0,0.0,0.0,0.0,0.0,0.0,0.0,0.0,0.0,0.0,0.0,0.0,0.0,0.0,0.0,0.0,0.0,0.0,0.0,0.0,0.0,0.0,0.0,0.0,0.0,0.0,0.0,0.0,0.0,0.0,0.0,0.0,0.0,0.0,0.0,0.0,0.0,0.0,0.0,0.0,0.0,0.0,0.0,0.0,0.0,0.0,0.0,0.0,0.0,0.0,0.0,0.0,0.0,0.0,0.0,0.0,0.0,0.0,0.0,0.0,0.0,0.0,0.0,0.0,0.0,0.0,0.0,0.0,0.0,0.0,0.0,0.0,-4.2057,-4.2064,-4.1312,-3.9814,-3.8202,-3.6143,-3.368,0.0,0.0,0.0,0.0,0.0,0.0,0.0,0.0,0.0,0.0,0.0,0.0,0.0,0.0,0.0,0.0,0.0,0.0,0.0,0.0,0.0,0.0,0.0,0.0,0.0,0.0,0.0,0.0,0.0,0.0,0.0,0.0,0.0,0.0,0.0,0.0,0.0,0.0,0.0,0.0,0.0,0.0,0.0,0.0,0.0,0.0,0.0,0.0,0.0,0.0,0.0,0.0,0.0,0.0,0.0,0.0,0.0,0.0,0.0,0.0,0.0,0.0,0.0,0.0,0.0,0.0,0.0,0.0,0.0,0.0,0.0,0.0,0.0,0.0,0.0,0.0,0.0,0.0,0.0,0.0,0.0,0.0,0.0,0.0,0.0,0.0,0.0,0.0,0.0,0.0,0.0,0.0,0.0,0.0,0.0,0.0,0.0,0.0,0.0,0.0,0.0,0.0,0.0,0.0,0.0,0.0,0.0,0.0,-4.453,-4.2763,-4.1421,-4.0486,-3.9177,-3.733,0.0,0.0,0.0,0.0,0.0,0.0,0.0,0.0,0.0,0.0,0.0,0.0,0.0,0.0,0.0,0.0,0.0,0.0,0.0,0.0,0.0,0.0,0.0,0.0,0.0,0.0,0.0,0.0,0.0,0.0,0.0,0.0,0.0,0.0,0.0,0.0,0.0,0.0,0.0,0.0,0.0,0.0,0.0,0.0,0.0,0.0,0.0,0.0,0.0,0.0,0.0,0.0,0.0,0.0,0.0,0.0,0.0,0.0,0.0,0.0,0.0,0.0,0.0,0.0,0.0,0.0,0.0,0.0,0.0,0.0,0.0,0.0,0.0,0.0,0.0,0.0,0.0,0.0,0.0,0.0,0.0,0.0,0.0,0.0,0.0,0.0,0.0,0.0,0.0,0.0,0.0,0.0,0.0,0.0,0.0,0.0,0.0,0.0,0.0,0.0,0.0,0.0,0.0,0.0,0.0,0.0,0.0,0.0,0.0,-4.4955,-4.4677,-4.3814,-4.2413,-4.0607,-3.8267,0.0,0.0,0.0,0.0,0.0,0.0,0.0,0.0,0.0,0.0,0.0,0.0,0.0,0.0,0.0,0.0,0.0,0.0,0.0,0.0,0.0,0.0,0.0,0.0,0.0,0.0,0.0,0.0,0.0,0.0,0.0,0.0,0.0,0.0,0.0,0.0,0.0,0.0,0.0,0.0,0.0,0.0,0.0,0.0,0.0,0.0,0.0,0.0,0.0,0.0,0.0,0.0,0.0,0.0,0.0,0.0,0.0,0.0,0.0,0.0,0.0,0.0,0.0,0.0,0.0,0.0,0.0,0.0,0.0,0.0,0.0,0.0,0.0,0.0,0.0,0.0,0.0,0.0,0.0,0.0,0.0,0.0,0.0,0.0,0.0,0.0,0.0,0.0,0.0,0.0,0.0,0.0,0.0,0.0,0.0,0.0,0.0,0.0,0.0,0.0,0.0,0.0,0.0,0.0,0.0,0.0,0.0,0.0,-4.5303,-4.5985,-4.6185,-4.5603,-4.4075,-4.1691,-3.9082,0.0,0.0,0.0,0.0,0.0,0.0,0.0,0.0,0.0,0.0,0.0,0.0,0.0,0.0,0.0,0.0,0.0,0.0,0.0,0.0,0.0,0.0,0.0,0.0,0.0,0.0,0.0,0.0,0.0,0.0,0.0,0.0,0.0,0.0,0.0,0.0,0.0,0.0,0.0,0.0,0.0,0.0,0.0,0.0,0.0,0.0,0.0,0.0,0.0,0.0,0.0,0.0,0.0,0.0,0.0,0.0,0.0,0.0,0.0,0.0,0.0,0.0,0.0,0.0,0.0,0.0,0.0,0.0,0.0,0.0,0.0,0.0,0.0,0.0,0.0,0.0,0.0,0.0,0.0,0.0,0.0,0.0,0.0,0.0,0.0,0.0,0.0,0.0,0.0,0.0,0.0,0.0,0.0,0.0,0.0,0.0,0.0,0.0,0.0,0.0,0.0,0.0,0.0,0.0,0.0,0.0,0.0,0.0,-4.6253,-4.7163,-4.7375,-4.6804,-4.5376,-4.2586,-3.985,0.0,0.0,0.0,0.0,0.0,0.0,0.0,0.0,0.0,0.0,0.0,0.0,0.0,0.0,0.0,0.0,0.0,0.0,0.0,0.0,0.0,0.0,0.0,0.0,0.0,0.0,0.0,0.0,0.0,0.0,0.0,0.0,0.0,0.0,0.0,0.0,0.0,0.0,0.0,0.0,0.0,0.0,0.0,0.0,0.0,0.0,0.0,0.0,0.0,0.0,0.0,0.0,0.0,0.0,0.0,0.0,0.0,0.0,0.0,0.0,0.0,0.0,0.0,0.0,0.0,0.0,0.0,0.0,0.0,0.0,0.0,0.0,0.0,0.0,0.0,0.0,0.0,0.0,0.0,0.0,0.0,0.0,0.0,0.0,0.0,0.0,0.0,0.0,0.0,0.0,0.0,0.0,0.0,0.0,0.0,0.0,0.0,0.0,0.0,0.0,0.0,0.0,0.0,0.0,0.0,0.0,0.0,0.0,-4.7252,-4.7703,-4.7996,-4.7448,-4.6112,-4.3495,-4.088,0.0,0.0,0.0,0.0,0.0,0.0,0.0,0.0,0.0,0.0,0.0,0.0,0.0,0.0,0.0,0.0,0.0,0.0,0.0,0.0,0.0,0.0,0.0,0.0,0.0,0.0,0.0,0.0,0.0,0.0,0.0,0.0,0.0,0.0,0.0,0.0,0.0,0.0,0.0,0.0,0.0,0.0,0.0,0.0,0.0,0.0,0.0,0.0,-2.5452,0.0,0.0,0.0,0.0,0.0,0.0,0.0,0.0,0.0,0.0,0.0,0.0,0.0,0.0,0.0,0.0,0.0,0.0,0.0,0.0,0.0,0.0,0.0,0.0,0.0,0.0,0.0,0.0,0.0,0.0,0.0,0.0,0.0,0.0,0.0,0.0,0.0,0.0,0.0,0.0,0.0,0.0,0.0,0.0,0.0,0.0,0.0,0.0,0.0,0.0,0.0,0.0,0.0,0.0,0.0,0.0,0.0,0.0,0.0,-4.7469,-4.8131,-4.8079,-4.7516,-4.6353,-4.3965,-4.1293,0.0,0.0,0.0,0.0,0.0,0.0,0.0,0.0,0.0,0.0,0.0,0.0,0.0,0.0,0.0,0.0,0.0,0.0,0.0,0.0,0.0,0.0,0.0,0.0,0.0,0.0,0.0,0.0,0.0,0.0,0.0,0.0,0.0,0.0,0.0,0.0,0.0,0.0,0.0,0.0,0.0,0.0,0.0,0.0,0.0,0.0,0.0,0.0,0.0,0.0,0.0,0.0,0.0,0.0,0.0,0.0,0.0,0.0,0.0,0.0,0.0,0.0,0.0,0.0,0.0,0.0,0.0,0.0,0.0,0.0,0.0,0.0,0.0,0.0,0.0,0.0,0.0,0.0,0.0,0.0,0.0,0.0,0.0,0.0,0.0,0.0,0.0,0.0,0.0,0.0,0.0,0.0,0.0,0.0,0.0,0.0,0.0,0.0,0.0,0.0,0.0,0.0,0.0,0.0,0.0,0.0,0.0,-4.6005,-4.7441,-4.8511,-4.8146,-4.7531,-4.6667,-4.4289,-4.1635,-3.8644,0.0,0.0,0.0,0.0,0.0,0.0,0.0,0.0,0.0,0.0,0.0,0.0,0.0,0.0,0.0,0.0,0.0,0.0,0.0,0.0,0.0,0.0,0.0,0.0,0.0,0.0,0.0,0.0,0.0,0.0,0.0,0.0,0.0,0.0,0.0,0.0,0.0,0.0,-3.0578,-3.0357,0.0,0.0,0.0,0.0,0.0,0.0,0.0,0.0,-2.7954,0.0,0.0,0.0,0.0,0.0,0.0,0.0,0.0,0.0,0.0,0.0,0.0,0.0,0.0,0.0,0.0,0.0,0.0,0.0,0.0,0.0,0.0,0.0,0.0,0.0,0.0,0.0,0.0,0.0,0.0,0.0,0.0,0.0,0.0,0.0,0.0,0.0,0.0,0.0,0.0,0.0,0.0,0.0,0.0,0.0,0.0,0.0,0.0,0.0,0.0,0.0,0.0,0.0,0.0,0.0,0.0,-4.3684,-4.6186,-4.7961,-4.8907,-4.8936,-4.8447,-4.7428,-4.4893,-4.2314,-3.9782,0.0,0.0,0.0,0.0,0.0,0.0,0.0,0.0,0.0,0.0,0.0,0.0,0.0,0.0,0.0,0.0,0.0,0.0,0.0,0.0,0.0,0.0,0.0,0.0,0.0,0.0,0.0,0.0,0.0,0.0,0.0,0.0,0.0,0.0,0.0,0.0,0.0,0.0,0.0,-3.1511,-3.1524,0.0,0.0,0.0,0.0,0.0,0.0,0.0,0.0,-2.8247,0.0,0.0,0.0,0.0,0.0,0.0,0.0,0.0,0.0,0.0,0.0,0.0,0.0,0.0,0.0,0.0,0.0,0.0,0.0,0.0,0.0,0.0,0.0,0.0,0.0,0.0,0.0,0.0,0.0,0.0,0.0,0.0,0.0,0.0,0.0,0.0,0.0,0.0,0.0,0.0,0.0,0.0,0.0,0.0,0.0,0.0,0.0,0.0,0.0,0.0,0.0,0.0,0.0,0.0,0.0,-4.3449,-4.629,-4.7999,-4.8524,-4.8853,-4.8425,-4.7084,-4.4709,-4.231,0.0,0.0,0.0,0.0,0.0,0.0,0.0,0.0,0.0,0.0,0.0,0.0,0.0,0.0,0.0,0.0,0.0,0.0,0.0,0.0,0.0,0.0,0.0,0.0,0.0,0.0,0.0,0.0,0.0,0.0,0.0,0.0,0.0,0.0,0.0,0.0,0.0,0.0,0.0,0.0,-3.2215,-3.247,-3.2347,0.0,0.0,0.0,0.0,0.0,0.0,-3.0407,-2.9829,0.0,0.0,0.0,0.0,0.0,0.0,0.0,0.0,0.0,0.0,0.0,0.0,0.0,0.0,0.0,0.0,0.0,0.0,0.0,0.0,0.0,0.0,0.0,0.0,0.0,0.0,0.0,0.0,0.0,0.0,0.0,0.0,0.0,0.0,0.0,0.0,0.0,0.0,0.0,0.0,0.0,0.0,0.0,0.0,0.0,0.0,0.0,0.0,0.0,0.0,0.0,0.0,0.0,0.0,0.0,-4.3373,-4.6246,-4.7882,-4.8263,-4.8653,-4.8122,-4.6643,-4.4488,-4.2203,0.0,0.0,0.0,0.0,0.0,0.0,0.0,0.0,0.0,0.0,0.0,0.0,0.0,0.0,0.0,0.0,0.0,0.0,0.0,0.0,0.0,0.0,0.0,0.0,0.0,0.0,0.0,0.0,0.0,0.0,0.0,0.0,0.0,0.0,0.0,0.0,0.0,0.0,0.0,0.0,0.0,-3.3255,-3.3208,-3.3424,0.0,0.0,0.0,0.0,-3.2842,-3.234,0.0,0.0,0.0,0.0,0.0,0.0,0.0,0.0,0.0,0.0,0.0,0.0,0.0,0.0,0.0,0.0,0.0,0.0,0.0,0.0,0.0,0.0,0.0,0.0,0.0,0.0,0.0,0.0,0.0,0.0,0.0,0.0,0.0,0.0,0.0,0.0,0.0,0.0,0.0,0.0,0.0,0.0,0.0,0.0,0.0,0.0,0.0,0.0,0.0,0.0,0.0,0.0,0.0,0.0,0.0,0.0,-4.3557,-4.5885,-4.7659,-4.8723,-4.8702,-4.7978,-4.6634,-4.4673,-4.2387,0.0,0.0,0.0,0.0,0.0,0.0,0.0,0.0,0.0,0.0,0.0,0.0,0.0,0.0,0.0,0.0,0.0,0.0,0.0,0.0,0.0,0.0,0.0,0.0,0.0,0.0,0.0,0.0,0.0,0.0,0.0,0.0,0.0,0.0,0.0,0.0,0.0,0.0,0.0,0.0,0.0,-3.3885,-3.5294,-3.5365,-3.5429,0.0,0.0,-3.5604,-3.46,-3.4374,0.0,0.0,0.0,0.0,0.0,0.0,0.0,0.0,0.0,0.0,0.0,0.0,0.0,0.0,0.0,0.0,0.0,0.0,0.0,0.0,0.0,0.0,0.0,0.0,0.0,0.0,0.0,0.0,0.0,0.0,0.0,0.0,0.0,0.0,0.0,0.0,0.0,0.0,0.0,0.0,0.0,0.0,0.0,0.0,0.0,0.0,0.0,0.0,0.0,0.0,0.0,0.0,0.0,0.0,0.0,-4.1266,-4.3708,-4.6059,-4.754,-4.8111,-4.843,-4.7824,-4.6113,-4.4527,-4.2401,0.0,0.0,0.0,0.0,0.0,0.0,0.0,0.0,0.0,0.0,0.0,0.0,0.0,0.0,0.0,0.0,0.0,0.0,0.0,0.0,0.0,0.0,0.0,0.0,0.0,0.0,0.0,0.0,0.0,0.0,0.0,0.0,0.0,0.0,0.0,0.0,0.0,0.0,0.0,0.0,0.0,0.0,-3.6496,-3.7084,0.0,0.0,0.0,-3.7864,-3.6759,0.0,0.0,0.0,0.0,0.0,0.0,0.0,0.0,0.0,0.0,0.0,0.0,0.0,0.0,0.0,0.0,0.0,0.0,0.0,0.0,0.0,0.0,0.0,0.0,0.0,0.0,0.0,0.0,0.0,0.0,0.0,0.0,0.0,0.0,0.0,0.0,0.0,0.0,0.0,0.0,0.0,0.0,0.0,0.0,0.0,0.0,0.0,0.0,0.0,0.0,0.0,0.0,0.0,0.0,0.0,0.0,0.0,-4.393,-4.6116,-4.748,-4.7835,-4.8193,-4.7555,-4.5977,-4.4569,0.0,0.0,0.0,0.0,0.0,0.0,0.0,0.0,0.0,0.0,0.0,0.0,0.0,0.0,0.0,0.0,0.0,0.0,0.0,0.0,0.0,0.0,0.0,0.0,0.0,0.0,0.0,-2.5683,0.0,0.0,0.0,0.0,0.0,0.0,0.0,0.0,0.0,0.0,0.0,0.0,0.0,0.0,-3.6597,-3.7687,-3.8768,-3.9672,0.0,0.0,-3.9973,-3.8994,-3.8592,-3.774,0.0,0.0,0.0,0.0,0.0,0.0,0.0,0.0,0.0,0.0,0.0,0.0,0.0,0.0,0.0,0.0,0.0,0.0,0.0,0.0,0.0,0.0,0.0,0.0,0.0,0.0,0.0,0.0,0.0,0.0,0.0,0.0,0.0,0.0,0.0,0.0,0.0,0.0,0.0,0.0,0.0,0.0,0.0,0.0,0.0,0.0,0.0,0.0,0.0,0.0,0.0,0.0,0.0,0.0,-4.1873,-4.4333,-4.5904,-4.7259,-4.844,-4.7976,-4.7335,-4.6539,-4.5068,-4.3299,0.0,0.0,0.0,0.0,0.0,0.0,0.0,0.0,0.0,0.0,0.0,0.0,0.0,0.0,0.0,0.0,0.0,0.0,0.0,0.0,0.0,0.0,0.0,0.0,0.0,0.0,0.0,0.0,0.0,0.0,0.0,0.0,0.0,0.0,0.0,0.0,0.0,0.0,0.0,0.0,0.0,-3.7663,-3.9295,-4.0475,-4.1379,0.0,-4.2037,-4.1835,-4.115,-4.0249,-3.9068,-3.7668,0.0,0.0,0.0,0.0,0.0,0.0,0.0,0.0,0.0,0.0,0.0,0.0,0.0,0.0,0.0,0.0,0.0,0.0,0.0,0.0,0.0,0.0,0.0,0.0,0.0,0.0,0.0,0.0,0.0,0.0,0.0,0.0,0.0,0.0,0.0,0.0,0.0,0.0,0.0,0.0,0.0,0.0,0.0,0.0,0.0,0.0,0.0,0.0,0.0,0.0,0.0,0.0,0.0,-4.1482,-4.4403,-4.5616,-4.7017,-4.8523,-4.8356,-4.7839,-4.7049,-4.5645,-4.3988,0.0,0.0,0.0,0.0,0.0,0.0,0.0,0.0,0.0,0.0,0.0,0.0,0.0,0.0,0.0,0.0,0.0,0.0,0.0,0.0,0.0,0.0,0.0,0.0,0.0,0.0,0.0,0.0,-2.6647,-2.6325,-2.5547,0.0,0.0,0.0,0.0,0.0,0.0,0.0,0.0,0.0,0.0,-3.8417,-4.0425,-4.1656,0.0,0.0,-4.3664,-4.3489,-4.2936,-4.2043,-4.1006,-3.9829,-3.7857,0.0,0.0,0.0,0.0,0.0,0.0,0.0,0.0,0.0,0.0,0.0,0.0,0.0,0.0,0.0,0.0,0.0,0.0,0.0,0.0,0.0,0.0,0.0,0.0,0.0,0.0,0.0,-3.1683,0.0,0.0,0.0,0.0,0.0,0.0,0.0,0.0,0.0,0.0,0.0,0.0,0.0,0.0,0.0,0.0,0.0,0.0,0.0,0.0,0.0,0.0,0.0,0.0,-4.13,-4.4312,-4.5555,-4.6978,-4.8588,-4.8711,-4.8443,-4.7608,-4.6501,-4.4975,-4.3039,0.0,0.0,0.0,0.0,0.0,0.0,0.0,0.0,0.0,0.0,0.0,0.0,0.0,0.0,0.0,0.0,0.0,0.0,0.0,0.0,0.0,0.0,0.0,0.0,0.0,0.0,0.0,-2.7113,-2.66,-2.5832,0.0,0.0,0.0,0.0,0.0,0.0,0.0,0.0,0.0,0.0,-3.9697,-4.1555,-4.2911,-4.3991,-4.4769,-4.4895,-4.4744,-4.4367,-4.3405,-4.2457,-4.1657,0.0,0.0,0.0,0.0,0.0,0.0,0.0,0.0,0.0,0.0,0.0,0.0,0.0,0.0,0.0,0.0,0.0,0.0,0.0,0.0,0.0,0.0,0.0,0.0,0.0,0.0,0.0,-3.3416,0.0,0.0,-3.1313,0.0,0.0,0.0,0.0,0.0,0.0,0.0,0.0,0.0,0.0,0.0,0.0,0.0,0.0,0.0,0.0,0.0,0.0,0.0,0.0,0.0,0.0,-4.1468,-4.3996,-4.5716,-4.7249,-4.8544,-4.9029,-4.9,-4.8297,-4.7608,-4.6322,-4.4257,0.0,0.0,0.0,0.0,0.0,0.0,0.0,0.0,0.0,0.0,0.0,0.0,0.0,0.0,0.0,0.0,0.0,0.0,0.0,0.0,0.0,0.0,0.0,0.0,0.0,0.0,-2.8287,-2.8028,-2.7549,0.0,0.0,0.0,0.0,0.0,0.0,0.0,0.0,0.0,-3.686,-3.9521,-4.1681,-4.2811,-4.4367,-4.5422,-4.5472,-4.5497,-4.5497,-4.5472,-4.4253,-4.3218,0.0,0.0,0.0,0.0,0.0,0.0,0.0,0.0,0.0,0.0,0.0,0.0,0.0,0.0,0.0,0.0,0.0,0.0,0.0,0.0,0.0,0.0,0.0,0.0,0.0,0.0,0.0,-3.5061,-3.4758,0.0,0.0,0.0,0.0,0.0,0.0,0.0,0.0,0.0,0.0,0.0,-3.8406,-3.7856,0.0,0.0,0.0,0.0,0.0,0.0,0.0,0.0,0.0,0.0,0.0,0.0,-4.2191,-4.4348,-4.6172,-4.7695,-4.9029,-4.9629,-4.9793,-4.9583,-4.8536,-4.6411,-4.3159,0.0,0.0,0.0,0.0,0.0,0.0,0.0,0.0,0.0,0.0,0.0,0.0,0.0,0.0,0.0,0.0,0.0,0.0,0.0,0.0,0.0,0.0,0.0,0.0,0.0,-2.9599,0.0,0.0,0.0,0.0,0.0,0.0,0.0,0.0,0.0,0.0,-3.4073,-3.6383,-3.8567,-4.0601,-4.2409,-4.3865,-4.5196,-4.615,0.0,0.0,0.0,0.0,0.0,0.0,0.0,0.0,0.0,0.0,0.0,0.0,0.0,-3.6856,-3.57,-3.5024,-3.5101,-3.5433,-3.5872,0.0,0.0,0.0,0.0,0.0,0.0,0.0,0.0,0.0,0.0,0.0,0.0,0.0,0.0,-3.6403,-3.6344,-3.5651,0.0,0.0,0.0,0.0,0.0,0.0,0.0,0.0,-3.8621,-3.9463,-4.0038,-3.9315,-3.9264,-3.9808,-3.9315,-3.8409,0.0,0.0,0.0,0.0,0.0,0.0,0.0,0.0,-4.2749,-4.4809,-4.6693,-4.8297,-4.9553,-5.0196,-5.0435,-5.0166,-4.8985,-4.686,-4.3878,-4.2671,-4.1055,0.0,0.0,0.0,0.0,0.0,0.0,0.0,0.0,0.0,0.0,0.0,0.0,0.0,0.0,0.0,0.0,0.0,0.0,0.0,0.0,0.0,0.0,0.0,-3.0572,0.0,0.0,0.0,0.0,0.0,0.0,0.0,0.0,0.0,-3.4268,-3.6006,-3.8065,-4.0249,-4.1806,-4.3338,-4.497,0.0,0.0,0.0,0.0,0.0,0.0,0.0,-4.5958,-4.5933,-4.3949,-4.228,-4.2017,-4.0871,-3.993,-3.9866,0.0,0.0,-3.705,-3.6948,-3.7298,-3.7918,-3.8604,-3.9476,-4.0395,-4.126,-4.2225,0.0,0.0,0.0,0.0,-3.8626,0.0,0.0,0.0,-3.8176,-3.8167,0.0,-3.7465,0.0,0.0,0.0,0.0,-3.5767,-3.7992,0.0,0.0,-4.0167,-4.0979,-4.1539,-4.0979,-4.1007,-4.1539,-4.1167,-4.0958,-4.0873,-3.8688,-3.8033,0.0,0.0,0.0,0.0,0.0,-4.318,-4.5364,-4.7339,-4.8985,-5.0136,-5.0823,-5.0853,-5.0196,-4.9015,-4.7728,-4.6381,-4.4526,-4.2851,-4.1542,-3.896,0.0,0.0,0.0,0.0,0.0,0.0,0.0,0.0,0.0,0.0,0.0,0.0,0.0,0.0,0.0,0.0,0.0,0.0,0.0,0.0,-3.1649,0.0,0.0,0.0,0.0,0.0,0.0,0.0,0.0,0.0,-3.6505,-3.6631,-3.8039,-3.9824,-4.1961,0.0,0.0,0.0,0.0,-4.7294,-4.7857,-4.7958,-4.7983,-4.7983,-4.7419,-4.6953,-4.6953,0.0,0.0,-4.3737,-4.2928,-4.2296,-4.2101,-4.1954,-4.1119,-3.8399,-3.8487,-3.911,-3.9561,-4.0865,-4.2055,-4.256,-4.3831,-4.5209,-4.1868,0.0,0.0,0.0,0.0,-3.9717,-3.955,-3.9355,-3.9508,-3.962,-3.9592,-3.9096,0.0,0.0,0.0,0.0,0.0,0.0,-3.9974,-4.0394,-4.137,-4.237,-4.3333,-4.2943,-4.3064,-4.3618,-4.3055,-4.3008,-4.329,-4.2216,-4.1466,-4.108,0.0,0.0,0.0,0.0,-4.5399,-4.6483,-4.8566,-4.9807,-5.0196,-5.0823,-5.09,-5.0196,-4.9837,-4.9045,-4.7758,-4.6262,-4.4855,-4.3509,-4.1414,0.0,0.0,0.0,0.0,0.0,0.0,0.0,0.0,0.0,0.0,0.0,0.0,0.0,0.0,0.0,0.0,0.0,0.0,0.0,-3.3384,-3.3497,-3.3338,0.0,0.0,0.0,0.0,0.0,0.0,0.0,0.0,0.0,-4.0327,-4.0955,-4.181,0.0,0.0,-4.5472,-4.6728,-4.7355,-4.7883,-4.8435,-4.8862,0.0,-4.9113,-4.8405,-4.7838,-4.7582,-4.6448,-4.5476,-4.5371,-4.4604,-4.3933,-4.386,-4.3162,-4.2361,-4.1594,-4.101,-4.097,-4.1521,-4.2491,-4.3462,-4.4231,-4.5622,-4.7027,-4.2852,-4.249,-4.1401,-4.0847,-4.0686,-4.058,-4.0446,-4.0285,-4.0446,-4.0536,-4.0508,-4.0283,-4.0051,-3.9759,-3.9388,0.0,0.0,0.0,-4.1409,-4.171,-4.262,-4.3443,-4.4117,-4.4184,-4.4407,-4.4737,-4.4602,-4.4677,-4.4937,-4.4668,-4.428,-4.3817,0.0,-4.3118,-4.4161,-4.5798,-4.6992,-4.7733,-4.9357,-5.0315,-5.0584,-5.0973,-5.0973,-5.0614,-5.0584,-5.0106,-4.8969,-4.7925,-4.6645,-4.5293,-4.3318,-4.1475,0.0,0.0,0.0,0.0,0.0,0.0,0.0,0.0,0.0,0.0,0.0,-3.0602,-3.0885,0.0,0.0,0.0,-3.3787,-3.4876,-3.5375,-3.5303,0.0,0.0,0.0,0.0,0.0,0.0,0.0,-3.9069,-3.9823,-4.0905,-4.2585,-4.3212,-4.3771,-4.4392,-4.5246,-4.6225,-4.728,0.0,-4.846,-4.9012,-4.9565,-4.9916,-4.9916,-4.9556,-4.9026,-4.8436,-4.7681,-4.7045,-4.6935,-4.6317,-4.5706,-4.5376,-4.4711,-4.4049,-4.3753,-4.312,-4.2686,-4.2892,-4.3801,-4.4865,-4.5725,-4.7336,-4.8891,-4.3361,-4.3176,-4.17,-4.112,-4.112,-4.112,-4.1073,-4.1073,-4.112,-4.112,-4.112,-4.1167,-4.0823,-4.0291,-4.0596,0.0,-4.1285,-4.2395,-4.295,-4.3134,-4.3948,-4.4396,-4.4528,-4.5165,-4.539,-4.5441,-4.5918,-4.6144,-4.6194,-4.6434,-4.6651,-4.6809,-4.5648,-4.5091,-4.5183,-4.6857,-4.819,-4.9024,-4.9878,-5.0674,-5.1349,-5.1319,-5.1289,-5.1242,-5.1182,-5.079,-4.9991,-4.9291,-4.8281,-4.6757,-4.4886,-4.3196,-4.1901,0.0,0.0,0.0,0.0,0.0,0.0,0.0,0.0,0.0,0.0,0.0,0.0,0.0,0.0,-3.3724,-3.5236,0.0,-3.7292,-3.7133,0.0,0.0,0.0,-3.7084,-3.809,-3.8241,-3.9094,-4.1175,0.0,0.0,-4.3815,-4.4869,-4.5573,-4.5623,-4.605,-4.6753,-4.7832,-4.841,-4.8987,-4.9565,-5.0067,-5.0419,-5.0494,-5.0489,-5.0295,-4.949,-4.927,-4.8956,-4.8498,-4.8,-4.7489,-4.6831,-4.6352,-4.5853,-4.5073,-4.4859,-4.4688,-4.3973,-4.5088,-4.6396,-4.7224,-4.901,-5.062,-4.3046,-4.2395,-4.2009,-4.1982,-4.2135,-4.2135,-4.2033,-4.1879,-4.2033,-4.2135,-4.216,-4.2364,-4.2235,-4.1927,-4.2006,-4.2111,-4.2216,-4.2554,-4.3389,-4.4653,-4.5076,-4.5981,-4.7324,-4.7698,-4.7963,-4.8121,-4.8279,-4.8437,-4.8646,-4.843,-4.8511,-4.8815,-4.8886,-4.823,-4.6922,-4.8319,-4.9398,-5.0094,-5.1173,-5.2067,-5.2665,-5.2217,-5.1882,-5.1643,-5.1185,-5.0716,-5.036,-4.971,-4.8879,-4.7779,-4.6357,-4.4894,-4.3354,-4.1227,0.0,0.0,0.0,0.0,0.0,0.0,0.0,0.0,0.0,-3.3753,-3.3632,0.0,-3.5838,0.0,-3.7013,-3.8418,-3.9271,-3.9322,0.0,0.0,-3.8944,-3.917,-3.9848,-4.0247,-4.1025,-4.2434,-4.3087,-4.384,-4.4945,-4.5698,-4.6276,-4.6677,-4.6853,-4.733,-4.8385,-4.8661,-4.9113,-4.9992,-5.0343,-5.0569,-5.1021,-5.0813,-5.0794,-5.0919,-5.0421,-5.0063,-5.0101,-4.9534,-4.8794,-4.8136,-4.7428,-4.6803,-4.6332,-4.602,-4.6031,-4.6399,-4.6884,-4.7432,-4.8561,-5.0256,-5.177,-4.3342,-4.2897,-4.2602,-4.2602,-4.2713,-4.2441,-4.2235,-4.2129,-4.2263,-4.2341,-4.2341,-4.2473,-4.2757,-4.3061,-4.3248,-4.3586,-4.4131,-4.4403,-4.5122,-4.6218,-4.6598,-4.7487,-4.8653,-4.9083,-4.9403,-4.9668,-4.9827,-4.9932,-5.0062,-4.9907,-4.9893,-5.0127,-5.0608,-5.034,-4.9357,-5.0281,-5.1021,-5.152,-5.2263,-5.2815,-5.3144,-5.2718,-5.2394,-5.2248,-5.1354,-5.0787,-5.0574,-4.9785,-4.8904,-4.7855,-4.6904,-4.5671,-4.411,-4.2408,-4.1185,0.0,0.0,0.0,0.0,0.0,0.0,0.0,0.0,0.0,0.0,0.0,-3.8057,-3.8505,-3.9444,-4.0388,-4.1319,-4.1392,-4.1314,-4.1153,-4.1153,-4.1379,-4.1907,-4.2258,-4.2861,-4.3966,-4.4367,-4.497,-4.605,-4.6476,-4.6979,-4.7757,-4.7857,-4.8083,-4.8661,-4.8962,-4.9439,-5.0268,-5.0645,-5.1096,-5.1875,-5.1865,-5.1736,-5.1805,-5.1561,-5.1244,-5.1187,-5.0722,-5.0149,-4.9595,-4.8882,-4.8297,-4.7893,-4.7582,-4.7509,-4.8112,-4.8624,-4.9088,-4.9814,-5.1309,-5.2641,-4.4134,-4.3947,-4.3422,-4.3148,-4.3078,-4.2554,-4.2307,-4.2174,-4.2253,-4.2279,-4.233,-4.2302,-4.2917,-4.3943,-4.4245,-4.5008,-4.6108,-4.6642,-4.7116,-4.7668,-4.8245,-4.8817,-4.9437,-5.0051,-5.0501,-5.0735,-5.0995,-5.1179,-5.115,-5.115,-5.1202,-5.1202,-5.1715,-5.1969,-5.202,-5.2452,-5.2773,-5.2981,-5.3286,-5.3443,-5.3443,-5.3109,-5.2882,-5.2803,-5.1689,-5.0892,-5.0564,-4.9766,-4.8816,-4.7702,-4.6974,-4.5954,-4.4573,-4.3277,-4.2384,0.0,-4.009,0.0,0.0,0.0,0.0,0.0,0.0,0.0,0.0,-3.8611,-4.0383,-4.1831,-4.1954,-4.233,-4.3143,-4.3187,-4.3187,-4.3187,-4.3187,-4.3388,-4.384,-4.3966,-4.4392,-4.5372,-4.5547,-4.5999,-4.6928,-4.7118,-4.7631,-4.851,-4.8786,-4.8837,-4.8937,-4.9364,-4.9916,-5.0444,-5.1071,-5.1875,-5.2628,-5.281,-5.2717,-5.256,-5.2396,-5.2332,-5.2083,-5.1793,-5.1561,-5.1152,-5.0561,-5.0048,-4.9615,-4.9284,-4.9162,-4.9634,-5.0338,-5.0795,-5.0994,-5.2108,-5.337,-4.5426,-4.454,-4.4428,-4.4117,-4.3708,-4.3614,-4.3292,-4.2826,-4.2826,-4.3078,-4.3425,-4.345,-4.3998,-4.4833,-4.4948,-4.5474,-4.6417,-4.6529,-4.7383,-4.8841,-4.9172,-5.005,-5.1313,-5.1853,-5.228,-5.2598,-5.289,-5.2995,-5.2995,-5.3227,-5.3331,-5.3331,-5.3612,-5.3928,-5.4213,0.0,0.0,0.0,-5.4551,-5.479,-5.479,-5.4032,-5.3385,-5.2952,-5.2012,0.0,-5.0412,-4.9711,-4.9087,-4.8383,-4.7376,0.0,-4.5623,0.0,0.0,0.0,0.0,0.0,0.0,0.0,0.0,0.0,-4.0425,-4.0582,-3.9055,-4.036,-4.1833,-4.3249,-4.3394,-4.3646,-4.4242,-4.4317,-4.4317,-4.4317,-4.4317,-4.4342,-4.4468,-4.4869,-4.5271,-4.5447,-4.5874,-4.6401,-4.7054,-4.7481,-4.8008,-4.8686,-4.9163,-4.9414,-4.9439,-4.9891,-5.0444,-5.1046,-5.19,-5.2628,-5.2879,-5.2861,-5.2861,-5.2792,-5.2792,-5.2829,-5.2924,-5.2911,-5.2661,-5.2212,-5.1944,-5.1595,-5.0978,-5.0769,-5.0832,-5.1363,-5.1631,-5.1708,-5.1785,-5.2769,-5.3897,-4.6122,-4.5581,-4.5243,-4.5063,0.0,-4.4918,-4.4836,-4.4699,-4.4107,-4.4142,-4.4675,-4.4675,-4.5094,-4.5744,-4.5918,-4.6475,-4.7367,-4.7823,-4.8774,-5.005,-5.0519,-5.1369,-5.2652,-5.2919,-5.3261,-5.3681,-5.3785,-5.3919,-5.3919,-5.3993,-5.4097,-5.4097,-5.4385,-5.4619,-5.4803,-5.4955,-5.4878,-5.47,-5.5029,-5.5128,-5.4976,-5.4395,-5.3781,-5.3267,-5.2191,0.0,0.0,0.0,0.0,0.0,0.0,0.0,0.0,-4.527,-4.4522,-4.3805,-4.2671,-4.1967,-4.1967,-4.1769,-4.1521,-4.1298,-4.2294,-4.2498,-4.1518,-4.2243,-4.335,-4.4844,-4.5045,-4.5271,-4.5799,-4.5874,-4.5748,-4.5497,-4.5472,-4.5447,-4.5472,-4.5698,-4.5899,-4.5949,-4.6376,-4.6928,-4.7456,-4.7983,-4.8535,-4.9088,-4.9414,-4.969,-4.9967,-5.0243,-5.0695,-5.1548,-5.2352,-5.2836,-5.2861,-5.2861,-5.2861,-5.2886,-5.313,-5.3337,-5.3448,-5.3761,-5.3852,-5.3545,-5.3253,-5.2902,-5.257,-5.2212,-5.1979,-5.2313,-5.2612,-5.284,-5.2916,-5.3521,-5.4347,-4.6991,-4.6855,-4.629,-4.6212,-4.6338,-4.6338,-4.6586,-4.6889,-4.5503,0.0,0.0,-4.5776,-4.6084,-4.674,-4.703,-4.7638,-4.8521,-4.9385,-5.0235,-5.1072,-5.1732,-5.2544,-5.3448,-5.3687,-5.3971,-5.4355,-5.4406,-5.4458,-5.4458,-5.4458,-5.4458,-5.4458,-5.4722,-5.4854,-5.4905,-5.5108,-5.5209,-5.5209,-5.5209,-5.5078,-5.4905,-5.4487,-5.4045,-5.35,-5.2483,-5.1563,-5.092,-5.0065,-4.9302,-4.8763,-4.8409,-4.7623,-4.641,-4.6116,-4.5529,-4.4517,-4.4148,-4.3913,-4.3939,-4.3677,-4.352,-4.3518,-4.3994,-4.4142,-4.3832,-4.4055,-4.4869,-4.6326,-4.6527,-4.6778,-4.723,-4.7179,-4.6954,-4.6502,-4.6376,-4.6301,-4.6301,-4.6326,-4.6276,-4.6376,-4.6753,-4.733,-4.7832,-4.8385,-4.8987,-4.9464,-4.9565,-4.9866,-5.0419,-5.0695,-5.1172,-5.2101,-5.2653,-5.2861,-5.2861,-5.2861,-5.2861,-5.2886,-5.3356,-5.3733,-5.3914,-5.4402,-5.4835,-5.4863,-5.445,-5.41,-5.3948,-5.3473,-5.3044,-5.3044,-5.3521,-5.4047,-5.4122,-5.4421,-5.4868,-4.9075,-4.8337,-4.8056,-4.7764,-4.7534,-4.7534,-4.7995,-4.8565,-4.6638,-4.6176,-4.6662,-4.6399,-4.6882,-4.7951,-4.8009,-4.8616,-4.9727,-5.0152,-5.0767,-5.1732,-5.2544,-5.3131,-5.353,-5.4259,-5.4649,-5.4751,-5.4976,-5.5078,-5.5078,-5.5078,-5.5078,-5.5078,-5.5128,-5.5128,-5.5128,-5.5179,-5.5209,-5.5209,-5.5209,-5.5179,-5.5128,-5.459,-5.4045,-5.35,-5.2886,-5.2054,-5.0934,-5.0297,-4.9666,-4.9034,-4.8517,-4.8001,-4.7566,-4.7485,-4.7322,-4.6887,-4.6381,-4.6034,-4.6034,-4.579,-4.5619,-4.5615,-4.5865,-4.5821,-4.5263,-4.5648,-4.625,-4.6979,-4.7405,-4.7707,-4.7782,-4.7405,-4.7043,-4.6979,-4.6577,-4.6326,-4.6326,-4.6326,-4.6326,-4.6376,-4.6803,-4.7294,-4.7908,-4.846,-4.9012,-4.9464,-4.9715,-5.0017,-5.0946,-5.1574,-5.2101,-5.2653,-5.2879,-5.2861,-5.2861,-5.2861,-5.2861,-5.2861,-5.3381,-5.3909,-5.431,-5.4892,-5.5349,-5.5482,-5.5336,-5.5164,-5.4892,-5.4744,-5.4496,-5.4496,-5.4645,-5.4892,-5.5189,-5.5337,-5.5509,-5.024,-4.9826,-4.9378,-4.9216,-4.9307,-4.9556,-5.0051,-5.0436,-4.9222,-4.8519,-4.833,-4.8011,-4.8169,-4.8695,-4.8868,-4.9442,-5.0208,-5.0684,-5.1457,-5.2491,-5.3078,-5.3635,-5.4208,-5.4619,-5.4905,-5.5027,-5.5128,-5.5209,-5.5209,-5.5209,-5.5209,-5.5209,-5.5209,-5.5209,-5.5209,-5.5209,-5.5209,-5.5209,-5.5209,-5.5158,-5.4976,-5.4539,-5.4045,-5.353,-5.3001,-5.2275,-5.1403,-5.0988,-5.0574,-5.0105,-4.9692,-4.9226,-4.879,-4.8597,-4.8352,-4.7945,-4.7649,-4.7487,-4.7487,-4.7214,-4.6904,-4.6778,-4.6835,-4.6901,-4.6925,-4.7145,-4.7526,-4.8024,-4.8432,-4.851,-4.8207,-4.7831,-4.733,-4.6728,-4.6451,-4.6326,-4.6326,-4.6326,-4.6426,-4.6728,-4.723,-4.7757,-4.8309,-4.8862,-4.9289,-4.959,-5.0042,-5.0795,-5.1599,-5.2201,-5.2628,-5.2879,-5.2861,-5.2861,-5.2861,-5.2861,-5.2861,-5.2861,-5.3632,-5.4185,-5.4587,-5.5214,-5.5794,-5.5851,-5.5779,-5.5558,-5.5337,-5.5115,-5.5041,-5.5041,-5.5189,-5.5411,-5.5583,-5.5978,-5.635,-5.1183,-5.1128,-5.0628,-5.0572,-5.0906,-5.1403,-5.1787,-5.195,-5.1403,-5.0795,-5.0179,-4.9583,-4.9328,-4.9442,-4.9727,-5.0235,-5.074,-5.1348,-5.2164,-5.3131,-5.3553,-5.4104,-5.4751,-5.4854,-5.5006,-5.5209,-5.5209,-5.5209,-5.5209,-5.5209,-5.5209,-5.5209,-5.5209,-5.5209,-5.5209,-5.5209,-5.5209,-5.5209,-5.5209,-5.5108,-5.4905,-5.4539,-5.4178,-5.3605,-5.316,-5.2544,-5.195,-5.1706,-5.1431,-5.1128,-5.0906,-5.0574,-5.0133,-4.9858,-4.9529,-4.9118,-4.9064,-4.9009,-4.89,-4.8626,-4.8317,-4.7867,-4.7806,-4.8021,-4.8462,-4.8687,-4.8816,-4.9138,-4.939,-4.9367,-4.8884,-4.8356,-4.7716,-4.6748,-4.6496,-4.6361,-4.6326,-4.6401,-4.6627,-4.7043,-4.7682,-4.8284,-4.8736,-4.9264,-4.964,-4.9891,-5.067,-5.1448,-5.2026,-5.2578,-5.2836,-5.2861,-5.2861,-5.2861,-5.2861,-5.2861,-5.2911,-5.3055,-5.3909,-5.4486,-5.4863,-5.5591,-5.6118,-5.6146,-5.5926,-5.5779,-5.5681,-5.5558,-5.5337,-5.5411,-5.5558,-5.5755,-5.6003,-5.6725,-5.7324,-5.2059,-5.2059,-5.1732,-5.1787,-5.2059,-5.2411,-5.2627,-5.2544,-5.2221,-5.2059,-5.1787,-5.0516,-5.0123,-5.0404,-5.0683,-5.1128,-5.1677,-5.2247,-5.2837,-5.35,-5.3993,-5.4436,-5.4803,-5.5057,-5.5179,-5.5209,-5.5209,-5.5209,-5.5209,-5.5209,-5.5209,-5.5209,-5.5209,-5.5209,-5.5209,-5.5209,-5.5209,-5.5209,-5.5209,-5.5179,-5.5128,-5.4905,-5.4466,-5.3867,-5.3553,-5.3025,-5.2221,-5.2141,-5.2033,-5.1732,-5.1677,-5.1649,-5.1593,-5.1565,-5.1483,-5.1481,-5.1427,-5.1236,-5.0713,-5.0629,-5.0212,-4.9532,-4.9335,-4.9515,-4.9834,-5.028,-5.0356,-5.0049,-5.0241,-5.0229,-4.9706,-4.9106,-4.8396,-4.744,-4.6974,-4.6626,-4.6522,-4.6753,-4.7018,-4.7043,-4.8121,-4.8711,-4.8925,-4.9378,-4.9816,-5.0293,-5.0921,-5.1574,-5.2126,-5.2578,-5.2861,-5.2861,-5.2861,-5.2861,-5.2861,-5.2861,-5.3105,-5.3507,-5.4135,-5.4687,-5.5189,-5.5717,-5.6219,-5.6219,-5.6146,-5.6072,-5.6146,-5.6047,-5.6072,-5.6051,-5.6149,-5.6346,-5.6848,-5.7675,-5.8328,-5.3237,-5.3184,-5.2919,-5.2972,-5.3237,-5.3343,-5.35,-5.3576,-5.3343,-5.3237,-5.3102,-5.2408,-5.1787,-5.1293,-5.1568,-5.2004,-5.2598,-5.2972,-5.3553,-5.4259,-5.4517,-5.4773,-5.5057,-5.5128,-5.5209,-5.5209,-5.5209,-5.5209,-5.5209,-5.5209,-5.5209,-5.5209,-5.5209,-5.5209,-5.5209,-5.5209,-5.5209,-5.5209,-5.5209,-5.5209,-5.5209,-5.4926,-5.47,-5.4414,-5.3971,-5.35,-5.3025,-5.2812,-5.2598,-5.2329,-5.2358,-5.2383,-5.2598,-5.2598,-5.2652,-5.2759,-5.2652,-5.2329,-5.1677,-5.1677,-5.1293,-5.046,-5.0348,-5.056,-5.1022,-5.1314,-5.1561,-5.196,-5.1714,-5.107,-5.0052,-4.948,-4.8746,-4.7624,-4.7181,-4.7121,-4.7358,-4.7526,-4.7943,-4.8542,-4.8925,-4.9229,-4.9519,-4.987,-5.0293,-5.0845,-5.1398,-5.1993,-5.2477,-5.2804,-5.2836,-5.2861,-5.2861,-5.2861,-5.2861,-5.2861,-5.3181,-5.3632,-5.4185,-5.4737,-5.5315,-5.5842,-5.6194,-5.6219,-5.6244,-5.6244,-5.6219,-5.6244,-5.6269,-5.6545,-5.7097,-5.7374,-5.7926,-5.8403,-5.878,-5.3993,-5.3942,-5.3815,-5.3815,-5.3993,-5.3993,-5.4097,-5.4252,-5.4097,-5.3993,-5.3993,-5.3815,-5.3261,-5.257,-5.2598,-5.2919,-5.3343,-5.3605,-5.4104,-5.4751,-5.4803,-5.4955,-5.5209,-5.5209,-5.5209,-5.5209,-5.5209,-5.5209,-5.5209,-5.5209,-5.5209,-5.5209,-5.5209,-5.5209,-5.5209,-5.5209,-5.5209,-5.5209,-5.5209,-5.5209,-5.5209,-5.4976,-5.4905,-5.4751,-5.4363,-5.4023,-5.371,-5.3553,-5.3314,-5.3131,-5.3131,-5.3237,-5.3448,-5.3419,-5.3553,-5.3658,-5.3553,-5.3184,-5.2598,-5.2544,-5.2167,-5.1403,-5.1432,-5.1737,-5.2166,-5.2435,-5.301,-5.3882,-5.3443,-5.2406,-5.0801,-5.0131,-4.9359,-4.8247,-4.7955,-4.805,-4.8386,-4.8592,-4.8994,-4.9677,-4.9708,-4.9774,-5.0206,-5.0496,-5.0922,-5.1504,-5.206,-5.2573,-5.2916,-5.3067,-5.3067,-5.2929,-5.2861,-5.2861,-5.2861,-5.2861,-5.3206,-5.3808,-5.4361,-5.4813,-5.5415,-5.5968,-5.6194,-5.6219,-5.6294,-5.647,-5.6595,-5.657,-5.6746,-5.7198,-5.77,-5.8177,-5.8478,-5.878,-5.9081,-5.4304,-5.4304,-5.4304,-5.4304,-5.4304,-5.4304,-5.4304,-5.4355,-5.4304,-5.4304,-5.4304,-5.4304,-5.4252,-5.4097,-5.389,-5.3867,-5.3919,-5.4149,-5.4436,-5.4803,-5.4854,-5.4955,-5.5209,-5.5209,-5.5209,-5.5209,-5.5209,-5.5209,-5.5209,-5.5209,-5.5209,-5.5209,-5.5209,-5.5209,-5.5209,-5.5209,-5.5209,-5.5209,-5.5209,-5.5209,-5.5179,-5.5209,-5.5027,-5.4854,-5.4803,-5.4568,-5.4304,-5.4252,-5.42,-5.42,-5.4149,-5.42,-5.4252,-5.4252,-5.4252,-5.4252,-5.4252,-5.3993,-5.35,-5.3395,-5.3078,-5.2414,-5.2731,-5.3189,-5.3501,-5.4034,-5.4651,-5.5323,-5.5261,-5.4366,-5.2517,-5.1648,-5.0976,-5.0227,-4.9686,-4.9475,-4.949,-4.9897,-5.0013,-5.0032,-5.033,-5.0575,-5.0639,-5.1101,-5.1676,-5.224,-5.2751,-5.3247,-5.3394,-5.3478,-5.3273,-5.3067,-5.2929,-5.2861,-5.2861,-5.2861,-5.3406,-5.4059,-5.4511,-5.4913,-5.5641,-5.6194,-5.6219,-5.6344,-5.6646,-5.6872,-5.7072,-5.7323,-5.7625,-5.8001,-5.8328,-5.873,-5.888,-5.9207,-5.9408,-5.4845,-5.4845,-5.4845,-5.4845,-5.4845,-5.4875,-5.4845,-5.4845,-5.4926,-5.4845,-5.4845,-5.4845,-5.4845,-5.4845,-5.4773,-5.4671,-5.4517,-5.4568,-5.4773,-5.5057,-5.5057,-5.5108,-5.5179,-5.5209,-5.5209,-5.5209,-5.5209,-5.5209,-5.5209,-5.5209,-5.5209,-5.5209,-5.5209,-5.5209,-5.5209,-5.5209,-5.5209,-5.5209,-5.5209,-5.5209,-5.5209,-5.5209,-5.5128,-5.5027,-5.5027,-5.4926,-5.4619,-5.4619,-5.4539,-5.4304,-5.4304,-5.4406,-5.4619,-5.4824,-5.4824,-5.4671,-5.4619,-5.4436,-5.4045,-5.3993,-5.3815,-5.3424,-5.3921,-5.4425,-5.4811,-5.5388,-5.5963,-5.6308,-5.6423,-5.5762,-5.4781,-5.3551,-5.2443,-5.1502,-5.0966,-5.0869,-5.1136,-5.1266,-5.1347,-5.154,-5.1642,-5.1601,-5.1892,-5.2322,-5.2829,-5.34,-5.3838,-5.4051,-5.4029,-5.3793,-5.3478,-5.3273,-5.3067,-5.2861,-5.2861,-5.2861,-5.3256,-5.4059,-5.4687,-5.5164,-5.5792,-5.6143,-5.6219,-5.662,-5.6972,-5.7323,-5.7549,-5.8027,-5.8353,-5.8504,-5.8855,-5.9056,-5.9232,-5.9382,-5.9458,-5.5209,-5.5209,-5.5209,-5.5209,-5.5209,-5.5209,-5.5209,-5.5209,-5.5209,-5.5209,-5.5209,-5.5209,-5.5209,-5.5209,-5.5209,-5.5078,-5.4926,-5.4955,-5.5057,-5.5179,-5.5209,-5.5209,-5.5209,-5.5209,-5.5209,-5.5209,-5.5209,-5.5209,-5.5209,-5.5209,-5.5209,-5.5209,-5.5209,-5.5209,-5.5209,-5.5209,-5.5209,-5.5209,-5.5209,-5.5209,-5.5209,-5.5209,-5.5209,-5.5179,-5.5209,-5.5128,-5.4955,-5.4955,-5.4824,-5.4641,-5.459,-5.4692,-5.4926,-5.5078,-5.5108,-5.4955,-5.4926,-5.4773,-5.4539,-5.4487,-5.4422,-5.4397,-5.4984,-5.5523,-5.6005,-5.6618,-5.7062,-5.7272,-5.7332,-5.7107,-5.6509,-5.5565,-5.4392,-5.3248,-5.2619,-5.2493,-5.2859,-5.2668,-5.2702,-5.2815,-5.2898,-5.2944,-5.319,-5.3816,-5.4308,-5.4719,-5.4985,-5.5061,-5.4712,-5.4335,-5.3819,-5.3546,-5.3273,-5.3067,-5.2929,-5.2929,-5.3381,-5.4185,-5.4587,-5.5164,-5.5817,-5.6093,-5.6445,-5.6897,-5.7323,-5.77,-5.8152,-5.8679,-5.888,-5.8956,-5.9131,-5.9332,-5.9408,-5.9458,-5.9508,-5.5209,-5.5209,-5.5209,-5.5269,-5.5299,-5.5359,-5.5269,-5.5359,-5.5329,-5.5388,-5.5448,-5.5329,-5.5388,-5.5269,-5.5329,-5.5239,-5.5209,-5.5158,-5.5179,-5.5209,-5.5209,-5.5209,-5.5209,-5.5209,-5.5209,-5.5209,-5.5209,-5.5209,-5.5209,-5.5209,-5.5209,-5.5209,-5.5209,-5.5209,-5.5209,-5.5209,-5.5209,-5.5209,-5.5209,-5.5209,-5.5209,-5.5209,-5.5209,-5.5209,-5.5209,-5.5179,-5.5179,-5.5179,-5.5128,-5.5128,-5.5128,-5.5179,-5.5128,-5.5179,-5.5209,-5.5209,-5.5179,-5.5027,-5.4854,-5.4832,-5.5056,-5.5293,-5.5949,-5.6598,-5.7104,-5.7753,-5.8081,-5.8085,-5.8114,-5.8003,-5.7725,-5.7301,-5.6565,-5.5644,-5.456,-5.4182,-5.439,-5.4314,-5.4041,-5.3964,-5.4284,-5.4521,-5.4793,-5.5527,-5.6079,-5.6094,-5.6278,-5.6236,-5.5472,-5.5072,-5.463,-5.3887,-5.3478,-5.3273,-5.3067,-5.3005,-5.3658,-5.426,-5.4486,-5.4913,-5.5817,-5.6319,-5.6721,-5.7173,-5.7926,-5.8328,-5.8755,-5.9207,-5.9257,-5.9332,-5.9483,-5.9508,-5.9508,-5.9508,-5.9508,-5.5209,-5.5239,-5.5688,-5.5867,-5.5927,-5.6316,-5.6496,-5.6496,-5.6496,-5.6526,-5.6496,-5.6496,-5.6286,-5.5927,-5.5867,-5.5628,-5.5209,-5.5209,-5.5209,-5.5209,-5.5209,-5.5209,-5.5209,-5.5209,-5.5209,-5.5209,-5.5209,-5.5209,-5.5209,-5.5209,-5.5209,-5.5209,-5.5209,-5.5209,-5.5209,-5.5209,-5.5209,-5.5209,-5.5209,-5.5209,-5.5209,-5.5209,-5.5209,-5.5209,-5.5209,-5.5209,-5.5209,-5.5209,-5.5209,-5.5209,-5.5209,-5.5209,-5.5209,-5.5209,-5.5209,-5.5209,-5.5209,-5.5179,-5.5167,-5.5526,-5.5773,-5.6058,-5.6892,-5.7547,-5.7874,-5.844,-5.8689,-5.8555,-5.8555,-5.839,-5.814,-5.7974,-5.753,-5.6595,-5.5849,-5.5615,-5.6089,-5.6272,-5.6312,-5.628,-5.6386,-5.6665,-5.7027,-5.7549,-5.7675,-5.7685,-5.7679,-5.7367,-5.6655,-5.5868,-5.5339,-5.4697,-5.4158,-5.3546,-5.3366,-5.3457,-5.3993,-5.4547,-5.4754,-5.5013,-5.5842,-5.6545,-5.6947,-5.7575,-5.8353,-5.888,-5.9332,-5.9508,-5.9508,-5.9508,-5.9508,-5.9508,-5.9508,-5.9508,-5.9508,-5.5568,-5.5628,-5.6256,-5.6526,-5.6555,-5.6944,-5.7094,-5.7094,-5.7094,-5.7094,-5.7094,-5.7094,-5.6885,-5.6555,-5.6496,-5.6218,-5.5568,-5.5538,-5.5418,-5.5209,-5.5209,-5.5209,-5.5209,-5.5209,-5.5209,-5.5209,-5.5209,-5.5209,-5.5209,-5.5209,-5.5209,-5.5209,-5.5209,-5.5209,-5.5209,-5.5209,-5.5209,-5.5209,-5.5209,-5.5209,-5.5209,-5.5209,-5.5209,-5.5209,-5.5209,-5.5209,-5.5209,-5.5209,-5.5209,-5.5209,-5.5209,-5.5209,-5.5209,-5.5209,-5.5209,-5.5209,-5.5209,-5.5269,-5.5538,-5.5927,-5.6436,-5.6915,-5.7663,-5.8231,-5.8471,-5.8919,-5.8991,-5.8882,-5.8828,-5.8773,-5.8609,-5.8682,-5.8438,-5.8019,-5.7397,-5.7283,-5.774,-5.7992,-5.8013,-5.7894,-5.8033,-5.8402,-5.8564,-5.8899,-5.8946,-5.9058,-5.8767,-5.8325,-5.7624,-5.6785,-5.6132,-5.5405,-5.4764,-5.4225,-5.3776,-5.3978,-5.4398,-5.4738,-5.5047,-5.5387,-5.6018,-5.662,-5.7123,-5.8001,-5.8805,-5.9106,-5.9508,-5.9508,-5.9508,-5.9508,-5.9508,-5.9508,-5.9508,-5.9508,-5.9508,-5.6226,-5.6338,-5.6885,-5.7154,-5.7154,-5.7274,-5.7363,-5.7274,-5.7304,-5.7363,-5.7334,-5.7393,-5.7274,-5.7184,-5.7154,-5.6825,-5.6316,-5.6196,-5.5957,-5.5568,-5.5448,-5.5418,-5.5209,-5.5209,-5.5209,-5.5209,-5.5209,-5.5209,-5.5209,-5.5209,-5.5209,-5.5209,-5.5209,-5.5209,-5.5209,-5.5209,-5.5209,-5.5209,-5.5209,-5.5209,-5.5209,-5.5209,-5.5209,-5.5209,-5.5209,-5.5209,-5.5209,-5.5209,-5.5209,-5.5209,-5.5209,-5.5209,-5.5209,-5.5209,-5.5209,-5.5209,-5.5209,-5.5538,-5.6038,-5.6308,-5.6765,-5.7782,-5.8141,-5.8411,-5.8949,-5.9039,-5.9099,-5.9045,-5.9045,-5.9075,-5.917,-5.9449,-5.964,-5.9793,-5.9234,-5.9129,-5.9306,-5.9452,-5.945,-5.9303,-5.9445,-5.9788,-5.9695,-6.0065,-6.0051,-5.9858,-5.9578,-5.9142,-5.8325,-5.7532,-5.6823,-5.6105,-5.5405,-5.4898,-5.4454,-5.4971,-5.5347,-5.5585,-5.5816,-5.6146,-5.6365,-5.687,-5.7575,-5.8453,-5.9031,-5.9332,-5.9508,-5.9508,-5.9508,-5.9508,-5.9508,-5.9508,-5.9508,-5.9508,-5.9508,-5.6855,-5.6944,-5.7573,-5.7842,-5.7932,-5.8351,-5.856,-5.856,-5.856,-5.8471,-5.856,-5.856,-5.8261,-5.7872,-5.7842,-5.7483,-5.6974,-5.6855,-5.6825,-5.6615,-5.6615,-5.6017,-5.5359,-5.5209,-5.5209,-5.5209,-5.5209,-5.5209,-5.5209,-5.5209,-5.5209,-5.5209,-5.5209,-5.5209,-5.5209,-5.5209,-5.5209,-5.5209,-5.5209,-5.5209,-5.5209,-5.5209,-5.5209,-5.5209,-5.5209,-5.5209,-5.5209,-5.5209,-5.5209,-5.5209,-5.5209,-5.5209,-5.5209,-5.5209,-5.5209,-5.5209,-5.5239,-5.5478,-5.6158,-5.6615,-5.7274,-5.8022,-5.856,-5.8919,-5.9069,-5.9099,-5.9099,-5.9099,-5.9129,-5.9308,-5.9727,-5.9972,-6.0424,-6.1234,-6.0869,-6.0584,-6.0734,-6.1087,-6.1292,-6.1263,-6.1321,-6.1291,-6.1231,-6.1289,-6.1255,-6.0863,-6.056,-6.0194,-5.9267,-5.8388,-5.7597,-5.685,-5.6197,-5.5604,-5.5442,-5.593,-5.634,-5.6531,-5.6752,-5.7051,-5.7179,-5.7295,-5.8127,-5.9056,-5.9207,-5.9458,-5.9508,-5.9508,-5.9508,-5.9508,-5.9508,-5.9508,-5.9508,-5.9508,-5.9508,-5.7543,-5.7573,-5.8261,-5.853,-5.859,-5.8949,-5.9099,-5.9099,-5.9099,-5.9099,-5.9099,-5.9099,-5.889,-5.856,-5.853,-5.8171,-5.7573,-5.7513,-5.7363,-5.7094,-5.7064,-5.6496,-5.5748,-5.5388,-5.5209,-5.5209,-5.5209,-5.5209,-5.5209,-5.5209,-5.5209,-5.5209,-5.5209,-5.5209,-5.5209,-5.5209,-5.5209,-5.5209,-5.5209,-5.5209,-5.5209,-5.5209,-5.5209,-5.5209,-5.5209,-5.5299,-5.5538,-5.5598,-5.5508,-5.5269,-5.5209,-5.5209,-5.5209,-5.5209,-5.5209,-5.5209,-5.5448,-5.5897,-5.6526,-5.7154,-5.7812,-5.8411,-5.8919,-5.9069,-5.9099,-5.9099,-5.9099,-5.9099,-5.9099,-5.9428,-6.0027,-6.0565,-6.1373,-6.2184,-6.2223,-6.1963,-6.1992,-6.2259,-6.2438,-6.2351,-6.2292,-6.2234,-6.2116,-6.2116,-6.1939,-6.1583,-6.1224,-6.0802,-6.0132,-5.9267,-5.8451,-5.7752,-5.7228,-5.6762,-5.6822,-5.7344,-5.7793,-5.7948,-5.7869,-5.8115,-5.8191,-5.8093,-5.8605,-5.9286,-5.9461,-5.9508,-5.9585,-5.9585,-5.9508,-5.9508,-5.9508,-5.9508,-5.9508,-5.9508,-5.9508,-5.8231,-5.8291,-5.886,-5.9099,-5.9069,-5.9099,-5.9099,-5.9099,-5.9099,-5.9099,-5.9099,-5.9099,-5.9069,-5.9099,-5.8979,-5.874,-5.8231,-5.8201,-5.7902,-5.7573,-5.7334,-5.6944,-5.6496,-5.5718,-5.5448,-5.5359,-5.5269,-5.5209,-5.5209,-5.5209,-5.5209,-5.5209,-5.5209,-5.5209,-5.5209,-5.5209,-5.5209,-5.5209,-5.5209,-5.5209,-5.5209,-5.5209,-5.5209,-5.5209,-5.5388,-5.5628,-5.5987,-5.6166,-5.6017,-5.5448,-5.5388,-5.5448,-5.5418,-5.5359,-5.5388,-5.5478,-5.5957,-5.6526,-5.7154,-5.7752,-5.8351,-5.889,-5.9039,-5.9099,-5.9099,-5.9099,-5.9099,-5.9099,-5.9159,-5.9668,-6.0475,-6.1463,-6.2271,-6.2839,-6.3019,-6.3049,-6.3137,-6.3137,-6.2963,-6.2731,-6.2673,-6.2498,-6.2292,-6.2204,-6.2234,-6.2116,-6.1761,-6.1344,-6.0802,-6.001,-5.9301,-5.8739,-5.8344,-5.7999,-5.8297,-5.8767,-5.9142,-5.944,-5.9253,-5.9272,-5.9377,-5.9415,-5.941,-5.9592,-5.987,-5.9894,-5.9663,-5.9663,-5.9663,-5.9508,-5.9508,-5.9508,-5.9508,-5.9508,-5.9508,-5.889,-5.8919,-5.9039,-5.9099,-5.9099,-5.9099,-5.9099,-5.9099,-5.9099,-5.9099,-5.9099,-5.9099,-5.9099,-5.9099,-5.9099,-5.9009,-5.886,-5.883,-5.877,-5.868,-5.8112,-5.7872,-5.7453,-5.6555,-5.5987,-5.5837,-5.5418,-5.5209,-5.5209,-5.5209,-5.5209,-5.5209,-5.5209,-5.5209,-5.5209,-5.5209,-5.5209,-5.5209,-5.5209,-5.5209,-5.5209,-5.5209,-5.5209,-5.5239,-5.5658,-5.5987,-5.6278,-5.6645,-5.6795,-5.6705,-5.6645,-5.6496,-5.6137,-5.6376,-5.6346,-5.6196,-5.6555,-5.7184,-5.7782,-5.8082,-5.8411,-5.9009,-5.9099,-5.9099,-5.9099,-5.9099,-5.9099,-5.9219,-5.9578,-6.0296,-6.1403,-6.2331,-6.281,-6.3077,-6.3137,-6.3137,-6.3137,-6.3137,-6.3079,-6.3021,-6.2963,-6.2963,-6.2905,-6.2817,-6.2731,-6.2556,-6.2234,-6.1909,-6.1344,-6.0681,-6.0165,-5.9611,-5.9339,-5.9122,-5.9698,-6.0171,-6.0656,-6.0819,-6.0552,-6.065,-6.0713,-6.0399,-6.0353,-6.0348,-6.0507,-6.0355,-6.0048,-5.9971,-5.9971,-5.974,-5.9585,-5.956,-5.956,-5.956,-5.9508,-5.9099,-5.9099,-5.9099,-5.9099,-5.9099,-5.9099,-5.9099,-5.9099,-5.9099,-5.9099,-5.9099,-5.9099,-5.9099,-5.9099,-5.9099,-5.9099,-5.9099,-5.9099,-5.9099,-5.9009,-5.871,-5.859,-5.8411,-5.7573,-5.6855,-5.6308,-5.5888,-5.5538,-5.5269,-5.5209,-5.5209,-5.5209,-5.5209,-5.5209,-5.5209,-5.5209,-5.5209,-5.5209,-5.5209,-5.5209,-5.5209,-5.5209,-5.5209,-5.5299,-5.5807,-5.6338,-5.6615,-5.7244,-5.7693,-5.7932,-5.7992,-5.7573,-5.6795,-5.6915,-5.6915,-5.6795,-5.7214,-5.7693,-5.8082,-5.8411,-5.877,-5.9069,-5.9099,-5.9099,-5.9099,-5.9099,-5.9099,-5.9249,-5.9757,-6.0625,-6.1942,-6.266,-6.3019,-6.3137,-6.3137,-6.3137,-6.3137,-6.3137,-6.3137,-6.3137,-6.3079,-6.3079,-6.3079,-6.3137,-6.3079,-6.2789,-6.2556,-6.2263,-6.2027,-6.1404,-6.0923,-6.0434,-6.029,-6.0376,-6.0992,-6.1598,-6.2118,-6.2152,-6.184,-6.2014,-6.2334,-6.172,-6.1126,-6.1193,-6.1242,-6.0737,-6.0508,-6.0431,-6.0278,-5.9971,-5.9817,-5.9714,-5.956,-5.9508,-5.9508,-5.9099,-5.9099,-5.9099,-5.9099,-5.9099,-5.9099,-5.9099,-5.9099,-5.9099,-5.9099,-5.9099,-5.9099,-5.9099,-5.9099,-5.9099,-5.9099,-5.9099,-5.9099,-5.9099,-5.9069,-5.9039,-5.8979,-5.886,-5.8381,-5.7663,-5.6555,-5.6248,-5.5888,-5.5478,-5.5239,-5.5209,-5.5209,-5.5209,-5.5209,-5.5209,-5.5209,-5.5209,-5.5209,-5.5209,-5.5209,-5.5209,-5.5209,-5.5209,-5.5299,-5.6017,-5.6555,-5.7094,-5.7782,-5.8501,-5.9069,-5.9099,-5.8501,-5.7782,-5.7393,-5.7304,-5.7334,-5.7902,-5.8261,-5.8441,-5.877,-5.9069,-5.9099,-5.9099,-5.9099,-5.9099,-5.9099,-5.9099,-5.9368,-5.9847,-6.0894,-6.2091,-6.272,-6.3019,-6.3137,-6.3137,-6.3137,-6.3137,-6.3137,-6.3137,-6.3137,-6.3137,-6.3137,-6.3137,-6.3137,-6.3137,-6.3079,-6.2847,-6.2615,-6.2381,-6.2087,-6.1612,-6.1459,-6.1357,-6.1986,-6.2645,-6.2864,-6.3464,-6.3309,-6.3018,-6.3185,-6.3487,-6.3082,-6.2471,-6.2164,-6.1996,-6.1545,-6.1167,-6.1041,-6.0813,-6.0355,-6.0048,-5.9869,-5.9714,-5.9585,-5.9508,-5.9099,-5.9099,-5.9099,-5.9099,-5.9099,-5.9099,-5.9099,-5.9099,-5.9099,-5.9099,-5.9099,-5.9099,-5.9099,-5.9099,-5.9099,-5.9099,-5.9099,-5.9099,-5.9099,-5.9099,-5.9099,-5.9153,-5.9093,-5.9027,-5.8464,-5.7693,-5.6937,-5.6278,-5.5837,-5.5508,-5.5299,-5.5209,-5.5209,-5.5209,-5.5209,-5.5209,-5.5209,-5.5209,-5.5209,-5.5209,-5.5209,-5.5209,-5.5269,-5.5388,-5.6286,-5.6915,-5.7363,-5.8261,-5.9009,-5.9099,-5.9099,-5.8949,-5.868,-5.862,-5.8381,-5.8171,-5.8501,-5.88,-5.889,-5.8979,-5.9099,-5.9099,-5.9099,-5.9099,-5.9099,-5.9129,-5.9189,-5.9578,-6.0326,-6.1463,-6.275,-6.2989,-6.3107,-6.3137,-6.3137,-6.3137,-6.3137,-6.3137,-6.3137,-6.3137,-6.3137,-6.3137,-6.3137,-6.3137,-6.3137,-6.3137,-6.3021,-6.2789,-6.2615,-6.2527,-6.2293,-6.2322,-6.2497,-6.3407,-6.4376,-6.4396,-6.4589,-6.4368,-6.4116,-6.4075,-6.4218,-6.419,-6.3871,-6.3542,-6.3052,-6.2518,-6.2145,-6.1846,-6.1268,-6.0711,-6.0329,-6.0022,-5.9792,-5.9637,-5.9508,-5.9099,-5.9099,-5.9099,-5.9099,-5.9099,-5.9099,-5.9099,-5.9099,-5.9099,-5.9099,-5.9099,-5.9099,-5.9099,-5.9099,-5.9099,-5.9099,-5.9099,-5.9099,-5.9099,-5.9099,-5.9261,-5.9315,-5.9369,-5.9422,-5.9379,-5.8844,-5.8008,-5.6951,-5.6278,-5.5867,-5.5538,-5.5239,-5.5209,-5.5209,-5.5209,-5.5209,-5.5209,-5.5209,-5.5209,-5.5209,-5.5209,-5.5209,-5.5299,-5.5897,-5.6555,-5.7214,-5.7782,-5.8501,-5.9099,-5.9099,-5.9099,-5.9099,-5.9099,-5.9069,-5.8979,-5.874,-5.8919,-5.9099,-5.9099,-5.9099,-5.9099,-5.9099,-5.9099,-5.9099,-5.9099,-5.9159,-5.9398,-6.0176,-6.0924,-6.2002,-6.2959,-6.3107,-6.3137,-6.3137,-6.3137,-6.3137,-6.3137,-6.3137,-6.3137,-6.3137,-6.3137,-6.3137,-6.3137,-6.3137,-6.3137,-6.3137,-6.3137,-6.3021,-6.2847,-6.2761,-6.2616,-6.3209,-6.3445,-6.4331,-6.5217,-6.5378,-6.5441,-6.5251,-6.5019,-6.49,-6.4984,-6.4972,-6.5118,-6.5083,-6.4423,-6.3746,-6.3037,-6.2593,-6.1846,-6.1167,-6.0787,-6.0406,-5.9946,-5.9714,-5.9663,-5.9099,-5.9099,-5.9099,-5.9099,-5.9099,-5.9099,-5.9099,-5.9099,-5.9099,-5.9099,-5.9099,-5.9099,-5.9099,-5.9099,-5.9099,-5.9099,-5.9099,-5.9153,-5.9207,-5.9261,-5.9476,-5.9583,-5.969,-5.9827,-5.9902,-5.9675,-5.9176,-5.8121,-5.7041,-5.6517,-5.5987,-5.5628,-5.5418,-5.5299,-5.5239,-5.5209,-5.5209,-5.5209,-5.5209,-5.5209,-5.5209,-5.5209,-5.5508,-5.6218,-5.6795,-5.7423,-5.8022,-5.871,-5.9069,-5.9099,-5.9099,-5.9099,-5.9099,-5.9099,-5.9099,-5.9099,-5.9099,-5.9099,-5.9099,-5.9099,-5.9099,-5.9099,-5.9099,-5.9099,-5.9189,-5.9368,-5.9817,-6.0924,-6.1672,-6.2301,-6.2929,-6.3137,-6.3137,-6.3137,-6.3137,-6.3137,-6.3137,-6.3137,-6.3137,-6.3137,-6.3137,-6.3137,-6.3137,-6.3137,-6.3137,-6.3137,-6.3137,-6.3137,-6.2963,-6.2847,-6.2969,-6.3862,-6.4545,-6.5285,-6.5846,-6.5991,-6.6007,-6.5882,-6.5626,-6.5473,-6.5636,-6.582,-6.5983,-6.6134,-6.5712,-6.4978,-6.421,-6.3406,-6.2741,-6.207,-6.1394,-6.0711,-6.0176,-5.9894,-5.974,-5.9099,-5.9099,-5.9099,-5.9099,-5.9099,-5.9099,-5.9099,-5.9099,-5.9099,-5.9099,-5.9099,-5.9099,-5.9099,-5.9099,-5.9099,-5.9099,-5.9153,-5.9315,-5.9422,-5.9476,-5.9827,-5.9986,-5.9963,-5.9963,-6.0197,-6.0197,-6.0,-5.9289,-5.8316,-5.7505,-5.6727,-5.6299,-5.6119,-5.5888,-5.5559,-5.549,-5.5209,-5.5209,-5.5239,-5.5239,-5.5269,-5.5299,-5.5688,-5.6256,-5.6855,-5.7513,-5.8201,-5.88,-5.9099,-5.9099,-5.9099,-5.9099,-5.9099,-5.9099,-5.9099,-5.9099,-5.9099,-5.9099,-5.9099,-5.9099,-5.9099,-5.9099,-5.9099,-5.9099,-5.9308,-5.9757,-6.0326,-6.1014,-6.1762,-6.2391,-6.2929,-6.3137,-6.3137,-6.3137,-6.3137,-6.3137,-6.3137,-6.3137,-6.3137,-6.3137,-6.3137,-6.3137,-6.3137,-6.3137,-6.3137,-6.3137,-6.3137,-6.3137,-6.3199,-6.3202,-6.3413,-6.4308,-6.5232,-6.6004,-6.627,-6.6446,-6.6444,-6.6444,-6.6192,-6.5996,-6.6119,-6.6381,-6.6846,-6.6854,-6.6502,-6.6006,-6.5091,-6.429,-6.3565,-6.2656,-6.1655,-6.0885,-6.0253,-6.0022,-5.9666,-5.9261,-5.9099,-5.9099,-5.9099,-5.9099,-5.9099,-5.9099,-5.9099,-5.9099,-5.9099,-5.9099,-5.9099,-5.9099,-5.9099,-5.9099,-5.9207,-5.9315,-5.9476,-5.9636,-5.988,-6.0167,-6.0429,-6.0534,-6.0742,-6.0897,-6.0845,-6.0773,-6.0598,-5.9714,-5.8832,-5.7885,-5.726,-5.717,-5.7058,-5.6393,-5.6152,-5.593,-5.5799,-5.5748,-5.5748,-5.5837,-5.6107,-5.6555,-5.7214,-5.7513,-5.7992,-5.856,-5.889,-5.9099,-5.9099,-5.9099,-5.9099,-5.9099,-5.9099,-5.9099,-5.9099,-5.9099,-5.9099,-5.9099,-5.9099,-5.9099,-5.9129,-5.9159,-5.9279,-5.9668,-6.0266,-6.0924,-6.1613,-6.2271,-6.275,-6.2989,-6.3137,-6.3137,-6.3137,-6.3137,-6.3137,-6.3137,-6.3137,-6.3137,-6.3137,-6.3137,-6.3137,-6.3137,-6.3137,-6.3137,-6.3137,-6.3166,-6.3166,-6.3498,-6.3977,-6.4247,-6.4785,-6.5712,-6.6638,-6.6727,-6.6814,-6.6753,-6.6691,-6.6506,-6.6376,-6.6457,-6.6765,-6.7119,-6.7145,-6.6738,-6.619,-6.5665,-6.4802,-6.3758,-6.2737,-6.1753,-6.0918,-6.0045,-5.9237,-5.8883,-5.9315,-5.9099,-5.9099,-5.9099,-5.9099,-5.9099,-5.9099,-5.9099,-5.9099,-5.9099,-5.9099,-5.9099,-5.9099,-5.9153,-5.9207,-5.9315,-5.9529,-5.9636,-5.9902,-6.0272,-6.069,-6.1,-6.1257,-6.1531,-6.1784,-6.1784,-6.1613,-6.145,-6.1122,-6.0444,-5.9481,-5.841,-5.8328,-5.7992,-5.7626,-5.7191,-5.6817,-5.6612,-5.6457,-5.6457,-5.6466,-5.6795,-5.7363,-5.7842,-5.8201,-5.8441,-5.8979,-5.9099,-5.9099,-5.9099,-5.9099,-5.9099,-5.9099,-5.9099,-5.9099,-5.9099,-5.9099,-5.9099,-5.9099,-5.9099,-5.9099,-5.9159,-5.9368,-5.9697,-6.0326,-6.0984,-6.1493,-6.2002,-6.263,-6.2959,-6.3137,-6.3137,-6.3137,-6.3137,-6.3137,-6.3137,-6.3137,-6.3137,-6.3137,-6.3137,-6.3137,-6.3137,-6.3137,-6.3137,-6.3137,-6.3137,-6.3166,-6.3196,-6.3677,-6.4336,-6.4874,-6.5293,-6.6071,-6.6849,-6.6909,-6.6999,-6.6999,-6.6937,-6.6753,-6.6689,-6.6714,-6.6853,-6.7098,-6.7014,-6.6838,-6.6657,-6.625,-6.5096,-6.388,-6.2946,-6.1977,-6.0676,-5.9691,-5.8797,-5.8301,-5.9369,-5.9099,-5.9099,-5.9099,-5.9099,-5.9099,-5.9099,-5.9099,-5.9099,-5.9099,-5.9153,-5.9099,-5.9153,-5.9207,-5.9369,-5.9529,-5.9583,-6.0061,-6.0429,-6.0794,-6.1226,-6.1664,-6.1885,-6.2184,-6.2383,-6.2432,-6.2383,-6.2383,-6.2284,-6.2058,-6.087,-5.9604,-5.9614,-5.8858,-5.8358,-5.8022,-5.7626,-5.7368,-5.7213,-5.7086,-5.7064,-5.7244,-5.7603,-5.8052,-5.8201,-5.8441,-5.9069,-5.9099,-5.9099,-5.9099,-5.9099,-5.9099,-5.9099,-5.9099,-5.9099,-5.9099,-5.9099,-5.9159,-5.9219,-5.9189,-5.9129,-5.9279,-5.9697,-6.0296,-6.0984,-6.1613,-6.2032,-6.2181,-6.278,-6.3019,-6.3137,-6.3137,-6.3137,-6.3137,-6.3137,-6.3137,-6.3137,-6.3137,-6.3137,-6.3137,-6.3137,-6.3137,-6.3137,-6.3137,-6.3137,-6.3137,-6.3196,-6.3169,-6.3827,-6.4485,-6.5173,-6.5742,-6.643,-6.6909,-6.6969,-6.6999,-6.6999,-6.6999,-6.6876,-6.6876,-6.6936,-6.7046,-6.7093,-6.7019,-6.6843,-6.6925,-6.6599,-6.5181,-6.4025,-6.3222,-6.2084,-6.0551,-5.9196,-5.8215,-5.7872,-5.9667,-5.9315,-5.9153,-5.9099,-5.9099,-5.9099,-5.9099,-5.9099,-5.9099,-5.9207,-5.9369,-5.9369,-5.9476,-5.9667,-5.972,-5.9902,-6.0061,-6.0429,-6.0794,-6.1206,-6.1683,-6.2216,-6.2531,-6.2873,-6.3212,-6.3309,-6.3276,-6.3324,-6.3324,-6.3164,-6.2729,-6.1838,-6.1164,-6.0557,-5.9891,-5.8969,-5.8356,-5.7945,-5.7888,-5.7963,-5.7812,-5.8171,-5.8471,-5.868,-5.874,-5.883,-5.9069,-5.9099,-5.9099,-5.9159,-5.9243,-5.9273,-5.9249,-5.9249,-5.9219,-5.9219,-5.9249,-5.9398,-5.9578,-5.9428,-5.9279,-5.9817,-6.0356,-6.1014,-6.1613,-6.1972,-6.2331,-6.26,-6.2869,-6.3137,-6.3137,-6.3137,-6.3137,-6.3137,-6.3137,-6.3137,-6.3137,-6.3137,-6.3199,-6.3228,-6.3139,-6.3137,-6.3137,-6.3137,-6.3137,-6.3137,-6.3196,-6.3318,-6.4006,-6.4635,-6.5323,-6.5981,-6.664,-6.6939,-6.6969,-6.6999,-6.6999,-6.6999,-6.6999,-6.6999,-6.6999,-6.6967,-6.6989,-6.6918,-6.6723,-6.6422,-6.5838,-6.4905,-6.3958,-6.3018,-6.1678,-6.0067,-5.8811,-5.7684,-5.7343,-6.0039,-5.9636,-5.9422,-5.9261,-5.9099,-5.9099,-5.9099,-5.9099,-5.9207,-5.9369,-5.9636,-5.9636,-5.9796,-6.0039,-6.025,-6.0407,-6.0638,-6.0949,-6.1257,-6.1714,-6.2216,-6.2759,-6.3196,-6.358,-6.3832,-6.4114,-6.4161,-6.4114,-6.4067,-6.4006,-6.3658,-6.3324,-6.2971,-6.2171,-6.102,-6.0156,-5.9283,-5.9075,-5.8942,-5.9265,-5.9147,-5.9483,-5.9697,-5.9757,-5.9757,-5.9897,-5.9956,-6.0041,-6.0066,-6.009,-6.0036,-5.9921,-5.9837,-5.9752,-5.9697,-5.9697,-5.9727,-5.9937,-6.0116,-6.0086,-5.9997,-6.0745,-6.1104,-6.1732,-6.2181,-6.2391,-6.269,-6.2987,-6.3107,-6.3137,-6.3137,-6.3137,-6.3137,-6.3137,-6.3137,-6.3137,-6.3137,-6.3137,-6.3288,-6.3408,-6.3288,-6.3196,-6.3288,-6.3258,-6.3137,-6.3137,-6.3166,-6.3498,-6.4366,-6.4934,-6.5443,-6.6101,-6.6729,-6.6909,-6.6999,-6.6999,-6.6999,-6.6999,-6.6999,-6.6999,-6.6999,-6.6999,-6.6937,-6.6932,-6.6527,-6.5878,-6.5304,-6.48,-6.3867,-6.2776,-6.1081,-5.9272,-5.8278,-5.7229,-5.669,-6.0512,-6.0016,-5.9963,-5.9667,-5.9153,-5.9099,-5.9099,-5.9153,-5.9422,-5.969,-5.9986,-6.0069,-6.0197,-6.046,-6.069,-6.0897,-6.1155,-6.143,-6.1784,-6.2266,-6.271,-6.3293,-6.377,-6.4193,-6.4518,-6.4656,-6.4761,-6.4806,-6.4748,-6.4702,-6.4564,-6.4351,-6.4056,-6.3421,-6.2048,-6.1206,-6.1101,-6.1467,-6.0805,-6.0838,-6.0891,-6.0907,-6.0881,-6.0881,-6.0881,-6.0932,-6.1012,-6.1067,-6.1146,-6.1286,-6.1207,-6.1127,-6.1127,-6.0967,-6.0886,-6.0946,-6.092,-6.101,-6.1074,-6.1044,-6.1343,-6.1702,-6.1882,-6.2301,-6.2839,-6.3019,-6.2959,-6.3137,-6.3137,-6.3137,-6.3137,-6.3137,-6.3137,-6.3137,-6.3137,-6.3137,-6.3137,-6.3288,-6.3528,-6.3647,-6.3408,-6.3228,-6.3438,-6.3498,-6.3256,-6.3137,-6.3137,-6.3647,-6.4575,-6.5114,-6.5503,-6.6251,-6.6879,-6.6909,-6.6999,-6.6999,-6.6999,-6.6999,-6.6999,-6.6999,-6.6999,-6.6999,-6.6937,-6.6876,-6.6444,-6.5882,-6.5378,-6.4897,-6.3583,-6.2093,-6.02,-5.8478,-5.7595,-5.6874,-5.6438,-6.0845,-6.0481,-6.0355,-6.0039,-5.9667,-5.9476,-5.9369,-5.9422,-5.972,-6.0092,-6.0429,-6.0564,-6.0794,-6.1155,-6.1308,-6.143,-6.1563,-6.1935,-6.2333,-6.2481,-6.3148,-6.3738,-6.424,-6.4715,-6.5111,-6.5425,-6.5559,-6.557,-6.5658,-6.5437,-6.5246,-6.5099,-6.4989,-6.432,-6.3376,-6.2606,-6.2426,-6.2408,-6.2135,-6.2011,-6.1874,-6.18,-6.1745,-6.1775,-6.1775,-6.1916,-6.2026,-6.2086,-6.2196,-6.222,-6.2086,-6.2001,-6.1971,-6.1805,-6.1775,-6.1745,-6.1745,-6.1815,-6.2096,-6.2314,-6.2412,-6.2475,-6.248,-6.278,-6.3107,-6.3137,-6.3137,-6.3137,-6.3137,-6.3137,-6.3137,-6.3137,-6.3137,-6.3137,-6.3137,-6.3137,-6.3226,-6.3558,-6.3827,-6.3857,-6.3737,-6.3378,-6.3378,-6.3378,-6.3226,-6.3139,-6.3169,-6.3827,-6.4725,-6.5084,-6.5443,-6.634,-6.6969,-6.6969,-6.6999,-6.6999,-6.6999,-6.6999,-6.6999,-6.6999,-6.6999,-6.6999,-6.6999,-6.6937,-6.6444,-6.5945,-6.5314,-6.4454,-6.2886,-6.1275,-5.9621,-5.831,-5.7523,-5.6874,-5.6365,-6.1461,-6.1206,-6.0949,-6.0638,-6.0355,-5.988,-5.969,-5.9849,-6.0144,-6.0564,-6.0897,-6.1103,-6.1461,-6.1784,-6.1985,-6.2116,-6.2216,-6.2481,-6.2776,-6.2905,-6.358,-6.41,-6.4531,-6.5033,-6.5425,-6.578,-6.5999,-6.6052,-6.6009,-6.5922,-6.599,-6.6012,-6.5877,-6.5778,-6.5077,-6.4561,-6.3732,-6.3692,-6.3539,-6.3318,-6.3262,-6.3159,-6.3019,-6.3049,-6.3104,-6.3128,-6.3152,-6.3122,-6.3122,-6.3036,-6.2982,-6.2872,-6.2817,-6.2848,-6.2848,-6.2793,-6.2853,-6.293,-6.3131,-6.3316,-6.3177,-6.2799,-6.3014,-6.3107,-6.3137,-6.3137,-6.3137,-6.3137,-6.3137,-6.3137,-6.3137,-6.3137,-6.3137,-6.3137,-6.3137,-6.3137,-6.3258,-6.3647,-6.4216,-6.4216,-6.4036,-6.3677,-6.3228,-6.3169,-6.3137,-6.3169,-6.3288,-6.4096,-6.4844,-6.5203,-6.5592,-6.643,-6.6999,-6.6999,-6.6999,-6.6999,-6.6999,-6.6999,-6.6999,-6.6999,-6.6999,-6.6999,-6.6999,-6.6937,-6.6444,-6.5819,-6.5031,-6.3936,-6.2592,-6.1111,-5.9552,-5.8426,-5.7595,-5.6874,-5.6292,-6.2284,-6.2016,-6.1765,-6.1461,-6.1103,-6.046,-6.025,-6.0429,-6.069,-6.0949,-6.1308,-6.1815,-6.2166,-6.2432,-6.271,-6.2905,-6.3083,-6.3148,-6.3293,-6.3532,-6.3912,-6.4286,-6.4748,-6.5213,-6.5647,-6.5867,-6.6052,-6.6268,-6.6139,-6.6139,-6.6464,-6.6901,-6.6766,-6.7004,-6.6837,-6.6402,-6.5517,-6.5281,-6.4945,-6.4791,-6.4793,-6.4847,-6.473,-6.4645,-6.4645,-6.473,-6.487,-6.4901,-6.4963,-6.4971,-6.4868,-6.4623,-6.4488,-6.4407,-6.4407,-6.4376,-6.4371,-6.4259,-6.4066,-6.4132,-6.3906,-6.3441,-6.3276,-6.3194,-6.3137,-6.3137,-6.3137,-6.3137,-6.3137,-6.3137,-6.3137,-6.3137,-6.3137,-6.3137,-6.3137,-6.3226,-6.3318,-6.3767,-6.4425,-6.4575,-6.4366,-6.3977,-6.3288,-6.3137,-6.3166,-6.3318,-6.3558,-6.4246,-6.4994,-6.5562,-6.5981,-6.658,-6.6999,-6.6999,-6.6999,-6.6999,-6.6999,-6.6999,-6.6999,-6.6999,-6.6999,-6.6999,-6.6999,-6.6814,-6.6382,-6.5694,-6.4839,-6.3741,-6.2459,-6.0975,-5.9552,-5.8426,-5.7523,-5.6801,-5.6219,-6.3068,-6.2825,-6.2531,-6.2216,-6.1765,-6.1308,-6.1,-6.0742,-6.0949,-6.141,-6.2085,-6.2414,-6.2808,-6.3244,-6.35,-6.35,-6.358,-6.3628,-6.3628,-6.3865,-6.424,-6.4518,-6.493,-6.5437,-6.5834,-6.6095,-6.6311,-6.6525,-6.6558,-6.6473,-6.6825,-6.7309,-6.7681,-6.8153,-6.8366,-6.8256,-6.7536,-6.694,-6.6384,-6.6228,-6.6173,-6.613,-6.6076,-6.6076,-6.6023,-6.6076,-6.5969,-6.5915,-6.5862,-6.5592,-6.5538,-6.5375,-6.5375,-6.532,-6.5289,-6.5375,-6.5452,-6.5452,-6.4991,-6.466,-6.4437,-6.4188,-6.3906,-6.3481,-6.3309,-6.3137,-6.3137,-6.3137,-6.3137,-6.3137,-6.3137,-6.3137,-6.3137,-6.3137,-6.3226,-6.3378,-6.3617,-6.4306,-6.4904,-6.4994,-6.4814,-6.4096,-6.3438,-6.3137,-6.3139,-6.3408,-6.3827,-6.4515,-6.5144,-6.5742,-6.6251,-6.6819,-6.6999,-6.6999,-6.6999,-6.6999,-6.6999,-6.6999,-6.6999,-6.6999,-6.6999,-6.6999,-6.6999,-6.6753,-6.6319,-6.5567,-6.4676,-6.3545,-6.2392,-6.0975,-5.9552,-5.8497,-5.7523,-5.6801,-5.6219,-6.377,-6.3595,-6.3357,-6.2922,-6.2513,-6.2184,-6.1834,-6.1664,-6.1633,-6.1985,-6.2432,-6.3051,-6.3437,-6.3723,-6.402,-6.4161,-6.41,-6.4193,-6.4193,-6.4286,-6.4564,-6.4748,-6.5156,-6.5614,-6.6009,-6.6268,-6.6516,-6.6728,-6.6838,-6.7125,-6.7444,-6.822,-6.8629,-6.9142,-6.9456,-6.9514,-6.9105,-6.8436,-6.7816,-6.7471,-6.7265,-6.7181,-6.7265,-6.7213,-6.713,-6.6921,-6.6817,-6.668,-6.647,-6.6236,-6.6236,-6.6161,-6.613,-6.613,-6.6183,-6.6236,-6.6289,-6.6183,-6.5839,-6.5483,-6.5156,-6.4771,-6.4468,-6.4019,-6.3622,-6.3394,-6.3252,-6.3137,-6.3137,-6.3137,-6.3137,-6.3137,-6.3137,-6.3137,-6.3348,-6.3617,-6.4216,-6.4904,-6.5203,-6.5383,-6.4964,-6.4276,-6.3737,-6.3318,-6.3226,-6.3408,-6.3917,-6.4695,-6.5353,-6.6011,-6.646,-6.6909,-6.6999,-6.6999,-6.6999,-6.6999,-6.6999,-6.6999,-6.6999,-6.6999,-6.6999,-6.6999,-6.6937,-6.6691,-6.6319,-6.5504,-6.4676,-6.361,-6.2392,-6.1043,-5.9691,-5.8638,-5.7667,-5.6703,-5.6365,-6.4426,-6.4393,-6.4114,-6.369,-6.326,-6.3002,-6.2856,-6.2856,-6.2629,-6.2531,-6.2776,-6.3548,-6.4053,-6.4286,-6.4577,-6.4715,-6.4656,-6.4702,-6.461,-6.4669,-6.4918,-6.5054,-6.5291,-6.578,-6.6095,-6.6268,-6.655,-6.6914,-6.7117,-6.7446,-6.8123,-6.9147,-6.9501,-6.9962,-7.0419,-7.0309,-6.9988,-6.9526,-6.8945,-6.8419,-6.8251,-6.8201,-6.8251,-6.8201,-6.805,-6.7848,-6.7746,-6.7593,-6.7336,-6.7213,-6.7057,-6.6953,-6.6953,-6.7057,-6.7161,-6.713,-6.7181,-6.7005,-6.6744,-6.6396,-6.5915,-6.5538,-6.5077,-6.4691,-6.43,-6.3736,-6.3538,-6.3424,-6.3424,-6.3424,-6.3424,-6.3309,-6.3252,-6.3344,-6.3526,-6.3945,-6.4455,-6.5054,-6.5443,-6.5413,-6.4844,-6.4126,-6.3498,-6.3137,-6.3137,-6.3348,-6.4036,-6.4874,-6.5473,-6.6131,-6.661,-6.6969,-6.6999,-6.6999,-6.6999,-6.6999,-6.6999,-6.6999,-6.6999,-6.6999,-6.6999,-6.6937,-6.6876,-6.6629,-6.6382,-6.563,-6.474,-6.3675,-6.2487,-6.1207,-5.99,-5.8806,-5.781,-5.6921,-5.6438,-6.5425,-6.5381,-6.4761,-6.43,-6.3973,-6.358,-6.3389,-6.3437,-6.358,-6.3628,-6.3723,-6.4053,-6.4564,-6.4943,-6.5123,-6.5213,-6.5246,-6.5111,-6.4885,-6.4885,-6.5054,-6.5279,-6.5381,-6.5834,-6.6215,-6.643,-6.6711,-6.7151,-6.7557,-6.7963,-6.8639,-6.9755,-7.014,-7.049,-7.0928,-7.0687,-7.0549,-7.0283,-7.0002,-6.9349,-6.8945,-6.8847,-6.8797,-6.8797,-6.8748,-6.86,-6.8501,-6.8351,-6.8151,-6.7949,-6.7949,-6.7899,-6.7848,-6.805,-6.8101,-6.8,-6.805,-6.7899,-6.7593,-6.7233,-6.6817,-6.6396,-6.5969,-6.5483,-6.4967,-6.43,-6.388,-6.3823,-6.3766,-6.3766,-6.3709,-6.3538,-6.3424,-6.3579,-6.3792,-6.4243,-6.4635,-6.5114,-6.5592,-6.5144,-6.4575,-6.3977,-6.3318,-6.3137,-6.3137,-6.3558,-6.4395,-6.5024,-6.5533,-6.6101,-6.667,-6.6999,-6.6999,-6.6999,-6.6999,-6.6999,-6.6999,-6.6999,-6.6999,-6.6999,-6.6999,-6.6999,-6.6937,-6.6753,-6.6382,-6.5694,-6.4839,-6.3741,-6.2554,-6.1343,-6.0177,-5.9088,-5.8096,-5.7235,-5.6703,-6.5922,-6.5867,-6.5258,-6.4897,-6.4748,-6.4286,-6.41,-6.41,-6.424,-6.4379,-6.4518,-6.4702,-6.5033,-6.5437,-6.557,-6.5702,-6.5692,-6.5514,-6.5381,-6.5291,-6.5291,-6.547,-6.5736,-6.6042,-6.6259,-6.6583,-6.7091,-6.759,-6.803,-6.8808,-6.9586,-7.0195,-7.0432,-7.0749,-7.1052,-7.1052,-7.0916,-7.0687,-7.0654,-7.0283,-6.967,-6.9622,-6.967,-6.967,-6.9526,-6.9382,-6.9188,-6.9042,-6.8797,-6.8649,-6.855,-6.8649,-6.8699,-6.8847,-6.8945,-6.8896,-6.8896,-6.8797,-6.8501,-6.8101,-6.7695,-6.7233,-6.6869,-6.6448,-6.6,-6.5351,-6.4746,-6.4635,-6.4188,-6.4132,-6.3936,-6.3766,-6.3766,-6.386,-6.4256,-6.4654,-6.4988,-6.5321,-6.5173,-6.4545,-6.4126,-6.3857,-6.3318,-6.3137,-6.3256,-6.3707,-6.4575,-6.5263,-6.5682,-6.6131,-6.667,-6.6999,-6.6999,-6.6999,-6.6999,-6.6999,-6.6999,-6.6999,-6.6999,-6.6999,-6.6999,-6.6999,-6.6937,-6.6814,-6.6506,-6.5882,-6.4967,-6.3936,-6.2886,-6.1749,-6.0522,-5.9368,-5.8426,-5.7595,-5.6993,-6.6182,-6.6095,-6.5702,-6.5514,-6.5459,-6.5074,-6.4892,-6.4826,-6.4892,-6.4983,-6.5144,-6.5381,-6.5514,-6.5614,-6.5878,-6.6052,-6.6052,-6.5867,-6.5824,-6.578,-6.578,-6.5867,-6.5999,-6.6292,-6.6565,-6.7064,-6.7674,-6.8098,-6.8504,-6.935,-6.9992,-7.0398,-7.0838,-7.1267,-7.1312,-7.1267,-7.1176,-7.1007,-7.0916,-7.0825,-7.0654,-7.0515,-7.0423,-7.0376,-7.0316,-7.0129,-6.9893,-6.967,-6.9382,-6.9334,-6.9285,-6.9382,-6.9478,-6.9574,-6.967,-6.9717,-6.9622,-6.9526,-6.9334,-6.8994,-6.8501,-6.805,-6.7746,-6.7336,-6.6953,-6.648,-6.5862,-6.5429,-6.4991,-6.4549,-6.4412,-6.4218,-6.4218,-6.4254,-6.4714,-6.5089,-6.5339,-6.5466,-6.4779,-6.4123,-6.3855,-6.3646,-6.3378,-6.3196,-6.3438,-6.3977,-6.4605,-6.5263,-6.5862,-6.634,-6.6819,-6.6999,-6.6999,-6.6999,-6.6999,-6.6999,-6.6999,-6.6999,-6.6999,-6.6999,-6.6999,-6.6999,-6.6999,-6.6937,-6.6506,-6.6007,-6.5222,-6.4296,-6.3188,-6.2125,-6.0906,-5.983,-5.8876,-5.8025,-5.7379,-6.6558,-6.6421,-6.6335,-6.6172,-6.6022,-6.6067,-6.5853,-6.5457,-6.5952,-6.5886,-6.5747,-6.6065,-6.6172,-6.5999,-6.6009,-6.6249,-6.6513,-6.634,-6.6119,-6.6052,-6.6219,-6.6239,-6.647,-6.6868,-6.703,-6.7665,-6.8427,-6.9113,-6.9316,-6.9891,-7.0534,-7.1041,-7.1075,-7.1312,-7.1312,-7.1267,-7.1267,-7.1176,-7.1176,-7.1098,-7.1007,-7.0825,-7.0515,-7.0469,-7.0469,-7.0456,-7.033,-7.033,-7.0283,-7.0236,-7.0143,-7.0143,-7.019,-7.019,-7.0283,-7.0283,-7.0236,-7.0143,-6.9907,-6.967,-6.9237,-6.8847,-6.8501,-6.8251,-6.7899,-6.7593,-6.7098,-6.6785,-6.6311,-6.5723,-6.5483,-6.5187,-6.5077,-6.5011,-6.5269,-6.5425,-6.5569,-6.5155,-6.4591,-6.4058,-6.3702,-6.3494,-6.3228,-6.3228,-6.3498,-6.4066,-6.4755,-6.5413,-6.6071,-6.655,-6.6999,-6.6999,-6.6999,-6.6999,-6.6999,-6.6999,-6.6999,-6.6999,-6.6999,-6.6999,-6.6999,-6.6999,-6.6999,-6.6937,-6.6691,-6.6195,-6.5412,-6.4647,-6.3582,-6.2554,-6.1383,-6.0246,-5.9272,-5.8381,-5.7739]},{"header":{"parameterUnit":"m.s-1","parameterCategory":1,"la1":31.0,"la2":29.5877,"lo1":-88.7671,"lo2":-86.6584,"dx":0.0162,"dy":0.0185,"nx":115,"ny":88,"refTime":"2023-01-01T18:00:00:Z","depth":0,"parameterNumber":3,"parameterNumberName":"V-component_of_WINDS"},"data":[0.0,0.0,0.0,0.0,0.0,0.0,0.0,0.0,0.0,0.0,0.0,0.0,0.0,0.0,0.0,0.0,0.0,0.0,0.0,0.0,0.0,0.0,0.0,0.0,0.0,0.0,0.0,0.0,0.0,0.0,0.0,0.0,0.0,0.0,0.0,0.0,0.0,0.0,0.0,0.0,0.0,0.0,0.0,0.0,0.0,0.0,0.0,0.0,0.0,0.0,0.0,0.0,0.0,0.0,0.0,0.0,0.0,0.0,0.0,0.0,0.0,0.0,0.0,0.0,0.0,0.0,0.0,0.0,0.0,0.0,0.0,0.0,0.0,0.0,0.0,0.0,0.0,0.0,0.0,0.0,0.0,0.0,0.0,0.0,0.0,0.0,0.0,0.0,0.0,0.0,0.0,0.0,0.0,0.0,0.0,0.0,0.0,0.0,0.0,0.0,0.0,0.0,0.0,0.0,0.0,0.0,0.0,0.0,0.0,0.0,0.0,0.0,0.0,0.0,0.0,0.0,0.0,0.0,0.0,0.0,0.0,0.0,0.0,0.0,0.0,0.0,0.0,0.0,0.0,0.0,0.0,0.0,0.0,0.0,0.0,0.0,0.0,0.0,0.0,0.0,0.0,0.0,0.0,0.0,0.0,0.0,0.0,0.0,0.0,0.0,0.0,0.0,0.0,0.0,0.0,0.0,0.0,0.0,0.0,0.0,0.0,0.0,0.0,0.0,0.0,0.0,0.0,0.0,0.0,0.0,0.0,0.0,0.0,0.0,0.0,0.0,0.0,0.0,0.0,0.0,0.0,0.0,0.0,0.0,0.0,0.0,0.0,0.0,0.0,0.0,0.0,0.0,0.0,0.0,0.0,0.0,0.0,0.0,0.0,0.0,0.0,0.0,0.0,0.0,0.0,0.0,0.0,0.0,0.0,0.0,0.0,0.0,0.0,0.0,0.0,0.0,0.0,0.0,0.0,0.0,0.0,0.0,0.0,0.0,0.0,0.0,0.0,0.0,0.0,0.0,0.0,0.0,0.0,0.0,0.0,0.0,0.0,0.0,0.0,0.0,0.0,0.0,0.0,0.0,0.0,0.0,0.0,0.0,0.0,0.0,0.0,0.0,0.0,0.0,0.0,0.0,0.0,0.0,0.0,0.0,0.0,0.0,0.0,0.0,0.0,0.0,0.0,0.0,0.0,0.0,0.0,0.0,0.0,0.0,0.0,0.0,0.0,0.0,0.0,0.0,0.0,0.0,0.0,0.0,0.0,0.0,0.0,0.0,0.0,0.0,0.0,0.0,0.0,0.0,0.0,0.0,0.0,0.0,0.0,0.0,0.0,0.0,0.0,0.0,0.0,0.0,0.0,0.0,0.0,0.0,0.0,0.0,0.0,0.0,0.0,0.0,0.0,0.0,0.0,0.0,0.0,0.0,0.0,0.0,0.0,0.0,0.0,0.0,0.0,0.0,0.0,0.0,0.0,0.0,0.0,0.0,0.0,0.0,0.0,0.0,0.0,0.0,0.0,0.0,0.0,0.0,0.0,0.0,0.0,0.0,0.0,0.0,0.0,0.0,0.0,0.0,0.0,0.0,0.0,0.0,0.0,0.0,0.0,0.0,0.0,0.0,0.0,0.0,0.0,0.0,0.0,0.0,0.0,0.0,0.0,0.0,0.0,0.0,0.0,0.0,0.0,0.0,0.0,0.0,0.0,0.0,0.0,0.0,0.0,0.0,0.0,0.0,0.0,0.0,0.0,0.0,0.0,0.0,0.0,0.0,0.0,0.0,0.0,0.0,0.0,0.0,0.0,0.0,0.0,0.0,0.0,0.0,0.0,0.0,0.0,0.0,0.0,0.0,0.0,0.0,0.0,0.0,0.0,0.0,0.0,0.0,0.0,0.0,0.0,0.0,0.0,0.0,0.0,0.0,0.0,0.0,0.0,0.0,0.0,0.0,0.0,0.0,0.0,0.0,0.0,0.0,0.0,0.0,0.0,0.0,0.0,0.0,0.0,0.0,0.0,0.0,0.0,0.0,0.0,0.0,0.0,0.0,0.0,0.0,0.0,0.0,0.0,0.0,0.0,0.0,0.0,0.0,0.0,0.0,0.0,0.0,0.0,0.0,0.0,0.0,0.0,0.0,0.0,0.0,0.0,0.0,0.0,0.0,0.0,0.0,0.0,0.0,0.0,0.0,0.0,0.0,0.0,0.0,0.0,0.0,0.0,0.0,0.0,0.0,0.0,0.0,0.0,0.0,0.0,0.0,0.0,0.0,0.0,0.0,0.0,0.0,0.0,0.0,0.0,0.0,0.0,0.0,0.0,0.0,0.0,0.0,0.0,0.0,0.0,0.0,0.0,0.0,0.0,0.0,0.0,0.0,0.0,0.0,0.0,0.0,0.0,0.0,0.0,0.0,0.0,0.0,0.0,0.0,0.0,0.0,0.0,0.0,0.0,0.0,0.0,0.0,0.0,0.0,0.0,0.0,0.0,0.0,0.0,0.0,0.0,0.0,0.0,0.0,0.0,0.0,0.0,0.0,0.0,0.0,0.0,0.0,0.0,0.0,0.0,0.0,0.0,0.0,0.0,0.0,0.0,0.0,0.0,0.0,0.0,0.0,0.0,0.0,0.0,0.0,0.0,0.0,0.0,0.0,0.0,0.0,0.0,0.0,0.0,0.0,0.0,0.0,0.0,0.0,0.0,0.0,0.0,0.0,0.0,0.0,0.0,0.0,0.0,0.0,0.0,0.0,0.0,0.0,0.0,0.0,0.0,0.0,0.0,0.0,0.0,0.0,0.0,0.0,0.0,0.0,0.0,0.0,0.0,0.0,0.0,0.0,0.0,0.0,0.0,0.0,0.0,0.0,0.0,0.0,0.0,0.0,0.0,0.0,0.0,0.0,0.0,0.0,0.0,0.0,0.0,0.0,0.0,0.0,0.0,0.0,0.0,0.0,0.0,0.0,0.0,0.0,0.0,0.0,0.0,0.0,0.0,0.0,0.0,0.0,0.0,0.0,0.0,0.0,0.0,0.0,0.0,0.0,0.0,0.0,0.0,0.0,0.0,0.0,0.0,0.0,0.0,0.0,0.0,0.0,0.0,0.0,0.0,0.0,0.0,0.0,0.0,0.0,0.0,0.0,0.0,0.0,0.0,0.0,0.0,0.0,0.0,0.0,0.0,0.0,0.0,0.0,0.0,0.0,0.0,0.0,0.0,0.0,0.0,0.0,0.0,0.0,0.0,0.0,0.0,0.0,0.0,0.0,0.0,0.0,0.0,0.0,0.0,0.0,0.0,0.0,0.0,0.0,0.0,0.0,0.0,0.0,0.0,0.0,0.0,0.0,0.0,0.0,0.0,0.0,0.0,0.0,0.0,0.0,0.0,0.0,0.0,0.0,0.0,0.0,0.0,0.0,0.0,0.0,0.0,0.0,0.0,0.0,0.0,0.0,0.0,0.0,0.0,0.0,0.0,0.0,0.0,0.0,0.0,0.0,0.0,0.0,0.0,0.0,0.0,0.0,0.0,0.0,0.0,0.0,0.0,0.0,0.0,0.0,0.0,0.0,0.0,0.0,0.0,0.0,0.0,0.0,0.0,0.0,0.0,0.0,0.0,0.0,0.0,0.0,0.0,0.0,0.0,0.0,0.0,0.0,0.0,0.0,0.0,0.0,0.0,0.0,0.0,0.0,0.0,0.0,0.0,0.0,0.0,0.0,0.0,0.0,0.0,0.0,0.0,0.0,0.0,0.0,0.0,0.0,0.0,0.0,0.0,0.0,0.0,0.0,0.0,0.0,0.0,0.0,0.0,0.0,0.0,0.0,0.0,0.0,0.0,0.0,0.0,0.0,0.0,0.0,0.0,0.0,0.0,0.0,0.0,0.0,0.0,0.0,0.0,0.0,0.0,0.0,0.0,0.0,0.0,0.0,0.0,0.0,0.0,0.0,0.0,0.0,0.0,0.0,0.0,0.0,0.0,0.0,0.0,0.0,0.0,0.0,0.0,0.0,0.0,0.0,0.0,0.0,0.0,0.0,0.0,0.0,0.0,0.0,0.0,0.0,0.0,0.0,0.0,0.0,0.0,0.0,0.0,0.0,0.0,0.0,0.0,0.0,0.0,0.0,0.0,0.0,0.0,0.0,0.0,0.0,0.0,0.0,0.0,0.0,0.0,0.0,0.0,0.0,0.0,0.0,0.0,0.0,0.0,0.0,0.0,0.0,0.0,0.0,0.0,0.0,0.0,0.0,0.0,0.0,0.0,0.0,1.8375,0.0,0.0,0.0,1.9198,0.0,0.0,0.0,0.0,0.0,0.0,0.0,0.0,0.0,0.0,0.0,0.0,0.0,0.0,0.0,0.0,0.0,0.0,0.0,0.0,0.0,0.0,0.0,0.0,0.0,0.0,0.0,0.0,0.0,0.0,0.0,0.0,0.0,0.0,0.0,0.0,0.0,0.0,0.0,0.0,0.0,0.0,0.0,0.0,0.0,0.0,0.0,0.0,0.0,0.0,0.0,0.0,0.0,0.0,0.0,0.0,0.0,0.0,0.0,0.0,0.0,0.0,0.0,0.0,0.0,0.0,0.0,0.0,0.0,0.0,0.0,0.0,0.0,0.0,0.0,0.0,0.0,0.0,0.0,0.0,0.0,0.0,0.0,0.0,0.0,0.0,0.0,0.0,0.0,0.0,0.0,0.0,0.0,0.0,0.0,0.0,0.0,0.0,0.0,0.0,0.0,0.0,0.0,0.0,0.0,0.0,0.0,0.0,0.0,0.0,1.8801,1.9316,1.9235,1.9272,1.954,0.0,0.0,0.0,0.0,0.0,0.0,0.0,0.0,0.0,0.0,0.0,0.0,0.0,0.0,0.0,0.0,0.0,0.0,0.0,0.0,0.0,0.0,0.0,0.0,0.0,0.0,0.0,0.0,0.0,0.0,0.0,0.0,0.0,0.0,0.0,0.0,0.0,0.0,0.0,0.0,0.0,0.0,0.0,0.0,0.0,0.0,0.0,0.0,0.0,0.0,0.0,0.0,0.0,0.0,0.0,0.0,0.0,0.0,0.0,0.0,0.0,0.0,0.0,0.0,0.0,0.0,0.0,0.0,0.0,0.0,0.0,0.0,0.0,0.0,0.0,0.0,0.0,0.0,0.0,0.0,0.0,0.0,0.0,0.0,0.0,0.0,0.0,0.0,0.0,0.0,0.0,0.0,0.0,0.0,0.0,0.0,0.0,0.0,0.0,0.0,0.0,0.0,0.0,0.0,0.0,0.0,0.0,0.0,0.0,0.0,0.0,0.0,1.9637,1.9591,1.9839,0.0,0.0,0.0,0.0,0.0,0.0,0.0,0.0,0.0,0.0,0.0,0.0,0.0,0.0,0.0,0.0,0.0,0.0,0.0,0.0,0.0,0.0,0.0,0.0,0.0,0.0,0.0,0.0,0.0,0.0,0.0,0.0,0.0,0.0,0.0,0.0,0.0,0.0,0.0,0.0,0.0,0.0,0.0,0.0,0.0,0.0,0.0,0.0,0.0,0.0,0.0,0.0,0.0,0.0,0.0,0.0,0.0,0.0,0.0,0.0,0.0,0.0,0.0,0.0,0.0,0.0,0.0,0.0,0.0,0.0,0.0,0.0,0.0,0.0,0.0,0.0,0.0,0.0,0.0,0.0,0.0,0.0,0.0,0.0,0.0,0.0,0.0,0.0,0.0,0.0,0.0,0.0,0.0,0.0,0.0,0.0,0.0,0.0,0.0,0.0,0.0,0.0,0.0,0.0,0.0,0.0,0.0,0.0,0.0,0.0,1.9471,1.9883,2.006,0.0,1.999,0.0,0.0,0.0,0.0,0.0,0.0,0.0,0.0,0.0,0.0,0.0,0.0,0.0,0.0,0.0,0.0,0.0,0.0,0.0,0.0,0.0,0.0,0.0,0.0,0.0,0.0,0.0,0.0,0.0,0.0,0.0,0.0,0.0,0.0,0.0,0.0,0.0,0.0,0.0,0.0,0.0,0.0,0.0,0.0,0.0,0.0,0.0,0.0,0.0,0.0,0.0,0.0,0.0,0.0,0.0,0.0,0.0,0.0,0.0,0.0,0.0,0.0,0.0,0.0,0.0,0.0,0.0,0.0,0.0,0.0,0.0,0.0,0.0,0.0,0.0,0.0,0.0,0.0,0.0,0.0,0.0,0.0,0.0,0.0,0.0,0.0,0.0,0.0,0.0,0.0,0.0,0.0,0.0,0.0,0.0,0.0,0.0,0.0,0.0,0.0,0.0,0.0,0.0,0.0,0.0,0.0,0.0,0.0,0.0,0.0,1.9508,1.9902,1.994,1.9961,0.0,0.0,0.0,0.0,0.0,0.0,0.0,0.0,0.0,0.0,0.0,0.0,0.0,0.0,0.0,0.0,0.0,0.0,0.0,0.0,0.0,0.0,0.0,0.0,0.0,0.0,0.0,0.0,0.0,0.0,0.0,0.0,0.0,0.0,0.0,0.0,0.0,0.0,0.0,0.0,0.0,0.0,0.0,0.0,0.0,0.0,0.0,0.0,0.0,0.0,0.0,0.0,0.0,0.0,0.0,0.0,0.0,0.0,0.0,0.0,0.0,0.0,0.0,0.0,0.0,0.0,0.0,0.0,0.0,0.0,0.0,0.0,0.0,0.0,0.0,0.0,0.0,0.0,0.0,0.0,0.0,0.0,0.0,0.0,0.0,0.0,0.0,0.0,0.0,0.0,0.0,0.0,0.0,0.0,0.0,0.0,0.0,0.0,0.0,0.0,0.0,0.0,0.0,0.0,0.0,0.0,0.0,0.0,0.0,0.0,1.8856,1.9627,2.0216,2.0024,2.0017,2.0294,0.0,0.0,0.0,0.0,0.0,0.0,0.0,0.0,0.0,0.0,0.0,0.0,0.0,0.0,0.0,0.0,0.0,0.0,0.0,0.0,0.0,0.0,0.0,0.0,0.0,0.0,0.0,0.0,0.0,0.0,0.0,0.0,0.0,0.0,0.0,0.0,0.0,0.0,0.0,0.0,0.0,0.0,0.0,0.0,0.0,0.0,0.0,0.0,0.0,0.0,0.0,0.0,0.0,0.0,0.0,0.0,0.0,0.0,0.0,0.0,0.0,0.0,0.0,0.0,0.0,0.0,0.0,0.0,0.0,0.0,0.0,0.0,0.0,0.0,0.0,0.0,0.0,0.0,0.0,0.0,0.0,0.0,0.0,0.0,0.0,0.0,0.0,0.0,0.0,0.0,0.0,0.0,0.0,0.0,0.0,0.0,0.0,0.0,0.0,0.0,0.0,0.0,0.0,0.0,0.0,0.0,0.0,0.0,1.7974,1.8891,1.9902,2.1089,2.0467,2.041,0.0,0.0,0.0,0.0,0.0,0.0,0.0,0.0,0.0,0.0,0.0,0.0,0.0,0.0,0.0,0.0,0.0,0.0,0.0,0.0,0.0,0.0,0.0,0.0,0.0,0.0,0.0,0.0,0.0,0.0,0.0,0.0,0.0,0.0,0.0,0.0,0.0,0.0,0.0,0.0,0.0,0.0,0.0,0.0,0.0,0.0,0.0,0.0,0.0,0.0,0.0,0.0,0.0,0.0,0.0,0.0,0.0,0.0,0.0,0.0,0.0,0.0,0.0,0.0,0.0,0.0,0.0,0.0,0.0,0.0,0.0,0.0,0.0,0.0,0.0,0.0,0.0,0.0,0.0,0.0,0.0,0.0,0.0,0.0,0.0,0.0,0.0,0.0,0.0,0.0,0.0,0.0,0.0,0.0,0.0,0.0,0.0,0.0,0.0,0.0,0.0,0.0,0.0,0.0,0.0,0.0,0.0,0.0,0.0,1.8637,1.9871,2.0847,2.1529,2.0855,2.0721,0.0,0.0,0.0,0.0,0.0,0.0,0.0,0.0,0.0,0.0,0.0,0.0,0.0,0.0,0.0,0.0,0.0,0.0,0.0,0.0,0.0,0.0,0.0,0.0,0.0,0.0,0.0,0.0,0.0,0.0,0.0,0.0,0.0,0.0,0.0,0.0,0.0,0.0,0.0,0.0,0.0,0.0,0.0,0.0,0.0,0.0,0.0,0.0,0.0,0.0,0.0,0.0,0.0,0.0,0.0,0.0,0.0,0.0,0.0,0.0,0.0,0.0,0.0,0.0,0.0,0.0,0.0,0.0,0.0,0.0,0.0,0.0,0.0,0.0,0.0,0.0,0.0,0.0,0.0,0.0,0.0,0.0,0.0,0.0,0.0,0.0,0.0,0.0,0.0,0.0,0.0,0.0,0.0,0.0,0.0,0.0,0.0,0.0,0.0,0.0,0.0,0.0,0.0,0.0,0.0,0.0,0.0,0.0,0.0,1.9561,2.0791,2.1559,2.1769,2.1392,2.1199,0.0,0.0,0.0,0.0,0.0,0.0,0.0,0.0,0.0,0.0,0.0,0.0,0.0,0.0,0.0,0.0,0.0,0.0,0.0,0.0,0.0,0.0,0.0,0.0,0.0,0.0,0.0,0.0,0.0,0.0,0.0,0.0,0.0,0.0,0.0,0.0,0.0,0.0,0.0,0.0,0.0,0.0,0.0,0.0,0.0,0.0,0.0,0.0,0.0,0.0,0.0,0.0,0.0,0.0,0.0,0.0,0.0,0.0,0.0,0.0,0.0,0.0,0.0,0.0,0.0,0.0,0.0,0.0,0.0,0.0,0.0,0.0,0.0,0.0,0.0,0.0,0.0,0.0,0.0,0.0,0.0,0.0,0.0,0.0,0.0,0.0,0.0,0.0,0.0,0.0,0.0,0.0,0.0,0.0,0.0,0.0,0.0,0.0,0.0,0.0,0.0,0.0,0.0,0.0,0.0,0.0,0.0,0.0,1.8995,2.0815,2.1624,2.1963,2.1869,2.2048,2.1903,0.0,0.0,0.0,0.0,0.0,0.0,0.0,0.0,0.0,0.0,0.0,0.0,0.0,0.0,0.0,0.0,0.0,0.0,0.0,0.0,0.0,0.0,0.0,0.0,0.0,0.0,0.0,0.0,0.0,0.0,0.0,0.0,0.0,0.0,0.0,0.0,0.0,0.0,0.0,0.0,0.0,0.0,0.0,0.0,0.0,0.0,0.0,0.0,0.0,0.0,0.0,0.0,0.0,0.0,0.0,0.0,0.0,0.0,0.0,0.0,0.0,0.0,0.0,0.0,0.0,0.0,0.0,0.0,0.0,0.0,0.0,0.0,0.0,0.0,0.0,0.0,0.0,0.0,0.0,0.0,0.0,0.0,0.0,0.0,0.0,0.0,0.0,0.0,0.0,0.0,0.0,0.0,0.0,0.0,0.0,0.0,0.0,0.0,0.0,0.0,0.0,0.0,0.0,0.0,0.0,0.0,0.0,0.0,0.0,2.1802,2.3011,2.3588,2.3406,2.3264,2.2879,0.0,0.0,0.0,0.0,0.0,0.0,0.0,0.0,0.0,0.0,0.0,0.0,0.0,0.0,0.0,0.0,0.0,0.0,0.0,0.0,0.0,0.0,0.0,0.0,0.0,0.0,0.0,0.0,0.0,0.0,0.0,0.0,0.0,0.0,0.0,0.0,0.0,0.0,0.0,0.0,0.0,0.0,0.0,0.0,0.0,0.0,0.0,0.0,0.0,0.0,0.0,0.0,0.0,0.0,0.0,0.0,0.0,0.0,0.0,0.0,0.0,0.0,0.0,0.0,0.0,0.0,0.0,0.0,0.0,0.0,0.0,0.0,0.0,0.0,0.0,0.0,0.0,0.0,0.0,0.0,0.0,0.0,0.0,0.0,0.0,0.0,0.0,0.0,0.0,0.0,0.0,0.0,0.0,0.0,0.0,0.0,0.0,0.0,0.0,0.0,0.0,0.0,0.0,0.0,0.0,0.0,0.0,0.0,0.0,2.3553,2.4408,2.4761,2.4518,2.4513,2.4093,2.3202,0.0,0.0,0.0,0.0,0.0,0.0,0.0,0.0,0.0,0.0,0.0,0.0,0.0,0.0,0.0,0.0,0.0,0.0,0.0,0.0,0.0,0.0,0.0,0.0,0.0,0.0,0.0,0.0,0.0,0.0,0.0,0.0,0.0,0.0,0.0,0.0,0.0,0.0,0.0,0.0,0.0,0.0,0.0,0.0,0.0,0.0,0.0,0.0,0.0,0.0,0.0,0.0,0.0,0.0,0.0,0.0,0.0,0.0,0.0,0.0,0.0,0.0,0.0,0.0,0.0,0.0,0.0,0.0,0.0,0.0,0.0,0.0,0.0,0.0,0.0,0.0,0.0,0.0,0.0,0.0,0.0,0.0,0.0,0.0,0.0,0.0,0.0,0.0,0.0,0.0,0.0,0.0,0.0,0.0,0.0,0.0,0.0,0.0,0.0,0.0,0.0,0.0,0.0,0.0,0.0,0.0,0.0,0.0,2.5839,2.5758,2.5632,2.536,2.5808,2.5477,0.0,0.0,0.0,0.0,0.0,0.0,0.0,0.0,0.0,0.0,0.0,0.0,0.0,0.0,0.0,0.0,0.0,0.0,0.0,0.0,0.0,0.0,0.0,0.0,0.0,0.0,0.0,0.0,0.0,0.0,0.0,0.0,0.0,0.0,0.0,0.0,0.0,0.0,0.0,0.0,0.0,0.0,0.0,0.0,0.0,0.0,0.0,0.0,0.0,0.0,0.0,0.0,0.0,0.0,0.0,0.0,0.0,0.0,0.0,0.0,0.0,0.0,0.0,0.0,0.0,0.0,0.0,0.0,0.0,0.0,0.0,0.0,0.0,0.0,0.0,0.0,0.0,0.0,0.0,0.0,0.0,0.0,0.0,0.0,0.0,0.0,0.0,0.0,0.0,0.0,0.0,0.0,0.0,0.0,0.0,0.0,0.0,0.0,0.0,0.0,0.0,0.0,0.0,0.0,0.0,0.0,0.0,0.0,0.0,2.6812,2.7647,2.7846,2.7281,2.7326,2.6733,0.0,0.0,0.0,0.0,0.0,0.0,0.0,0.0,0.0,0.0,0.0,0.0,0.0,0.0,0.0,0.0,0.0,0.0,0.0,0.0,0.0,0.0,0.0,0.0,0.0,0.0,0.0,0.0,0.0,0.0,0.0,0.0,0.0,0.0,0.0,0.0,0.0,0.0,0.0,0.0,0.0,0.0,0.0,0.0,0.0,0.0,0.0,0.0,0.0,0.0,0.0,0.0,0.0,0.0,0.0,0.0,0.0,0.0,0.0,0.0,0.0,0.0,0.0,0.0,0.0,0.0,0.0,0.0,0.0,0.0,0.0,0.0,0.0,0.0,0.0,0.0,0.0,0.0,0.0,0.0,0.0,0.0,0.0,0.0,0.0,0.0,0.0,0.0,0.0,0.0,0.0,0.0,0.0,0.0,0.0,0.0,0.0,0.0,0.0,0.0,0.0,0.0,0.0,0.0,0.0,0.0,0.0,0.0,2.6685,2.7904,2.914,2.9686,2.9519,2.8787,2.7813,0.0,0.0,0.0,0.0,0.0,0.0,0.0,0.0,0.0,0.0,0.0,0.0,0.0,0.0,0.0,0.0,0.0,0.0,0.0,0.0,0.0,0.0,0.0,0.0,0.0,0.0,0.0,0.0,0.0,0.0,0.0,0.0,0.0,0.0,0.0,0.0,0.0,0.0,0.0,0.0,0.0,0.0,0.0,0.0,0.0,0.0,0.0,0.0,0.0,0.0,0.0,0.0,0.0,0.0,0.0,0.0,0.0,0.0,0.0,0.0,0.0,0.0,0.0,0.0,0.0,0.0,0.0,0.0,0.0,0.0,0.0,0.0,0.0,0.0,0.0,0.0,0.0,0.0,0.0,0.0,0.0,0.0,0.0,0.0,0.0,0.0,0.0,0.0,0.0,0.0,0.0,0.0,0.0,0.0,0.0,0.0,0.0,0.0,0.0,0.0,0.0,0.0,0.0,0.0,0.0,0.0,0.0,0.0,2.7381,2.8973,3.0254,3.12,3.1699,3.0097,2.882,0.0,0.0,0.0,0.0,0.0,0.0,0.0,0.0,0.0,0.0,0.0,0.0,0.0,0.0,0.0,0.0,0.0,0.0,0.0,0.0,0.0,0.0,0.0,0.0,0.0,0.0,0.0,0.0,0.0,0.0,0.0,0.0,0.0,0.0,0.0,0.0,0.0,0.0,0.0,0.0,0.0,0.0,0.0,0.0,0.0,0.0,0.0,0.0,0.0,0.0,0.0,0.0,0.0,0.0,0.0,0.0,0.0,0.0,0.0,0.0,0.0,0.0,0.0,0.0,0.0,0.0,0.0,0.0,0.0,0.0,0.0,0.0,0.0,0.0,0.0,0.0,0.0,0.0,0.0,0.0,0.0,0.0,0.0,0.0,0.0,0.0,0.0,0.0,0.0,0.0,0.0,0.0,0.0,0.0,0.0,0.0,0.0,0.0,0.0,0.0,0.0,0.0,0.0,0.0,0.0,0.0,0.0,0.0,2.8603,2.9808,3.1021,3.1853,3.2213,3.1312,3.0388,0.0,0.0,0.0,0.0,0.0,0.0,0.0,0.0,0.0,0.0,0.0,0.0,0.0,0.0,0.0,0.0,0.0,0.0,0.0,0.0,0.0,0.0,0.0,0.0,0.0,0.0,0.0,0.0,0.0,0.0,0.0,0.0,0.0,0.0,0.0,0.0,0.0,0.0,0.0,0.0,0.0,0.0,0.0,0.0,0.0,0.0,0.0,0.0,2.8959,0.0,0.0,0.0,0.0,0.0,0.0,0.0,0.0,0.0,0.0,0.0,0.0,0.0,0.0,0.0,0.0,0.0,0.0,0.0,0.0,0.0,0.0,0.0,0.0,0.0,0.0,0.0,0.0,0.0,0.0,0.0,0.0,0.0,0.0,0.0,0.0,0.0,0.0,0.0,0.0,0.0,0.0,0.0,0.0,0.0,0.0,0.0,0.0,0.0,0.0,0.0,0.0,0.0,0.0,0.0,0.0,0.0,0.0,0.0,2.9518,3.0811,3.1823,3.2657,3.3293,3.2458,3.14,0.0,0.0,0.0,0.0,0.0,0.0,0.0,0.0,0.0,0.0,0.0,0.0,0.0,0.0,0.0,0.0,0.0,0.0,0.0,0.0,0.0,0.0,0.0,0.0,0.0,0.0,0.0,0.0,0.0,0.0,0.0,0.0,0.0,0.0,0.0,0.0,0.0,0.0,0.0,0.0,0.0,0.0,0.0,0.0,0.0,0.0,0.0,0.0,0.0,0.0,0.0,0.0,0.0,0.0,0.0,0.0,0.0,0.0,0.0,0.0,0.0,0.0,0.0,0.0,0.0,0.0,0.0,0.0,0.0,0.0,0.0,0.0,0.0,0.0,0.0,0.0,0.0,0.0,0.0,0.0,0.0,0.0,0.0,0.0,0.0,0.0,0.0,0.0,0.0,0.0,0.0,0.0,0.0,0.0,0.0,0.0,0.0,0.0,0.0,0.0,0.0,0.0,0.0,0.0,0.0,0.0,0.0,2.8469,3.0296,3.1805,3.2704,3.3592,3.4453,3.3526,3.2237,3.067,0.0,0.0,0.0,0.0,0.0,0.0,0.0,0.0,0.0,0.0,0.0,0.0,0.0,0.0,0.0,0.0,0.0,0.0,0.0,0.0,0.0,0.0,0.0,0.0,0.0,0.0,0.0,0.0,0.0,0.0,0.0,0.0,0.0,0.0,0.0,0.0,0.0,0.0,2.9853,3.1504,0.0,0.0,0.0,0.0,0.0,0.0,0.0,0.0,3.3094,0.0,0.0,0.0,0.0,0.0,0.0,0.0,0.0,0.0,0.0,0.0,0.0,0.0,0.0,0.0,0.0,0.0,0.0,0.0,0.0,0.0,0.0,0.0,0.0,0.0,0.0,0.0,0.0,0.0,0.0,0.0,0.0,0.0,0.0,0.0,0.0,0.0,0.0,0.0,0.0,0.0,0.0,0.0,0.0,0.0,0.0,0.0,0.0,0.0,0.0,0.0,0.0,0.0,0.0,0.0,0.0,2.7098,2.9212,3.1146,3.2833,3.4106,3.4797,3.4935,3.4215,3.3208,3.2,0.0,0.0,0.0,0.0,0.0,0.0,0.0,0.0,0.0,0.0,0.0,0.0,0.0,0.0,0.0,0.0,0.0,0.0,0.0,0.0,0.0,0.0,0.0,0.0,0.0,0.0,0.0,0.0,0.0,0.0,0.0,0.0,0.0,0.0,0.0,0.0,0.0,0.0,0.0,3.4014,3.5165,0.0,0.0,0.0,0.0,0.0,0.0,0.0,0.0,3.3664,0.0,0.0,0.0,0.0,0.0,0.0,0.0,0.0,0.0,0.0,0.0,0.0,0.0,0.0,0.0,0.0,0.0,0.0,0.0,0.0,0.0,0.0,0.0,0.0,0.0,0.0,0.0,0.0,0.0,0.0,0.0,0.0,0.0,0.0,0.0,0.0,0.0,0.0,0.0,0.0,0.0,0.0,0.0,0.0,0.0,0.0,0.0,0.0,0.0,0.0,0.0,0.0,0.0,0.0,0.0,2.7547,3.0133,3.2224,3.3741,3.4766,3.5426,3.5722,3.4774,3.3655,0.0,0.0,0.0,0.0,0.0,0.0,0.0,0.0,0.0,0.0,0.0,0.0,0.0,0.0,0.0,0.0,0.0,0.0,0.0,0.0,0.0,0.0,0.0,0.0,0.0,0.0,0.0,0.0,0.0,0.0,0.0,0.0,0.0,0.0,0.0,0.0,0.0,0.0,0.0,0.0,3.57,3.6781,3.7458,0.0,0.0,0.0,0.0,0.0,0.0,3.6237,3.5549,0.0,0.0,0.0,0.0,0.0,0.0,0.0,0.0,0.0,0.0,0.0,0.0,0.0,0.0,0.0,0.0,0.0,0.0,0.0,0.0,0.0,0.0,0.0,0.0,0.0,0.0,0.0,0.0,0.0,0.0,0.0,0.0,0.0,0.0,0.0,0.0,0.0,0.0,0.0,0.0,0.0,0.0,0.0,0.0,0.0,0.0,0.0,0.0,0.0,0.0,0.0,0.0,0.0,0.0,0.0,2.8099,3.112,3.3295,3.4585,3.5511,3.6098,3.636,3.5308,3.4099,0.0,0.0,0.0,0.0,0.0,0.0,0.0,0.0,0.0,0.0,0.0,0.0,0.0,0.0,0.0,0.0,0.0,0.0,0.0,0.0,0.0,0.0,0.0,0.0,0.0,0.0,0.0,0.0,0.0,0.0,0.0,0.0,0.0,0.0,0.0,0.0,0.0,0.0,0.0,0.0,0.0,3.8171,3.8882,3.9569,0.0,0.0,0.0,0.0,3.914,3.8542,0.0,0.0,0.0,0.0,0.0,0.0,0.0,0.0,0.0,0.0,0.0,0.0,0.0,0.0,0.0,0.0,0.0,0.0,0.0,0.0,0.0,0.0,0.0,0.0,0.0,0.0,0.0,0.0,0.0,0.0,0.0,0.0,0.0,0.0,0.0,0.0,0.0,0.0,0.0,0.0,0.0,0.0,0.0,0.0,0.0,0.0,0.0,0.0,0.0,0.0,0.0,0.0,0.0,0.0,0.0,0.0,2.9379,3.2129,3.4152,3.5481,3.695,3.7316,3.6435,3.6015,3.4863,0.0,0.0,0.0,0.0,0.0,0.0,0.0,0.0,0.0,0.0,0.0,0.0,0.0,0.0,0.0,0.0,0.0,0.0,0.0,0.0,0.0,0.0,0.0,0.0,0.0,0.0,0.0,0.0,0.0,0.0,0.0,0.0,0.0,0.0,0.0,0.0,0.0,0.0,0.0,0.0,0.0,3.9587,4.1415,4.1867,4.2222,0.0,0.0,4.2432,4.1235,4.0965,0.0,0.0,0.0,0.0,0.0,0.0,0.0,0.0,0.0,0.0,0.0,0.0,0.0,0.0,0.0,0.0,0.0,0.0,0.0,0.0,0.0,0.0,0.0,0.0,0.0,0.0,0.0,0.0,0.0,0.0,0.0,0.0,0.0,0.0,0.0,0.0,0.0,0.0,0.0,0.0,0.0,0.0,0.0,0.0,0.0,0.0,0.0,0.0,0.0,0.0,0.0,0.0,0.0,0.0,0.0,2.8163,3.0676,3.3234,3.5178,3.6502,3.7498,3.7702,3.7092,3.638,3.503,0.0,0.0,0.0,0.0,0.0,0.0,0.0,0.0,0.0,0.0,0.0,0.0,0.0,0.0,0.0,0.0,0.0,0.0,0.0,0.0,0.0,0.0,0.0,0.0,0.0,0.0,0.0,0.0,0.0,0.0,0.0,0.0,0.0,0.0,0.0,0.0,0.0,0.0,0.0,0.0,0.0,0.0,4.3111,4.4097,0.0,0.0,0.0,4.5125,4.3808,0.0,0.0,0.0,0.0,0.0,0.0,0.0,0.0,0.0,0.0,0.0,0.0,0.0,0.0,0.0,0.0,0.0,0.0,0.0,0.0,0.0,0.0,0.0,0.0,0.0,0.0,0.0,0.0,0.0,0.0,0.0,0.0,0.0,0.0,0.0,0.0,0.0,0.0,0.0,0.0,0.0,0.0,0.0,0.0,0.0,0.0,0.0,0.0,0.0,0.0,0.0,0.0,0.0,0.0,0.0,0.0,0.0,3.1844,3.428,3.6105,3.7372,3.7992,3.8167,3.7816,3.6822,0.0,0.0,0.0,0.0,0.0,0.0,0.0,0.0,0.0,0.0,0.0,0.0,0.0,0.0,0.0,0.0,0.0,0.0,0.0,0.0,0.0,0.0,0.0,0.0,0.0,0.0,0.0,2.395,0.0,0.0,0.0,0.0,0.0,0.0,0.0,0.0,0.0,0.0,0.0,0.0,0.0,0.0,4.323,4.4814,4.6202,4.7279,0.0,0.0,4.7638,4.6471,4.5992,4.5076,0.0,0.0,0.0,0.0,0.0,0.0,0.0,0.0,0.0,0.0,0.0,0.0,0.0,0.0,0.0,0.0,0.0,0.0,0.0,0.0,0.0,0.0,0.0,0.0,0.0,0.0,0.0,0.0,0.0,0.0,0.0,0.0,0.0,0.0,0.0,0.0,0.0,0.0,0.0,0.0,0.0,0.0,0.0,0.0,0.0,0.0,0.0,0.0,0.0,0.0,0.0,0.0,0.0,0.0,3.0422,3.288,3.5144,3.684,3.793,3.8764,3.8933,3.8363,3.7566,3.6332,0.0,0.0,0.0,0.0,0.0,0.0,0.0,0.0,0.0,0.0,0.0,0.0,0.0,0.0,0.0,0.0,0.0,0.0,0.0,0.0,0.0,0.0,0.0,0.0,0.0,0.0,0.0,0.0,0.0,0.0,0.0,0.0,0.0,0.0,0.0,0.0,0.0,0.0,0.0,0.0,0.0,4.4885,4.683,4.8237,4.9314,0.0,4.9986,4.9747,4.9149,4.7967,4.6766,4.5593,0.0,0.0,0.0,0.0,0.0,0.0,0.0,0.0,0.0,0.0,0.0,0.0,0.0,0.0,0.0,0.0,0.0,0.0,0.0,0.0,0.0,0.0,0.0,0.0,0.0,0.0,0.0,0.0,0.0,0.0,0.0,0.0,0.0,0.0,0.0,0.0,0.0,0.0,0.0,0.0,0.0,0.0,0.0,0.0,0.0,0.0,0.0,0.0,0.0,0.0,0.0,0.0,0.0,3.1473,3.4149,3.5961,3.7651,3.9206,3.9597,3.9611,3.9217,3.8216,3.691,0.0,0.0,0.0,0.0,0.0,0.0,0.0,0.0,0.0,0.0,0.0,0.0,0.0,0.0,0.0,0.0,0.0,0.0,0.0,0.0,0.0,0.0,0.0,0.0,0.0,0.0,0.0,0.0,2.7593,2.8168,2.8876,0.0,0.0,0.0,0.0,0.0,0.0,0.0,0.0,0.0,0.0,4.5783,4.8177,4.9643,0.0,0.0,5.2037,5.1828,5.1169,5.0439,4.9524,4.8317,4.675,0.0,0.0,0.0,0.0,0.0,0.0,0.0,0.0,0.0,0.0,0.0,0.0,0.0,0.0,0.0,0.0,0.0,0.0,0.0,0.0,0.0,0.0,0.0,0.0,0.0,0.0,0.0,2.3444,0.0,0.0,0.0,0.0,0.0,0.0,0.0,0.0,0.0,0.0,0.0,0.0,0.0,0.0,0.0,0.0,0.0,0.0,0.0,0.0,0.0,0.0,0.0,0.0,3.2412,3.509,3.6726,3.8382,4.0053,4.0333,4.029,3.9948,3.9019,3.7739,3.6034,0.0,0.0,0.0,0.0,0.0,0.0,0.0,0.0,0.0,0.0,0.0,0.0,0.0,0.0,0.0,0.0,0.0,0.0,0.0,0.0,0.0,0.0,0.0,0.0,0.0,0.0,0.0,2.8822,2.9349,2.9717,0.0,0.0,0.0,0.0,0.0,0.0,0.0,0.0,0.0,0.0,4.7309,4.9523,5.1139,5.2426,5.3354,5.3503,5.3324,5.2875,5.2304,5.1618,5.0759,0.0,0.0,0.0,0.0,0.0,0.0,0.0,0.0,0.0,0.0,0.0,0.0,0.0,0.0,0.0,0.0,0.0,0.0,0.0,0.0,0.0,0.0,0.0,0.0,0.0,0.0,0.0,2.5815,0.0,0.0,2.4575,0.0,0.0,0.0,0.0,0.0,0.0,0.0,0.0,0.0,0.0,0.0,0.0,0.0,0.0,0.0,0.0,0.0,0.0,0.0,0.0,0.0,0.0,3.3207,3.5548,3.7518,3.9036,4.0106,4.0868,4.1025,4.0526,3.9948,3.8868,3.7136,0.0,0.0,0.0,0.0,0.0,0.0,0.0,0.0,0.0,0.0,0.0,0.0,0.0,0.0,0.0,0.0,0.0,0.0,0.0,0.0,0.0,0.0,0.0,0.0,0.0,0.0,2.9808,3.106,3.1692,0.0,0.0,0.0,0.0,0.0,0.0,0.0,0.0,0.0,4.3928,4.71,4.9673,5.102,5.2875,5.4132,5.4192,5.4221,5.4221,5.4192,5.3327,5.2661,0.0,0.0,0.0,0.0,0.0,0.0,0.0,0.0,0.0,0.0,0.0,0.0,0.0,0.0,0.0,0.0,0.0,0.0,0.0,0.0,0.0,0.0,0.0,0.0,0.0,0.0,0.0,2.8519,2.8335,0.0,0.0,0.0,0.0,0.0,0.0,0.0,0.0,0.0,0.0,0.0,3.346,3.3199,0.0,0.0,0.0,0.0,0.0,0.0,0.0,0.0,0.0,0.0,0.0,0.0,3.4548,3.6476,3.8316,3.9844,4.0868,4.1551,4.1781,4.1605,4.0727,3.8944,3.6135,0.0,0.0,0.0,0.0,0.0,0.0,0.0,0.0,0.0,0.0,0.0,0.0,0.0,0.0,0.0,0.0,0.0,0.0,0.0,0.0,0.0,0.0,0.0,0.0,0.0,3.0987,0.0,0.0,0.0,0.0,0.0,0.0,0.0,0.0,0.0,0.0,4.0606,4.3359,4.5963,4.8386,5.0541,5.2276,5.3862,5.4999,0.0,0.0,0.0,0.0,0.0,0.0,0.0,0.0,0.0,0.0,0.0,0.0,0.0,5.477,5.3052,5.0723,5.048,5.0486,5.0175,0.0,0.0,0.0,0.0,0.0,0.0,0.0,0.0,0.0,0.0,0.0,0.0,0.0,0.0,3.1298,3.1247,3.0854,0.0,0.0,0.0,0.0,0.0,0.0,0.0,0.0,3.5389,3.632,3.6849,3.6422,3.6535,3.704,3.6422,3.5042,0.0,0.0,0.0,0.0,0.0,0.0,0.0,0.0,3.5712,3.7267,3.9094,4.0526,4.158,4.2213,4.2414,4.2187,4.1103,3.932,3.6737,3.5805,3.4449,0.0,0.0,0.0,0.0,0.0,0.0,0.0,0.0,0.0,0.0,0.0,0.0,0.0,0.0,0.0,0.0,0.0,0.0,0.0,0.0,0.0,0.0,0.0,3.3073,0.0,0.0,0.0,0.0,0.0,0.0,0.0,0.0,0.0,4.0748,4.291,4.5364,4.7967,4.9823,5.1648,5.3593,0.0,0.0,0.0,0.0,0.0,0.0,0.0,5.6627,5.6596,5.6378,5.662,5.7832,5.8505,5.9198,5.9946,0.0,0.0,5.558,5.5037,5.5037,5.4659,5.4751,5.5089,5.5727,5.6015,5.6417,0.0,0.0,0.0,0.0,3.4098,0.0,0.0,0.0,3.4601,3.4669,0.0,3.4106,0.0,0.0,0.0,0.0,3.3868,3.629,0.0,0.0,3.8874,3.9833,4.0377,3.9833,3.986,4.0377,3.9582,3.9123,3.8872,3.5373,3.3649,0.0,0.0,0.0,0.0,0.0,3.6716,3.8065,3.9722,4.1103,4.2162,4.274,4.2766,4.2213,4.1128,4.0049,3.8919,3.7362,3.5956,3.4781,3.2692,0.0,0.0,0.0,0.0,0.0,0.0,0.0,0.0,0.0,0.0,0.0,0.0,0.0,0.0,0.0,0.0,0.0,0.0,0.0,0.0,3.4312,0.0,0.0,0.0,0.0,0.0,0.0,0.0,0.0,0.0,4.3409,4.3559,4.5233,4.7355,4.9897,0.0,0.0,0.0,0.0,5.6487,5.7034,5.7154,5.7184,5.7184,5.7652,5.7982,5.7982,0.0,0.0,6.1886,6.188,6.2266,6.4368,6.4604,6.3469,5.9413,5.8983,5.9088,5.8929,5.9459,6.006,5.9943,6.0329,6.0819,4.0431,0.0,0.0,0.0,0.0,3.8103,3.8276,3.8421,3.832,3.826,3.8233,3.7509,0.0,0.0,0.0,0.0,0.0,0.0,4.0677,4.1195,4.1824,4.2648,4.3618,4.2849,4.2783,4.3333,4.2681,4.2172,4.1714,4.0237,3.8584,3.6746,0.0,0.0,0.0,0.0,3.8689,3.9525,4.0933,4.1886,4.2213,4.274,4.271,4.2213,4.1911,4.1153,4.0074,3.8818,3.7638,3.6508,3.4751,0.0,0.0,0.0,0.0,0.0,0.0,0.0,0.0,0.0,0.0,0.0,0.0,0.0,0.0,0.0,0.0,0.0,0.0,0.0,3.6432,3.7121,3.7682,0.0,0.0,0.0,0.0,0.0,0.0,0.0,0.0,0.0,4.7953,4.8701,4.9717,0.0,0.0,5.4192,5.5688,5.6436,5.7064,5.7723,5.8231,0.0,5.853,5.846,5.842,5.8629,6.0124,6.1739,6.2879,6.3998,6.498,6.564,6.6148,6.6015,6.4976,6.3911,6.324,6.288,6.27,6.265,6.2876,6.3083,6.3264,4.4472,4.2583,4.1131,4.058,4.0686,4.0847,4.0979,4.1084,4.0979,4.0891,4.0863,4.0371,4.0051,3.9846,3.9994,0.0,0.0,0.0,4.3636,4.405,4.4424,4.4987,4.5585,4.4864,4.4699,4.5031,4.4505,4.4096,4.3775,4.3324,4.2205,4.0415,0.0,3.8569,3.8984,3.9724,4.0312,4.0768,4.1692,4.2313,4.2539,4.2866,4.2866,4.2564,4.2539,4.2137,4.1364,4.0482,3.9575,3.8513,3.6915,3.5345,0.0,0.0,0.0,0.0,0.0,0.0,0.0,0.0,0.0,0.0,0.0,2.8412,2.9309,0.0,0.0,0.0,3.5682,3.7978,3.9896,4.0167,0.0,0.0,0.0,0.0,0.0,0.0,0.0,4.6561,4.7459,4.8641,5.075,5.1498,5.2049,5.2905,5.3922,5.5089,5.6346,0.0,5.7752,5.8411,5.9069,5.9488,5.9488,5.9585,5.9871,6.035,6.1443,6.2714,6.3866,6.5084,6.6038,6.6644,6.7232,6.7668,6.7859,6.7199,6.6363,6.5578,6.5398,6.5432,6.5454,6.5603,6.5772,4.7528,4.7221,4.4328,4.3048,4.3048,4.3048,4.3093,4.3093,4.3048,4.3048,4.3048,4.3003,4.2737,4.2273,4.306,0.0,4.4662,4.5763,4.626,4.6357,4.6718,4.6886,4.6923,4.6364,4.6089,4.6039,4.5618,4.5445,4.5395,4.5037,4.4756,4.442,4.2289,4.1048,4.0772,4.1183,4.1615,4.1963,4.2225,4.2615,4.3087,4.3062,4.3037,4.3092,4.3042,4.2902,4.2696,4.2192,4.151,4.0645,3.9105,3.7715,3.6585,0.0,0.0,0.0,0.0,0.0,0.0,0.0,0.0,0.0,0.0,0.0,0.0,0.0,0.0,3.5849,3.8707,0.0,4.2994,4.3286,0.0,0.0,0.0,4.4097,4.5394,4.5574,4.6591,4.9179,0.0,0.0,5.2217,5.3473,5.4311,5.4371,5.488,5.5718,5.7004,5.7693,5.8381,5.9069,5.9668,6.0086,6.0176,6.0842,6.1558,6.2357,6.2779,6.337,6.4652,6.5314,6.6119,6.735,6.7917,6.8301,6.8912,6.8912,6.865,6.7391,6.7638,6.7981,6.7599,6.7767,6.7943,4.8547,4.8236,4.7483,4.7036,4.6899,4.6899,4.6991,4.7128,4.6991,4.6899,4.6824,4.6639,4.6599,4.6666,4.6858,4.7078,4.7299,4.7573,4.7978,4.8517,4.8444,4.8666,4.9113,4.875,4.8489,4.8332,4.8174,4.8016,4.7804,4.7075,4.6541,4.6222,4.5289,4.4098,4.2808,4.2655,4.2846,4.3355,4.3417,4.3689,4.4192,4.3815,4.3727,4.401,4.3523,4.3411,4.3585,4.3022,4.249,4.2086,4.0923,3.9806,3.895,3.7284,0.0,0.0,0.0,0.0,0.0,0.0,0.0,0.0,0.0,3.3753,3.4149,0.0,3.8685,0.0,4.1836,4.4293,4.5878,4.604,0.0,0.0,4.6309,4.6681,4.7489,4.8071,4.9,5.0571,5.1349,5.2247,5.3563,5.4461,5.5149,5.5628,5.5837,5.6406,5.7663,5.7992,5.853,5.9578,5.9997,6.0266,6.0805,6.1232,6.1755,6.2461,6.2964,6.3647,6.4707,6.5289,6.5941,6.6712,6.7265,6.7939,6.9015,6.9364,6.9545,6.9441,6.902,6.8692,6.8713,6.8697,6.8545,4.964,4.9457,4.966,4.966,4.9461,4.8715,4.8479,4.8571,4.8404,4.8387,4.8387,4.8219,4.8541,4.921,4.9098,4.9373,4.9882,4.964,4.9675,4.9889,4.9535,4.939,4.9509,4.9083,4.8761,4.8491,4.8328,4.8219,4.8028,4.7568,4.7243,4.7052,4.6476,4.5726,4.4833,4.4387,4.4254,4.4393,4.4244,4.4317,4.4593,4.4432,4.4453,4.4624,4.4347,4.4344,4.4646,4.424,4.3937,4.3756,4.2886,4.2034,4.1133,3.9807,3.8827,0.0,0.0,0.0,0.0,0.0,0.0,0.0,0.0,0.0,0.0,0.0,4.2266,4.3906,4.5575,4.7184,4.87,4.8894,4.891,4.9045,4.9045,4.9314,4.9942,5.0361,5.1079,5.2396,5.2875,5.3593,5.488,5.5388,5.5987,5.6915,5.7034,5.7304,5.7992,5.8351,5.8919,5.9907,6.0356,6.0894,6.1822,6.2085,6.2345,6.2845,6.3248,6.3706,6.4351,6.5214,6.595,6.6416,6.7281,6.8181,6.9037,6.9394,6.9776,7.0167,6.9766,6.9297,6.9355,6.9182,6.8913,5.0659,5.0666,5.1066,5.1195,5.0999,4.9495,4.8883,4.8946,4.8929,4.8959,4.9018,4.9094,4.9698,5.0773,5.0562,5.0984,5.1887,5.1461,5.1081,5.0673,5.0178,4.9677,4.9115,4.8545,4.8134,4.7831,4.7553,4.7413,4.7386,4.7386,4.733,4.733,4.6769,4.6486,4.643,4.6,4.5572,4.515,4.4911,4.4844,4.4844,4.5059,4.5265,4.5298,4.533,4.5523,4.5829,4.5602,4.5422,4.5466,4.487,4.4184,4.3421,4.2343,4.1469,0.0,4.0177,0.0,0.0,0.0,0.0,0.0,0.0,0.0,0.0,4.2976,4.5947,4.9086,4.934,4.9892,5.1302,5.1468,5.1468,5.1468,5.1468,5.1708,5.2247,5.2396,5.2905,5.4072,5.4281,5.482,5.5927,5.6278,5.6765,5.7812,5.8141,5.8201,5.8321,5.883,5.9488,6.0116,6.0864,6.1822,6.272,6.3077,6.3104,6.3337,6.3421,6.3626,6.4031,6.4967,6.5847,6.6363,6.7402,6.8413,6.892,6.9253,6.9723,7.0394,7.0085,6.9754,6.9706,6.9464,6.924,5.1344,5.1238,5.1335,5.1087,5.0614,5.0283,5.0354,5.07,5.07,5.0999,5.1523,5.1553,5.1858,5.2377,5.2279,5.2082,5.1664,5.1563,5.1259,5.0798,5.0477,5.016,4.9769,4.9206,4.8752,4.8409,4.8148,4.8032,4.8032,4.7716,4.76,4.76,4.7224,4.6982,4.6713,0.0,0.0,0.0,4.5773,4.5974,4.5974,4.5843,4.5999,4.6437,4.6321,0.0,4.7319,4.6866,4.6786,4.7235,4.6253,0.0,4.6023,0.0,0.0,0.0,0.0,0.0,0.0,0.0,0.0,0.0,4.4602,4.4775,4.347,4.6124,4.8981,5.1314,5.1601,5.19,5.2725,5.2815,5.2815,5.2815,5.2815,5.2845,5.2995,5.3473,5.3952,5.4162,5.467,5.5299,5.6077,5.6585,5.7214,5.8022,5.859,5.889,5.8919,5.9458,6.0116,6.0835,6.1852,6.272,6.3019,6.3137,6.3137,6.3194,6.3194,6.3519,6.4201,6.4616,6.5322,6.6379,6.6936,6.7697,6.8893,6.9241,6.9485,7.021,7.0255,7.0199,7.0143,6.9552,6.883,5.1562,5.152,5.1817,5.1611,0.0,5.1219,5.1239,5.1307,5.1302,5.1684,5.2307,5.2307,5.2566,5.3089,5.2939,5.2762,5.2491,5.2076,5.1509,5.082,5.0409,4.9824,4.9098,4.8811,4.8379,4.7912,4.7795,4.7703,4.7703,4.756,4.7442,4.7442,4.7172,4.6959,4.6806,4.6626,4.6355,4.5899,4.6175,4.6361,4.6541,4.6561,4.6854,4.7438,4.7407,0.0,0.0,0.0,0.0,0.0,0.0,0.0,0.0,4.7186,4.6712,4.6262,4.5559,4.5201,4.5201,4.5384,4.5611,4.5866,4.7595,4.8353,4.7446,4.9351,5.1434,5.3443,5.3683,5.3952,5.4581,5.467,5.4521,5.4221,5.4192,5.4162,5.4192,5.4461,5.47,5.476,5.5269,5.5927,5.6555,5.7184,5.7842,5.8501,5.889,5.9219,5.9548,5.9877,6.0416,6.1433,6.2391,6.3107,6.3137,6.3137,6.3137,6.3166,6.3318,6.3706,6.4122,6.4928,6.5765,6.6567,6.7249,6.817,6.882,6.9288,6.9609,6.9896,6.9818,6.9646,6.9588,6.9123,6.8476,5.1619,5.1584,5.2092,5.2004,5.1577,5.1577,5.1512,5.1395,5.1432,0.0,0.0,5.2544,5.2897,5.3414,5.3158,5.314,5.3184,5.2383,5.1568,5.0739,5.0066,4.9213,4.823,4.8023,4.7645,4.7146,4.7087,4.7027,4.7027,4.7027,4.7027,4.7027,4.684,4.6746,4.6686,4.6446,4.6326,4.6326,4.6326,4.6421,4.6686,4.7053,4.7501,4.8172,4.8303,4.8718,4.9388,4.9091,4.9195,4.973,4.9911,4.9639,4.8906,4.9023,4.8717,4.7844,4.776,4.7817,4.7846,4.8085,4.8333,4.8545,5.0055,5.1117,5.1435,5.227,5.3473,5.5209,5.5448,5.5748,5.6286,5.6226,5.5957,5.5418,5.5269,5.5179,5.5179,5.5209,5.5149,5.5269,5.5718,5.6406,5.7004,5.7663,5.8381,5.8949,5.9069,5.9428,6.0086,6.0416,6.0984,6.2091,6.275,6.3137,6.3137,6.3137,6.3137,6.3166,6.3588,6.4036,6.4394,6.5411,6.6372,6.6703,6.7844,6.8472,6.8741,6.9062,6.9441,6.9441,6.9123,6.8713,6.8654,6.8417,6.8059,5.1601,5.1384,5.1647,5.1332,5.0531,5.0531,5.0687,5.0954,5.157,5.2193,5.2858,5.3141,5.3341,5.3489,5.3437,5.2939,5.2059,5.1595,5.0989,5.0066,4.9213,4.8579,4.8198,4.7375,4.6985,4.6866,4.6541,4.6421,4.6421,4.6421,4.6421,4.6421,4.6361,4.6361,4.6361,4.6301,4.6326,4.6326,4.6326,4.6301,4.6361,4.6934,4.7501,4.8172,4.8673,4.9505,5.0602,5.0078,5.0101,5.0665,5.0241,5.0033,5.0124,5.0148,5.0195,5.028,4.9738,4.9474,4.9474,4.9753,5.0332,5.1333,5.2414,5.3177,5.3704,5.4401,5.5119,5.5987,5.6496,5.6855,5.6944,5.6496,5.6188,5.5987,5.5508,5.5209,5.5209,5.5209,5.5209,5.5269,5.5777,5.6487,5.7094,5.7752,5.8411,5.8949,5.9249,5.9608,6.0715,6.1463,6.2091,6.275,6.3019,6.3137,6.3137,6.3137,6.3137,6.3137,6.3617,6.4246,6.4725,6.5563,6.6402,6.7155,6.7578,6.7819,6.809,6.8209,6.8358,6.8358,6.8238,6.809,6.785,6.7729,6.7638,5.1236,5.1148,5.1581,5.1412,5.0836,5.0539,5.038,5.0436,5.1082,5.1803,5.2512,5.2856,5.303,5.3025,5.2865,5.2329,5.154,5.1017,5.0237,4.927,4.8637,4.8081,4.7434,4.6959,4.6686,4.6481,4.6361,4.6326,4.6326,4.6326,4.6326,4.6326,4.6326,4.6326,4.6326,4.6326,4.6326,4.6326,4.6326,4.6386,4.6541,4.6993,4.7501,4.8198,4.8779,4.9499,5.0404,5.0325,5.0464,5.0876,5.0788,5.0642,5.0413,5.0544,5.0509,5.0303,4.9992,4.9823,4.9823,5.0081,5.0851,5.218,5.2705,5.348,5.47,5.5078,5.5523,5.6228,5.6958,5.7302,5.6944,5.6751,5.6406,5.5688,5.5359,5.5209,5.5209,5.5209,5.5329,5.5688,5.6286,5.6915,5.7573,5.8231,5.874,5.9099,5.9638,6.0535,6.1493,6.2211,6.272,6.3019,6.3137,6.3137,6.3137,6.3137,6.3137,6.3137,6.3917,6.4575,6.5054,6.5802,6.6641,6.7153,6.7365,6.7548,6.7729,6.791,6.797,6.797,6.785,6.7669,6.7578,6.7606,6.7754,5.0628,5.0683,5.1183,5.1238,5.0906,5.0404,5.001,4.984,5.0404,5.1017,5.1623,5.225,5.2437,5.2329,5.2059,5.1568,5.0962,5.0349,4.9502,4.8579,4.8114,4.7552,4.6866,4.6746,4.6566,4.6326,4.6326,4.6326,4.6326,4.6326,4.6326,4.6326,4.6326,4.6326,4.6326,4.6326,4.6326,4.6326,4.6326,4.6446,4.6686,4.6993,4.7409,4.8055,4.8606,4.9213,4.984,5.015,5.0431,5.0683,5.0906,5.0796,5.0353,5.0515,5.0401,4.9983,4.9927,4.9981,5.0088,5.0354,5.1027,5.2353,5.2515,5.3216,5.4656,5.5031,5.5542,5.6402,5.732,5.7547,5.6983,5.6869,5.6489,5.5466,5.5167,5.5128,5.5209,5.5299,5.5568,5.6188,5.6825,5.7543,5.8082,5.871,5.9159,5.9458,6.0386,6.1313,6.2002,6.266,6.3107,6.3137,6.3137,6.3137,6.3137,6.3137,6.3196,6.3228,6.4246,6.4934,6.5383,6.6251,6.6879,6.706,6.7243,6.7365,6.7396,6.7548,6.7729,6.7669,6.7548,6.7486,6.7636,6.8205,6.8468,4.9727,4.9727,5.0066,5.001,4.9727,4.9412,4.9183,4.9213,4.9556,4.9727,5.001,5.1293,5.1677,5.1403,5.1128,5.0683,5.0123,4.9472,4.8842,4.8172,4.756,4.7112,4.6806,4.6506,4.6301,4.6326,4.6326,4.6326,4.6326,4.6326,4.6326,4.6326,4.6326,4.6326,4.6326,4.6326,4.6326,4.6326,4.6326,4.6301,4.6361,4.6686,4.7138,4.7762,4.8114,4.8695,4.9556,4.9697,4.981,5.0066,5.0123,5.0096,5.0041,5.0014,5.0043,4.9932,4.9988,5.024,5.0713,5.0851,5.1208,5.2082,5.2216,5.2636,5.3675,5.4273,5.5317,5.6694,5.7669,5.7782,5.7306,5.674,5.6166,5.5545,5.5121,5.4955,5.5197,5.5718,5.6158,5.6188,5.7221,5.8052,5.8178,5.8716,5.9368,5.9937,6.0685,6.1463,6.2121,6.266,6.3137,6.3137,6.3137,6.3137,6.3137,6.3137,6.3288,6.3767,6.4515,6.5173,6.5772,6.64,6.6999,6.6999,6.706,6.7121,6.706,6.7091,6.7121,6.7394,6.7362,6.73,6.7899,6.8887,6.9512,4.8463,4.8521,4.8811,4.8753,4.8463,4.8347,4.8172,4.8029,4.8347,4.8463,4.8553,4.9301,5.001,5.0516,5.0235,4.9783,4.9156,4.8753,4.8114,4.7375,4.7078,4.678,4.6506,4.6361,4.6326,4.6326,4.6326,4.6326,4.6326,4.6326,4.6326,4.6326,4.6326,4.6326,4.6326,4.6326,4.6326,4.6326,4.6326,4.6326,4.6326,4.6601,4.6925,4.7197,4.7645,4.8172,4.8695,4.8926,4.9156,4.9442,4.9469,4.9385,4.9156,4.9156,4.9098,4.8983,4.9098,4.9442,5.0123,5.0123,5.0516,5.1348,5.1458,5.2015,5.3415,5.3838,5.4572,5.5965,5.6933,5.7093,5.6326,5.605,5.5707,5.5027,5.4635,5.4687,5.5204,5.5523,5.5886,5.671,5.741,5.8023,5.8494,5.917,5.9937,6.0595,6.1253,6.1825,6.254,6.2929,6.3107,6.3137,6.3137,6.3137,6.3137,6.3137,6.3378,6.3917,6.4575,6.5233,6.5922,6.655,6.6969,6.6999,6.7029,6.7029,6.6999,6.7029,6.7059,6.7388,6.8046,6.8375,6.9034,6.9602,7.0051,4.756,4.7619,4.7821,4.7821,4.756,4.756,4.7442,4.7265,4.7442,4.756,4.756,4.7821,4.8379,4.9129,4.9156,4.8811,4.8347,4.8055,4.7552,4.6866,4.6806,4.6626,4.6326,4.6326,4.6326,4.6326,4.6326,4.6326,4.6326,4.6326,4.6326,4.6326,4.6326,4.6326,4.6326,4.6326,4.6326,4.6326,4.6326,4.6326,4.6326,4.6541,4.6686,4.6866,4.7257,4.7586,4.7938,4.8114,4.8321,4.8579,4.8579,4.8463,4.823,4.8204,4.8114,4.7997,4.8114,4.8521,4.9156,4.9213,4.9613,5.0404,5.0653,5.14,5.2738,5.3241,5.3826,5.4831,5.5584,5.5709,5.544,5.5311,5.506,5.4533,5.4322,5.455,5.5295,5.553,5.6113,5.7021,5.7562,5.8021,5.8525,5.9254,6.0019,6.0704,6.1359,6.2102,6.2784,6.2963,6.2963,6.3079,6.3137,6.3137,6.3137,6.3137,6.3408,6.4126,6.4784,6.5323,6.6041,6.67,6.6969,6.6999,6.7089,6.7298,6.7448,6.7418,6.7627,6.8166,6.8764,6.9333,6.9692,7.0051,7.041,4.7205,4.7205,4.7205,4.7205,4.7205,4.7205,4.7205,4.7146,4.7205,4.7205,4.7205,4.7205,4.7265,4.7442,4.7677,4.7762,4.7703,4.7383,4.7112,4.6806,4.6746,4.6626,4.6326,4.6326,4.6326,4.6326,4.6326,4.6326,4.6326,4.6326,4.6326,4.6326,4.6326,4.6326,4.6326,4.6326,4.6326,4.6326,4.6326,4.6326,4.6301,4.6326,4.6481,4.6746,4.6806,4.7019,4.7205,4.7265,4.7324,4.7324,4.7383,4.7324,4.7265,4.7265,4.7265,4.7265,4.7265,4.756,4.8172,4.8289,4.8637,4.9522,5.004,5.0806,5.1778,5.2294,5.2892,5.3658,5.3833,5.413,5.4741,5.4544,5.4426,5.4694,5.4342,5.4587,5.5571,5.6151,5.6778,5.7177,5.7643,5.8051,5.8254,5.8785,5.9578,6.0227,6.0817,6.1525,6.2378,6.2615,6.2789,6.2963,6.3079,6.3137,6.3137,6.3137,6.3647,6.4425,6.4964,6.5443,6.6311,6.6969,6.6999,6.7148,6.7508,6.7777,6.8016,6.8315,6.8675,6.9123,6.9512,6.9991,7.0171,7.056,7.0799,4.6636,4.6636,4.6636,4.6636,4.6636,4.6661,4.6636,4.6636,4.6601,4.6636,4.6636,4.6636,4.6636,4.6636,4.678,4.69,4.7078,4.7019,4.678,4.6506,4.6506,4.6446,4.6301,4.6326,4.6326,4.6326,4.6326,4.6326,4.6326,4.6326,4.6326,4.6326,4.6326,4.6326,4.6326,4.6326,4.6326,4.6326,4.6326,4.6326,4.6326,4.6326,4.6361,4.6481,4.6481,4.6601,4.6959,4.6959,4.6993,4.7205,4.7205,4.7087,4.6959,4.6721,4.6721,4.69,4.6959,4.7112,4.7501,4.756,4.7821,4.8315,4.8872,4.9653,5.0446,5.1088,5.1732,5.2394,5.2615,5.3032,5.3599,5.3785,5.3834,5.4036,5.406,5.4312,5.5077,5.5702,5.6158,5.6617,5.7104,5.7561,5.814,5.8751,5.945,6.0093,6.0853,6.1498,6.188,6.2292,6.2615,6.2789,6.2963,6.3137,6.3137,6.3137,6.3468,6.4425,6.5173,6.5742,6.649,6.6909,6.6999,6.7478,6.7897,6.8315,6.8585,6.9153,6.9542,6.9722,7.0141,7.038,7.059,7.0769,7.0859,4.6326,4.6326,4.6326,4.6326,4.6326,4.6326,4.6326,4.6326,4.6326,4.6326,4.6326,4.6326,4.6326,4.6326,4.6326,4.6421,4.6601,4.6626,4.6506,4.6301,4.6326,4.6326,4.6326,4.6326,4.6326,4.6326,4.6326,4.6326,4.6326,4.6326,4.6326,4.6326,4.6326,4.6326,4.6326,4.6326,4.6326,4.6326,4.6326,4.6326,4.6326,4.6326,4.6326,4.6301,4.6326,4.6361,4.6626,4.6626,4.6721,4.6874,4.6934,4.6815,4.6601,4.6421,4.6446,4.6626,4.6601,4.678,4.6993,4.7053,4.7308,4.781,4.8326,4.9015,4.9767,5.0312,5.0929,5.1455,5.1622,5.1872,5.235,5.2729,5.3102,5.3481,5.3663,5.4004,5.4737,5.5138,5.5536,5.6021,5.6479,5.7024,5.7541,5.8345,5.9008,5.9585,6.0401,6.1017,6.1434,6.1821,6.2322,6.2556,6.2789,6.2963,6.3079,6.3079,6.3617,6.4575,6.5054,6.5742,6.652,6.6849,6.7268,6.7807,6.8315,6.8764,6.9303,6.9931,7.0171,7.026,7.047,7.0709,7.0799,7.0859,7.0919,4.6326,4.6326,4.6326,4.6376,4.6401,4.6451,4.6376,4.6451,4.6426,4.6476,4.6527,4.6426,4.6476,4.6376,4.6426,4.6351,4.6326,4.6386,4.6301,4.6326,4.6326,4.6326,4.6326,4.6326,4.6326,4.6326,4.6326,4.6326,4.6326,4.6326,4.6326,4.6326,4.6326,4.6326,4.6326,4.6326,4.6326,4.6326,4.6326,4.6326,4.6326,4.6326,4.6326,4.6326,4.6326,4.6301,4.6301,4.6301,4.6361,4.6361,4.6361,4.6301,4.6361,4.6301,4.6326,4.6326,4.6301,4.6481,4.6746,4.6831,4.723,4.7854,4.8528,4.9091,4.964,5.0204,5.06,5.0715,5.0741,5.0867,5.1183,5.1481,5.2174,5.3268,5.3266,5.3594,5.4272,5.479,5.5113,5.5516,5.5968,5.6336,5.6616,5.7374,5.8198,5.8725,5.9305,6.0043,6.0802,6.1164,6.1612,6.2263,6.2615,6.2789,6.2963,6.3169,6.3947,6.4665,6.4934,6.5443,6.652,6.7119,6.7597,6.8136,6.9034,6.9512,7.0021,7.056,7.062,7.0709,7.0889,7.0919,7.0919,7.0919,7.0919,4.6326,4.6351,4.6728,4.6878,4.6928,4.7255,4.7405,4.7405,4.7405,4.7431,4.7405,4.7405,4.723,4.6928,4.6878,4.6677,4.6326,4.6326,4.6326,4.6326,4.6326,4.6326,4.6326,4.6326,4.6326,4.6326,4.6326,4.6326,4.6326,4.6326,4.6326,4.6326,4.6326,4.6326,4.6326,4.6326,4.6326,4.6326,4.6326,4.6326,4.6326,4.6326,4.6326,4.6326,4.6326,4.6326,4.6326,4.6326,4.6326,4.6326,4.6326,4.6326,4.6326,4.6326,4.6326,4.6326,4.6326,4.6301,4.6496,4.6799,4.7111,4.7561,4.8269,4.8825,4.9103,4.9583,5.0014,5.0232,5.0232,5.0423,5.0652,5.0842,5.146,5.243,5.2883,5.3356,5.4046,5.4699,5.5217,5.5306,5.5532,5.5806,5.6162,5.6801,5.7174,5.7937,5.8439,5.9017,5.9702,6.0438,6.0923,6.1552,6.2027,6.2556,6.2761,6.3145,6.392,6.4576,6.4964,6.5562,6.655,6.7388,6.7867,6.8615,6.9542,7.0171,7.0709,7.0919,7.0919,7.0919,7.0919,7.0919,7.0919,7.0919,7.0919,4.6627,4.6677,4.7205,4.7431,4.7456,4.7782,4.7908,4.7908,4.7908,4.7908,4.7908,4.7908,4.7732,4.7456,4.7405,4.7068,4.6627,4.6602,4.6502,4.6326,4.6326,4.6326,4.6326,4.6326,4.6326,4.6326,4.6326,4.6326,4.6326,4.6326,4.6326,4.6326,4.6326,4.6326,4.6326,4.6326,4.6326,4.6326,4.6326,4.6326,4.6326,4.6326,4.6326,4.6326,4.6326,4.6326,4.6326,4.6326,4.6326,4.6326,4.6326,4.6326,4.6326,4.6326,4.6326,4.6326,4.6326,4.6376,4.6602,4.6928,4.7355,4.7757,4.8385,4.8862,4.9063,4.9439,4.9719,4.9847,4.9912,4.9976,5.0168,5.0563,5.1023,5.1557,5.225,5.2952,5.3608,5.4197,5.4574,5.47,5.4951,5.53,5.5697,5.6138,5.6428,5.7157,5.7624,5.8071,5.8767,5.9578,6.0194,6.0863,6.1493,6.1968,6.241,6.3061,6.3832,6.4517,6.5024,6.5861,6.6759,6.7478,6.8076,6.9123,7.0081,7.044,7.0919,7.0919,7.0919,7.0919,7.0919,7.0919,7.0919,7.0919,7.0919,4.7179,4.7168,4.7732,4.7958,4.7958,4.8058,4.8134,4.8058,4.8083,4.8134,4.8109,4.8159,4.8058,4.7983,4.7958,4.7682,4.7255,4.7154,4.6954,4.6627,4.6527,4.6502,4.6326,4.6326,4.6326,4.6326,4.6326,4.6326,4.6326,4.6326,4.6326,4.6326,4.6326,4.6326,4.6326,4.6326,4.6326,4.6326,4.6326,4.6326,4.6326,4.6326,4.6326,4.6326,4.6326,4.6326,4.6326,4.6326,4.6326,4.6326,4.6326,4.6326,4.6326,4.6326,4.6326,4.6326,4.6326,4.6602,4.6918,4.7143,4.7631,4.8485,4.8786,4.9012,4.9464,4.954,4.959,4.9654,4.9654,4.968,4.987,5.0327,5.0825,5.1068,5.1833,5.2543,5.3166,5.3413,5.3765,5.3985,5.4352,5.4786,5.5061,5.5524,5.5998,5.6432,5.6785,5.7238,5.8071,5.8802,5.9488,6.0165,6.0863,6.1373,6.182,6.2821,6.353,6.3944,6.4778,6.5884,6.6876,6.7625,6.8615,6.9662,7.035,7.0709,7.0919,7.0919,7.0919,7.0919,7.0919,7.0919,7.0919,7.0919,7.0919,4.7707,4.7782,4.8309,4.8535,4.8611,4.8962,4.9138,4.9138,4.9138,4.9063,4.9138,4.9138,4.8887,4.856,4.8535,4.8234,4.7807,4.7707,4.7682,4.7506,4.7506,4.7004,4.6451,4.6326,4.6326,4.6326,4.6326,4.6326,4.6326,4.6326,4.6326,4.6326,4.6326,4.6326,4.6326,4.6326,4.6326,4.6326,4.6326,4.6326,4.6326,4.6326,4.6326,4.6326,4.6326,4.6326,4.6326,4.6326,4.6326,4.6326,4.6326,4.6326,4.6326,4.6326,4.6326,4.6326,4.6351,4.6552,4.7018,4.7506,4.8058,4.8686,4.9138,4.9439,4.9565,4.959,4.959,4.959,4.9615,4.9766,5.0117,5.0434,5.0927,5.1724,5.2333,5.2781,5.3145,5.3572,5.387,5.3963,5.4133,5.4226,5.4411,5.4582,5.4913,5.5405,5.5736,5.6132,5.7109,5.8007,5.8739,5.9516,6.0132,6.0681,6.1305,6.2389,6.3123,6.3476,6.4429,6.5775,6.68,6.7829,6.912,7.038,7.056,7.0859,7.0919,7.0919,7.0919,7.0919,7.0919,7.0919,7.0919,7.0919,7.0919,4.8284,4.8309,4.8887,4.9113,4.9163,4.9464,4.959,4.959,4.959,4.959,4.959,4.959,4.9414,4.9138,4.9113,4.8812,4.8309,4.8259,4.8134,4.7908,4.7883,4.7405,4.6778,4.6476,4.6326,4.6326,4.6326,4.6326,4.6326,4.6326,4.6326,4.6326,4.6326,4.6326,4.6326,4.6326,4.6326,4.6326,4.6326,4.6326,4.6326,4.6326,4.6326,4.6326,4.6326,4.6401,4.6602,4.6652,4.6577,4.6376,4.6326,4.6326,4.6326,4.6326,4.6326,4.6326,4.6527,4.6903,4.7431,4.7958,4.851,4.9012,4.9439,4.9565,4.959,4.959,4.959,4.959,4.959,4.9866,5.0368,5.082,5.1498,5.2294,5.2793,5.3038,5.3064,5.3292,5.3563,5.3725,5.3793,5.3861,5.3997,5.3997,5.42,5.4604,5.5006,5.5472,5.6197,5.7109,5.7944,5.8641,5.9261,5.9815,6.0403,6.136,6.2383,6.2825,6.3849,6.5256,6.6647,6.7868,6.9074,7.0187,7.055,7.0919,7.0854,7.0854,7.0919,7.0919,7.0919,7.0919,7.0919,7.0919,7.0919,4.8862,4.8912,4.9389,4.959,4.9565,4.959,4.959,4.959,4.959,4.959,4.959,4.959,4.9565,4.959,4.949,4.9289,4.8862,4.8837,4.8586,4.8309,4.8109,4.7782,4.7405,4.6753,4.6527,4.6451,4.6376,4.6326,4.6326,4.6326,4.6326,4.6326,4.6326,4.6326,4.6326,4.6326,4.6326,4.6326,4.6326,4.6326,4.6326,4.6326,4.6326,4.6326,4.6476,4.6677,4.6979,4.7129,4.7004,4.6527,4.6476,4.6527,4.6502,4.6451,4.6476,4.6552,4.6954,4.7431,4.7958,4.846,4.8962,4.9414,4.954,4.959,4.959,4.959,4.959,4.959,4.964,5.0067,5.0745,5.1574,5.2251,5.2729,5.2879,5.2904,5.2861,5.2861,5.3067,5.3341,5.341,5.3614,5.3793,5.3835,5.3861,5.3997,5.4402,5.4872,5.5472,5.6328,5.7017,5.7597,5.8217,5.8891,5.9583,6.0326,6.1377,6.2228,6.3264,6.4684,6.6381,6.7601,6.8797,6.9773,7.0254,7.0593,7.0789,7.0789,7.0789,7.0919,7.0919,7.0919,7.0919,7.0919,7.0919,4.9414,4.9439,4.954,4.959,4.959,4.959,4.959,4.959,4.959,4.959,4.959,4.959,4.959,4.959,4.959,4.9515,4.9389,4.9364,4.9314,4.9238,4.8761,4.856,4.8209,4.7456,4.6979,4.6853,4.6502,4.6326,4.6326,4.6326,4.6326,4.6326,4.6326,4.6326,4.6326,4.6326,4.6326,4.6326,4.6326,4.6326,4.6326,4.6326,4.6326,4.6351,4.6702,4.6979,4.7118,4.7531,4.7657,4.7581,4.7531,4.7405,4.7104,4.7305,4.728,4.7154,4.7456,4.7983,4.8485,4.8736,4.9012,4.9515,4.959,4.959,4.959,4.959,4.959,4.969,4.9992,5.0594,5.1523,5.2302,5.2703,5.281,5.2861,5.2861,5.2861,5.2861,5.2929,5.2998,5.3067,5.3067,5.3136,5.3179,5.3341,5.3546,5.3861,5.4293,5.4872,5.5604,5.6105,5.6693,5.7428,5.8099,5.8794,5.9649,6.0656,6.1486,6.2567,6.3772,6.5535,6.6933,6.7918,6.8965,6.9913,7.02,7.0462,7.0528,7.0528,7.0724,7.0854,7.0824,7.0824,7.0824,7.0919,4.959,4.959,4.959,4.959,4.959,4.959,4.959,4.959,4.959,4.959,4.959,4.959,4.959,4.959,4.959,4.959,4.959,4.959,4.959,4.9515,4.9264,4.9163,4.9012,4.8309,4.7707,4.7143,4.6792,4.6602,4.6376,4.6326,4.6326,4.6326,4.6326,4.6326,4.6326,4.6326,4.6326,4.6326,4.6326,4.6326,4.6326,4.6326,4.6326,4.6401,4.6828,4.7168,4.7506,4.8033,4.841,4.8611,4.8661,4.8309,4.7657,4.7757,4.7757,4.7657,4.8008,4.841,4.8736,4.9012,4.9314,4.9565,4.959,4.959,4.959,4.959,4.959,4.9715,5.0142,5.087,5.1975,5.2578,5.2879,5.2861,5.2861,5.2861,5.2861,5.2861,5.2861,5.2861,5.2929,5.2929,5.2929,5.2861,5.2929,5.3273,5.3546,5.3887,5.4158,5.4805,5.5339,5.5987,5.6715,5.742,5.8132,5.8968,6.0118,6.0811,6.1571,6.2831,6.4267,6.561,6.6854,6.8111,6.9374,6.9869,7.0068,7.0134,7.0265,7.0528,7.0658,7.0694,7.0824,7.0919,7.0919,4.959,4.959,4.959,4.959,4.959,4.959,4.959,4.959,4.959,4.959,4.959,4.959,4.959,4.959,4.959,4.959,4.959,4.959,4.959,4.9565,4.954,4.949,4.9389,4.8987,4.8385,4.7456,4.7093,4.6792,4.6552,4.6351,4.6326,4.6326,4.6326,4.6326,4.6326,4.6326,4.6326,4.6326,4.6326,4.6326,4.6326,4.6326,4.6326,4.6401,4.7004,4.7456,4.7908,4.8485,4.9088,4.9565,4.959,4.9088,4.8485,4.8159,4.8083,4.8109,4.8586,4.8887,4.9038,4.9314,4.9565,4.959,4.959,4.959,4.959,4.959,4.959,4.9816,5.0218,5.1096,5.2101,5.2628,5.2879,5.2861,5.2861,5.2861,5.2861,5.2861,5.2861,5.2861,5.2861,5.2861,5.2861,5.2861,5.2861,5.2929,5.3204,5.3478,5.3751,5.409,5.463,5.5095,5.5733,5.6551,5.7278,5.8366,5.944,5.9947,6.0591,6.1821,6.3073,6.4192,6.5544,6.7544,6.8702,6.9106,6.9441,6.9604,6.9803,7.02,7.0462,7.0563,7.0694,7.0854,7.0919,4.959,4.959,4.959,4.959,4.959,4.959,4.959,4.959,4.959,4.959,4.959,4.959,4.959,4.959,4.959,4.959,4.959,4.959,4.959,4.959,4.959,4.9525,4.9475,4.9311,4.8949,4.841,4.767,4.7118,4.6853,4.6577,4.6401,4.6326,4.6326,4.6326,4.6326,4.6326,4.6326,4.6326,4.6326,4.6326,4.6326,4.6326,4.6376,4.6476,4.723,4.7757,4.8134,4.8887,4.9515,4.959,4.959,4.9464,4.9238,4.9188,4.8987,4.8812,4.9088,4.9339,4.9414,4.949,4.959,4.959,4.959,4.959,4.959,4.9615,4.9665,4.9992,5.0619,5.1574,5.2653,5.2854,5.2836,5.2861,5.2861,5.2861,5.2861,5.2861,5.2861,5.2861,5.2861,5.2861,5.2861,5.2861,5.2861,5.2861,5.2998,5.3273,5.3478,5.364,5.3912,5.4295,5.4688,5.5606,5.6456,5.7729,5.8797,5.8982,5.9658,6.0672,6.1879,6.2805,6.4291,6.6087,6.7467,6.8227,6.8567,6.8837,6.9404,6.984,7.017,7.0433,7.0629,7.0759,7.0919,4.959,4.959,4.959,4.959,4.959,4.959,4.959,4.959,4.959,4.959,4.959,4.959,4.959,4.959,4.959,4.959,4.959,4.959,4.959,4.959,4.9396,4.9332,4.9267,4.9202,4.8948,4.8615,4.8031,4.747,4.7118,4.6878,4.6602,4.6351,4.6326,4.6326,4.6326,4.6326,4.6326,4.6326,4.6326,4.6326,4.6326,4.6326,4.6401,4.6903,4.7456,4.8008,4.8485,4.9088,4.959,4.959,4.959,4.959,4.959,4.9565,4.949,4.9289,4.9439,4.959,4.959,4.959,4.959,4.959,4.959,4.959,4.959,4.964,4.9841,5.0494,5.1122,5.2026,5.2829,5.2836,5.2861,5.2861,5.2861,5.2861,5.2861,5.2861,5.2861,5.2861,5.2861,5.2861,5.2861,5.2861,5.2861,5.2861,5.2861,5.2998,5.3204,5.3366,5.3597,5.4225,5.4789,5.5676,5.6443,5.7209,5.8025,5.8239,5.8672,5.9731,6.0731,6.1656,6.2747,6.4237,6.5558,6.7027,6.7747,6.8159,6.8837,6.9441,6.9774,7.0104,7.0498,7.0694,7.0789,4.959,4.959,4.959,4.959,4.959,4.959,4.959,4.959,4.959,4.959,4.959,4.959,4.959,4.959,4.959,4.959,4.959,4.9525,4.9461,4.9396,4.9137,4.9007,4.8877,4.8772,4.8616,4.8648,4.8457,4.8018,4.7545,4.7319,4.6979,4.6677,4.6502,4.6401,4.6351,4.6326,4.6326,4.6326,4.6326,4.6326,4.6326,4.6326,4.6577,4.7068,4.7657,4.8184,4.8686,4.9264,4.9565,4.959,4.959,4.959,4.959,4.959,4.959,4.959,4.959,4.959,4.959,4.959,4.959,4.959,4.959,4.959,4.9665,4.9816,5.0193,5.1122,5.1749,5.2277,5.2804,5.2861,5.2861,5.2861,5.2861,5.2861,5.2861,5.2861,5.2861,5.2861,5.2861,5.2861,5.2861,5.2861,5.2861,5.2861,5.2861,5.2861,5.3067,5.3204,5.3544,5.4423,5.5127,5.6005,5.6611,5.6861,5.7379,5.7523,5.7933,5.8694,5.962,6.0577,6.1665,6.2758,6.4434,6.5834,6.6637,6.7403,6.8022,6.8635,6.9241,6.984,7.0301,7.0593,7.0724,4.959,4.959,4.959,4.959,4.959,4.959,4.959,4.959,4.959,4.959,4.959,4.959,4.959,4.959,4.959,4.959,4.9525,4.9332,4.9202,4.9137,4.8772,4.8576,4.8666,4.8666,4.8313,4.8313,4.8371,4.8441,4.7965,4.772,4.7494,4.7032,4.6881,4.6792,4.6516,4.6355,4.6326,4.6326,4.6351,4.6351,4.6376,4.6401,4.6728,4.7205,4.7707,4.8259,4.8837,4.9339,4.959,4.959,4.959,4.959,4.959,4.959,4.959,4.959,4.959,4.959,4.959,4.959,4.959,4.959,4.959,4.959,4.9766,5.0142,5.0619,5.1197,5.1825,5.2352,5.2804,5.2861,5.2861,5.2861,5.2861,5.2861,5.2861,5.2861,5.2861,5.2861,5.2861,5.2861,5.2861,5.2861,5.2861,5.2861,5.2861,5.2861,5.303,5.3268,5.3564,5.4441,5.5223,5.6125,5.6475,5.675,5.6874,5.6874,5.7286,5.7749,5.8497,5.9377,6.0321,6.153,6.3108,6.43,6.495,6.5852,6.6984,6.7781,6.8325,6.9273,7.0236,7.0433,7.0325,4.9396,4.959,4.959,4.959,4.959,4.959,4.959,4.959,4.959,4.959,4.959,4.959,4.959,4.959,4.959,4.9461,4.9332,4.9137,4.8942,4.8706,4.8289,4.796,4.7828,4.7563,4.7364,4.7431,4.7588,4.7557,4.7605,4.7641,4.7505,4.7097,4.7022,4.7035,4.6797,4.6598,4.662,4.6717,4.6778,4.6778,4.6853,4.7079,4.7456,4.8008,4.8259,4.8661,4.9138,4.9414,4.959,4.959,4.959,4.959,4.959,4.959,4.959,4.959,4.959,4.959,4.959,4.959,4.959,4.9615,4.964,4.9741,5.0067,5.0569,5.1122,5.1699,5.2251,5.2653,5.2854,5.2861,5.2861,5.2861,5.2861,5.2861,5.2861,5.2861,5.2861,5.2861,5.2861,5.2861,5.2861,5.2861,5.2861,5.2861,5.2886,5.2886,5.3281,5.3683,5.4029,5.4482,5.5261,5.604,5.6239,5.6438,5.651,5.6583,5.6801,5.7193,5.7516,5.8294,5.9252,5.9929,6.1021,6.2129,6.3136,6.452,6.5879,6.6691,6.7392,6.8252,6.9073,6.9357,6.9402,4.9332,4.959,4.959,4.959,4.959,4.959,4.959,4.959,4.959,4.959,4.959,4.959,4.959,4.9525,4.9461,4.9332,4.9072,4.8942,4.8616,4.8158,4.763,4.7232,4.6898,4.6473,4.6136,4.6136,4.6429,4.6516,4.6689,4.6801,4.6891,4.6983,4.7023,4.7066,4.7082,4.6935,4.6836,4.7084,4.7269,4.7269,4.738,4.7657,4.8134,4.8535,4.8837,4.9038,4.949,4.959,4.959,4.959,4.959,4.959,4.959,4.959,4.959,4.959,4.959,4.959,4.959,4.959,4.959,4.964,4.9816,5.0092,5.0619,5.1172,5.1599,5.2026,5.2553,5.2829,5.2861,5.2861,5.2861,5.2861,5.2861,5.2861,5.2861,5.2861,5.2861,5.2861,5.2861,5.2861,5.2861,5.2861,5.2861,5.2861,5.2886,5.2911,5.3432,5.3984,5.4436,5.4787,5.544,5.6093,5.6143,5.6219,5.6219,5.6292,5.651,5.6707,5.6979,5.7477,5.8328,5.8899,5.9393,6.0414,6.1779,6.3275,6.4722,6.5468,6.6172,6.6946,6.7617,6.8087,6.8564,4.9267,4.959,4.959,4.959,4.959,4.959,4.959,4.959,4.959,4.959,4.9525,4.959,4.9525,4.9461,4.9267,4.9072,4.9007,4.842,4.796,4.7497,4.6874,4.6362,4.6001,4.5595,4.5324,4.5256,4.5324,4.5324,4.546,4.5503,4.6182,4.6988,4.6786,4.6923,4.7047,4.709,4.7082,4.7396,4.7583,4.7795,4.7883,4.8033,4.8335,4.8711,4.8837,4.9038,4.9565,4.959,4.959,4.959,4.959,4.959,4.959,4.959,4.959,4.959,4.959,4.964,4.969,4.9665,4.9615,4.9741,5.0092,5.0594,5.1172,5.1699,5.2051,5.2176,5.2678,5.2879,5.2861,5.2861,5.2861,5.2861,5.2861,5.2861,5.2861,5.2861,5.2861,5.2861,5.2861,5.2861,5.2861,5.2861,5.2861,5.2861,5.2911,5.3005,5.3557,5.411,5.4687,5.5164,5.5742,5.6143,5.6194,5.6219,5.6219,5.6219,5.6365,5.6365,5.6415,5.701,5.7557,5.8002,5.862,5.9471,6.0361,6.1719,6.2917,6.4055,6.4996,6.5791,6.6909,6.7712,6.821,4.8967,4.9332,4.9525,4.959,4.959,4.959,4.959,4.959,4.959,4.9461,4.9267,4.9267,4.9137,4.8967,4.8902,4.8616,4.842,4.796,4.7497,4.6965,4.6271,4.5619,4.5119,4.464,4.4159,4.4021,4.3999,4.393,4.393,4.4228,4.4641,4.5341,4.5986,4.6783,4.7003,4.7222,4.7361,4.7555,4.7932,4.8208,4.851,4.8812,4.9063,4.9238,4.9289,4.9364,4.9565,4.959,4.959,4.964,4.9601,4.9626,4.9715,4.9715,4.969,4.969,4.9715,4.9841,4.9992,4.9866,4.9741,5.0193,5.0645,5.1197,5.1699,5.2,5.2302,5.2528,5.2754,5.2861,5.2861,5.2861,5.2861,5.2861,5.2861,5.2861,5.2861,5.2861,5.303,5.3055,5.298,5.2861,5.2861,5.2861,5.2861,5.2861,5.2911,5.313,5.3708,5.4235,5.4813,5.5365,5.5917,5.6168,5.6194,5.6219,5.6219,5.6219,5.6219,5.6219,5.6219,5.6317,5.6836,5.728,5.7747,5.8507,5.9281,6.0129,6.136,6.288,6.3869,6.4696,6.5892,6.7241,6.7737,4.851,4.8942,4.9202,4.9396,4.959,4.959,4.959,4.959,4.9461,4.9267,4.8942,4.8942,4.8747,4.851,4.8248,4.805,4.7696,4.7298,4.6898,4.6294,4.5619,4.4869,4.425,4.3697,4.3258,4.284,4.277,4.284,4.2909,4.3071,4.3445,4.393,4.4503,4.5481,4.6822,4.7423,4.758,4.7838,4.8372,4.8963,4.9411,4.9801,5.0092,5.0142,5.0142,5.0037,5.0087,5.0047,4.9956,4.9866,4.9931,4.9947,4.9987,5.0027,5.0092,5.0092,5.0117,5.0293,5.0444,5.0419,5.0343,5.0971,5.1272,5.18,5.2176,5.2352,5.2603,5.2735,5.2836,5.2861,5.2861,5.2861,5.2861,5.2861,5.2861,5.2861,5.2861,5.2861,5.3105,5.3206,5.3105,5.2911,5.3105,5.308,5.2861,5.2861,5.2886,5.3281,5.4009,5.4486,5.4913,5.5465,5.5993,5.6143,5.6219,5.6219,5.6219,5.6219,5.6219,5.6219,5.6219,5.6219,5.6292,5.6662,5.7197,5.7647,5.8414,5.9378,6.0607,6.1959,6.3251,6.4684,6.5582,6.6859,6.7113,4.7918,4.86,4.8666,4.8967,4.9525,4.959,4.959,4.9525,4.9202,4.8877,4.8576,4.8535,4.8313,4.7984,4.763,4.7364,4.7032,4.6607,4.6136,4.5551,4.4937,4.4112,4.3419,4.2791,4.23,4.2089,4.1855,4.1785,4.1947,4.2018,4.2229,4.2694,4.3206,4.4202,4.5913,4.6965,4.7738,4.8348,4.9239,4.9818,5.0307,5.0655,5.0747,5.0747,5.0747,5.0564,5.0406,5.034,5.0181,5.0073,5.0231,5.0389,5.0389,5.0705,5.0863,5.0913,5.1005,5.108,5.1247,5.1222,5.1473,5.1774,5.1925,5.2277,5.2729,5.2879,5.2829,5.2861,5.2861,5.2861,5.2861,5.2861,5.2861,5.2861,5.2861,5.2861,5.2861,5.3105,5.3306,5.3406,5.3206,5.3055,5.3231,5.3281,5.2961,5.2861,5.2861,5.3406,5.4185,5.4637,5.4963,5.5591,5.6118,5.6143,5.6219,5.6219,5.6219,5.6219,5.6219,5.6219,5.6219,5.6219,5.6292,5.6365,5.6874,5.7523,5.8096,5.8691,6.0338,6.2093,6.3715,6.5089,6.5819,6.6444,6.6814,4.7431,4.7894,4.8116,4.851,4.8967,4.9137,4.9267,4.9202,4.8902,4.8445,4.796,4.7852,4.7497,4.7032,4.6831,4.6607,4.6496,4.5934,4.5392,4.5187,4.4319,4.3397,4.2721,4.1926,4.1381,4.0882,4.0668,4.0576,4.0433,4.079,4.1167,4.1473,4.2507,4.4,4.5415,4.6537,4.7362,4.854,4.9204,4.9547,5.0216,5.0493,5.056,5.0585,5.0585,5.0475,5.0339,5.0389,5.0253,5.0161,5.0389,5.0432,5.0407,5.061,5.0585,5.056,5.056,5.0844,5.1302,5.1712,5.2022,5.2191,5.2427,5.2678,5.2836,5.2861,5.2861,5.2861,5.2861,5.2861,5.2861,5.2861,5.2861,5.2861,5.2861,5.2861,5.2936,5.3331,5.3557,5.3582,5.3482,5.3181,5.3181,5.3181,5.2936,5.298,5.3005,5.3557,5.431,5.4612,5.4913,5.5666,5.6194,5.6194,5.6219,5.6219,5.6219,5.6219,5.6219,5.6219,5.6219,5.6219,5.6219,5.6292,5.6874,5.7451,5.8167,5.9061,6.0728,6.2354,6.3936,6.5187,6.5882,6.6444,6.6876,4.663,4.6965,4.7298,4.7696,4.8116,4.8706,4.8877,4.8682,4.8379,4.7852,4.7364,4.7098,4.663,4.6136,4.5866,4.5754,4.5619,4.5187,4.4778,4.4663,4.3697,4.2931,4.2208,4.1431,4.0882,4.031,3.995,3.9786,3.9858,4.0002,4.034,4.1049,4.2069,4.3228,4.4622,4.5839,4.7052,4.8214,4.8865,4.9469,4.9983,5.0239,5.0352,5.0376,5.0308,5.0214,5.0121,5.0097,5.0097,5.0141,5.021,5.0348,5.0416,5.0441,5.0441,5.0509,5.0558,5.096,5.158,5.1847,5.2079,5.2229,5.2641,5.2836,5.2861,5.2861,5.2861,5.2861,5.2861,5.2861,5.2861,5.2861,5.2861,5.2861,5.2861,5.2861,5.308,5.3406,5.3884,5.3884,5.3733,5.3432,5.3055,5.3005,5.2861,5.3005,5.3105,5.3783,5.4411,5.4712,5.5039,5.5742,5.6219,5.6219,5.6219,5.6219,5.6219,5.6219,5.6219,5.6219,5.6219,5.6219,5.6219,5.6292,5.6874,5.7595,5.8426,5.9621,6.0975,6.2459,6.4001,6.5031,6.5819,6.6444,6.6937,4.546,4.589,4.6227,4.663,4.7098,4.7984,4.8248,4.796,4.763,4.7298,4.6831,4.616,4.5686,4.5256,4.4937,4.4663,4.448,4.4319,4.4112,4.3767,4.3211,4.2651,4.1947,4.1147,4.0525,4.0166,3.9786,3.9425,3.9642,3.9642,3.9935,4.0497,4.1316,4.2481,4.3821,4.5106,4.6517,4.7647,4.8497,4.9157,4.9605,4.9984,5.0007,5.0053,5.0053,5.0007,4.9889,4.9913,4.9961,5.0079,5.0339,5.0717,5.0952,5.1117,5.1117,5.1093,5.0974,5.1114,5.1419,5.1586,5.1866,5.2065,5.251,5.2792,5.2861,5.2861,5.2861,5.2861,5.2861,5.2861,5.2861,5.2861,5.2861,5.2861,5.2861,5.2936,5.313,5.3507,5.4059,5.4185,5.4009,5.3683,5.3105,5.2861,5.2886,5.313,5.3331,5.3909,5.4536,5.5013,5.5365,5.5867,5.6219,5.6219,5.6219,5.6219,5.6219,5.6219,5.6219,5.6219,5.6219,5.6219,5.6219,5.6438,5.6946,5.7739,5.8638,5.983,6.1111,6.2592,6.4001,6.5031,6.5882,6.6506,6.6999,4.4366,4.4709,4.5119,4.5619,4.6227,4.6831,4.7232,4.7563,4.7298,4.6697,4.5731,4.5347,4.48,4.4181,4.3744,4.3744,4.3697,4.3628,4.3628,4.328,4.2721,4.23,4.1664,4.079,4.0146,3.9714,3.9353,3.8991,3.9011,3.9156,3.9559,4.0045,4.0868,4.1969,4.3031,4.422,4.5661,4.6872,4.779,4.8338,4.8743,4.8933,4.9005,4.9005,4.9078,4.9005,4.915,4.9221,4.9293,4.9652,4.9723,4.9938,4.9938,5.0009,4.9985,4.9938,4.9771,4.9771,5.0435,5.086,5.1141,5.1516,5.1866,5.2446,5.2654,5.2861,5.2861,5.2861,5.2861,5.2861,5.2861,5.2861,5.2861,5.2861,5.2936,5.3181,5.3381,5.3959,5.4461,5.4536,5.4386,5.3783,5.3231,5.2861,5.298,5.3206,5.3557,5.4135,5.4662,5.5164,5.5591,5.6068,5.6219,5.6219,5.6219,5.6219,5.6219,5.6219,5.6219,5.6219,5.6219,5.6219,5.6219,5.651,5.7019,5.7882,5.8876,6.0039,6.1179,6.2592,6.4001,6.4967,6.5882,6.6506,6.6999,4.3419,4.3606,4.3952,4.4572,4.521,4.5595,4.6069,4.6362,4.6338,4.5866,4.5256,4.4457,4.3905,4.3489,4.2979,4.277,4.2931,4.2791,4.2791,4.2651,4.2229,4.1947,4.131,4.0504,3.9858,3.9425,3.9083,3.872,3.8686,3.9048,3.9431,3.9884,4.0729,4.1545,4.2459,4.3332,4.4344,4.5512,4.65,4.7134,4.7428,4.7479,4.7428,4.7502,4.7552,4.7845,4.7991,4.8113,4.8404,4.8789,4.8789,4.8957,4.8933,4.8933,4.8861,4.8789,4.8717,4.8861,4.9389,4.9795,5.0222,5.0718,5.1165,5.1726,5.2213,5.2491,5.2723,5.2861,5.2861,5.2861,5.2861,5.2861,5.2861,5.2861,5.3155,5.3381,5.3884,5.4461,5.4712,5.4863,5.4511,5.3934,5.3482,5.313,5.2936,5.3206,5.3632,5.4285,5.4838,5.539,5.5767,5.6143,5.6219,5.6219,5.6219,5.6219,5.6219,5.6219,5.6219,5.6219,5.6219,5.6219,5.6292,5.6583,5.7019,5.7953,5.8876,5.9969,6.1179,6.2526,6.3871,6.4839,6.5756,6.6538,6.6876,4.2441,4.2419,4.284,4.3467,4.409,4.4526,4.4732,4.4732,4.4983,4.5119,4.4778,4.3675,4.3001,4.2651,4.2138,4.1926,4.2089,4.2018,4.2159,4.1997,4.1756,4.1544,4.1096,4.031,3.9714,3.9425,3.9103,3.8633,3.875,3.9038,3.943,3.9922,4.0633,4.1314,4.1999,4.256,4.331,4.3974,4.488,4.5608,4.5928,4.6002,4.5928,4.6002,4.6225,4.6522,4.667,4.6891,4.7259,4.7502,4.7721,4.7868,4.7868,4.7721,4.7575,4.7552,4.7479,4.7794,4.8159,4.8572,4.9221,4.9723,5.0388,5.0884,5.1376,5.2074,5.2377,5.2515,5.2515,5.2515,5.2515,5.2654,5.2723,5.2917,5.3187,5.3538,5.4084,5.4587,5.4913,5.4888,5.4411,5.3808,5.3281,5.2861,5.2861,5.3155,5.3733,5.4436,5.4938,5.5491,5.5892,5.6194,5.6219,5.6219,5.6219,5.6219,5.6219,5.6219,5.6219,5.6219,5.6219,5.6292,5.6365,5.6656,5.6946,5.781,5.8806,5.99,6.1138,6.242,6.3675,6.474,6.563,6.6352,6.6814,4.0882,4.0954,4.1855,4.2559,4.3049,4.3697,4.3974,4.3905,4.3697,4.3628,4.3489,4.3001,4.2229,4.1573,4.1289,4.1147,4.1167,4.1381,4.1735,4.1735,4.1544,4.1188,4.0954,4.0146,3.959,3.9228,3.8905,3.8769,3.9004,3.9238,3.9629,4.0273,4.07,4.1109,4.1676,4.2159,4.239,4.2754,4.3213,4.418,4.488,4.5031,4.5106,4.5106,4.5181,4.5405,4.5555,4.5779,4.6077,4.6374,4.6374,4.6448,4.6522,4.6225,4.6151,4.6299,4.6225,4.6448,4.6891,4.7406,4.7991,4.8572,4.915,4.9795,5.053,5.1376,5.196,5.203,5.2099,5.2099,5.2169,5.2377,5.2515,5.2878,5.3173,5.3668,5.4235,5.4637,5.5039,5.4662,5.4185,5.3683,5.313,5.2861,5.2861,5.3331,5.4034,5.4683,5.4988,5.5465,5.5942,5.6219,5.6219,5.6219,5.6219,5.6219,5.6219,5.6219,5.6219,5.6219,5.6219,5.6219,5.6292,5.651,5.6946,5.7739,5.8638,5.983,6.107,6.2287,6.3413,6.4483,6.5378,6.6132,6.6538,4.0002,4.0166,4.1075,4.1643,4.1947,4.2651,4.2931,4.2931,4.2721,4.2511,4.23,4.2018,4.1431,4.079,4.0576,4.0361,4.0453,4.074,4.0954,4.1096,4.1096,4.0811,4.0382,3.9878,3.9518,3.9123,3.9028,3.9023,3.9277,3.9726,4.0176,4.0527,4.0664,4.1053,4.154,4.154,4.1773,4.2159,4.2139,4.2754,4.3746,4.3822,4.3746,4.3746,4.3974,4.4201,4.4504,4.473,4.5106,4.533,4.548,4.533,4.5256,4.5031,4.488,4.4955,4.4955,4.5106,4.5555,4.6151,4.6743,4.7406,4.7918,4.8499,4.9173,5.0033,5.0813,5.0954,5.1516,5.1586,5.189,5.2099,5.2099,5.2292,5.2734,5.3296,5.3811,5.4327,5.4445,5.416,5.3808,5.3582,5.313,5.2861,5.2961,5.3457,5.4185,5.4762,5.5114,5.5491,5.5942,5.6219,5.6219,5.6219,5.6219,5.6219,5.6219,5.6219,5.6219,5.6219,5.6219,5.6219,5.6292,5.6438,5.6801,5.7523,5.8497,5.9621,6.0728,6.1884,6.3084,6.4224,6.5031,6.5819,6.629,3.957,3.9714,4.0361,4.074,4.0903,4.1657,4.194,4.1898,4.194,4.1799,4.1402,4.0954,4.074,4.0504,4.0074,3.9786,3.9786,4.0166,4.0238,4.031,4.031,4.0166,3.995,3.9538,3.9308,3.9307,3.9269,3.9316,3.9551,4.0039,4.041,4.0644,4.0898,4.125,4.1172,4.125,4.1405,4.1618,4.1773,4.1927,4.2139,4.237,4.2524,4.26,4.2774,4.3081,4.3462,4.3746,4.4201,4.4277,4.4352,4.4201,4.405,4.3898,4.3746,4.367,4.3822,4.3974,4.4277,4.4805,4.5555,4.6225,4.667,4.7259,4.7868,4.8523,4.9293,4.9866,5.0435,5.1,5.1236,5.1541,5.1541,5.1684,5.2171,5.2826,5.3384,5.3846,5.3757,5.3568,5.3462,5.3287,5.3181,5.2911,5.3231,5.3683,5.421,5.4762,5.5265,5.5666,5.6068,5.6219,5.6219,5.6219,5.6219,5.6219,5.6219,5.6219,5.6219,5.6219,5.6219,5.6219,5.6219,5.6292,5.6801,5.7379,5.8212,5.9175,6.0357,6.1451,6.2659,6.3741,6.4676,6.5441,6.6007,3.9011,3.9321,3.9465,3.9662,4.0063,4.1183,4.145,4.12,4.1512,4.1471,4.0884,3.9991,3.9662,3.995,3.9858,3.961,3.9473,3.9763,3.9827,3.9786,3.9887,3.9702,3.9545,3.9486,3.9287,3.9362,3.9606,3.9902,4.0019,4.0351,4.0723,4.1016,4.1035,4.1172,4.1172,4.125,4.125,4.1405,4.1405,4.1463,4.1618,4.1927,4.237,4.2447,4.2447,4.2544,4.2677,4.2677,4.2754,4.283,4.2984,4.2984,4.2907,4.2907,4.2754,4.2754,4.283,4.2984,4.3365,4.3746,4.4428,4.5031,4.5555,4.5928,4.6448,4.6891,4.753,4.7968,4.8621,4.9413,4.9795,5.0246,5.0388,5.0792,5.1223,5.2158,5.2978,5.3116,5.3126,5.3158,5.3098,5.3042,5.3055,5.3055,5.3281,5.3758,5.4336,5.4888,5.544,5.5842,5.6219,5.6219,5.6219,5.6219,5.6219,5.6219,5.6219,5.6219,5.6219,5.6219,5.6219,5.6219,5.6219,5.6292,5.6583,5.7163,5.7999,5.885,5.9942,6.107,6.2192,6.3348,6.426,6.5124,6.5694]}]]